<?xml version='1.0' encoding='UTF-8'?>
<gpx version="1.1" creator="https://www.komoot.de" xmlns="http://www.topografix.com/GPX/1/1" xmlns:xsi="http://www.w3.org/2001/XMLSchema-instance" xsi:schemaLocation="http://www.topografix.com/GPX/1/1 http://www.topografix.com/GPX/1/1/gpx.xsd">
  <metadata>
    <name>56_800TecknauKaisten</name>
    <author>
      <link href="https://www.komoot.de">
        <text>komoot</text>
        <type>text/html</type>
      </link>
    </author>
  </metadata>
  <trk>
    <name>56_800TecknauKaisten</name>
    <trkseg>
      <trkpt lat="47.541112" lon="7.871038">
        <ele>343.060207</ele>
        <time>2021-11-14T17:56:03.570Z</time>
      </trkpt>
      <trkpt lat="47.540933" lon="7.871187">
        <ele>343.060207</ele>
        <time>2021-11-14T17:56:08.064Z</time>
      </trkpt>
      <trkpt lat="47.540894" lon="7.871220">
        <ele>343.060207</ele>
        <time>2021-11-14T17:56:09.153Z</time>
      </trkpt>
      <trkpt lat="47.540693" lon="7.871390">
        <ele>343.060207</ele>
        <time>2021-11-14T17:56:14.658Z</time>
      </trkpt>
      <trkpt lat="47.540505" lon="7.871549">
        <ele>343.060207</ele>
        <time>2021-11-14T17:56:19.421Z</time>
      </trkpt>
      <trkpt lat="47.540463" lon="7.871584">
        <ele>343.060207</ele>
        <time>2021-11-14T17:56:20.830Z</time>
      </trkpt>
      <trkpt lat="47.540265" lon="7.871808">
        <ele>343.225899</ele>
        <time>2021-11-14T17:56:26.184Z</time>
      </trkpt>
      <trkpt lat="47.540216" lon="7.871851">
        <ele>343.324010</ele>
        <time>2021-11-14T17:56:27.589Z</time>
      </trkpt>
      <trkpt lat="47.540034" lon="7.871970">
        <ele>343.666720</ele>
        <time>2021-11-14T17:56:32.306Z</time>
      </trkpt>
      <trkpt lat="47.539930" lon="7.872041">
        <ele>343.863989</ele>
        <time>2021-11-14T17:56:34.775Z</time>
      </trkpt>
      <trkpt lat="47.539841" lon="7.872151">
        <ele>344.063666</ele>
        <time>2021-11-14T17:56:37.936Z</time>
      </trkpt>
      <trkpt lat="47.539678" lon="7.872430">
        <ele>344.492758</ele>
        <time>2021-11-14T17:56:43.322Z</time>
      </trkpt>
      <trkpt lat="47.539222" lon="7.873416">
        <ele>345.882690</ele>
        <time>2021-11-14T17:57:01.010Z</time>
      </trkpt>
      <trkpt lat="47.538278" lon="7.874319">
        <ele>347.129192</ele>
        <time>2021-11-14T17:57:20.664Z</time>
      </trkpt>
      <trkpt lat="47.537716" lon="7.874966">
        <ele>347.846140</ele>
        <time>2021-11-14T17:57:34.639Z</time>
      </trkpt>
      <trkpt lat="47.537261" lon="7.875237">
        <ele>348.804143</ele>
        <time>2021-11-14T17:57:44.156Z</time>
      </trkpt>
      <trkpt lat="47.537182" lon="7.875293">
        <ele>349.003080</ele>
        <time>2021-11-14T17:57:46.144Z</time>
      </trkpt>
      <trkpt lat="47.536921" lon="7.875537">
        <ele>349.704139</ele>
        <time>2021-11-14T17:57:52.111Z</time>
      </trkpt>
      <trkpt lat="47.536757" lon="7.875759">
        <ele>350.208789</ele>
        <time>2021-11-14T17:57:56.713Z</time>
      </trkpt>
      <trkpt lat="47.536632" lon="7.875912">
        <ele>350.577121</ele>
        <time>2021-11-14T17:57:59.881Z</time>
      </trkpt>
      <trkpt lat="47.536444" lon="7.876177">
        <ele>351.166619</ele>
        <time>2021-11-14T17:58:06.843Z</time>
      </trkpt>
      <trkpt lat="47.535851" lon="7.877319">
        <ele>354.999819</ele>
        <time>2021-11-14T17:58:38.157Z</time>
      </trkpt>
      <trkpt lat="47.535770" lon="7.877432">
        <ele>355.563477</ele>
        <time>2021-11-14T17:58:42.336Z</time>
      </trkpt>
      <trkpt lat="47.535635" lon="7.877484">
        <ele>356.270086</ele>
        <time>2021-11-14T17:58:48.204Z</time>
      </trkpt>
      <trkpt lat="47.535551" lon="7.877487">
        <ele>356.695725</ele>
        <time>2021-11-14T17:58:50.112Z</time>
      </trkpt>
      <trkpt lat="47.535322" lon="7.877590">
        <ele>357.908066</ele>
        <time>2021-11-14T17:59:00.164Z</time>
      </trkpt>
      <trkpt lat="47.535088" lon="7.877742">
        <ele>359.202408</ele>
        <time>2021-11-14T17:59:07.996Z</time>
      </trkpt>
      <trkpt lat="47.534855" lon="7.878090">
        <ele>360.878597</ele>
        <time>2021-11-14T17:59:19.979Z</time>
      </trkpt>
      <trkpt lat="47.534778" lon="7.878270">
        <ele>361.580622</ele>
        <time>2021-11-14T17:59:27.286Z</time>
      </trkpt>
      <trkpt lat="47.534825" lon="7.878414">
        <ele>362.094388</ele>
        <time>2021-11-14T17:59:29.912Z</time>
      </trkpt>
      <trkpt lat="47.534946" lon="7.878790">
        <ele>363.432340</ele>
        <time>2021-11-14T17:59:41.960Z</time>
      </trkpt>
      <trkpt lat="47.534908" lon="7.878975">
        <ele>364.053480</ele>
        <time>2021-11-14T17:59:46.018Z</time>
      </trkpt>
      <trkpt lat="47.534616" lon="7.879490">
        <ele>366.213715</ele>
        <time>2021-11-14T18:00:02.965Z</time>
      </trkpt>
      <trkpt lat="47.533892" lon="7.880353">
        <ele>370.094764</ele>
        <time>2021-11-14T18:00:30.704Z</time>
      </trkpt>
      <trkpt lat="47.533606" lon="7.880961">
        <ele>371.062100</ele>
        <time>2021-11-14T18:00:43.013Z</time>
      </trkpt>
      <trkpt lat="47.533374" lon="7.881639">
        <ele>372.054360</ele>
        <time>2021-11-14T18:00:54.058Z</time>
      </trkpt>
      <trkpt lat="47.533014" lon="7.882949">
        <ele>373.067488</ele>
        <time>2021-11-14T18:01:11.973Z</time>
      </trkpt>
      <trkpt lat="47.532859" lon="7.883508">
        <ele>372.915035</ele>
        <time>2021-11-14T18:01:17.851Z</time>
      </trkpt>
      <trkpt lat="47.532713" lon="7.884122">
        <ele>372.750809</ele>
        <time>2021-11-14T18:01:23.549Z</time>
      </trkpt>
      <trkpt lat="47.532699" lon="7.884224">
        <ele>372.724551</ele>
        <time>2021-11-14T18:01:24.503Z</time>
      </trkpt>
      <trkpt lat="47.532670" lon="7.884773">
        <ele>372.585626</ele>
        <time>2021-11-14T18:01:28.996Z</time>
      </trkpt>
      <trkpt lat="47.532658" lon="7.884989">
        <ele>372.530949</ele>
        <time>2021-11-14T18:01:30.608Z</time>
      </trkpt>
      <trkpt lat="47.532650" lon="7.885569">
        <ele>371.893834</ele>
        <time>2021-11-14T18:01:35.111Z</time>
      </trkpt>
      <trkpt lat="47.532505" lon="7.887120">
        <ele>370.168855</ele>
        <time>2021-11-14T18:01:47.062Z</time>
      </trkpt>
      <trkpt lat="47.532288" lon="7.887728">
        <ele>369.429835</ele>
        <time>2021-11-14T18:01:52.239Z</time>
      </trkpt>
      <trkpt lat="47.532011" lon="7.888896">
        <ele>368.203762</ele>
        <time>2021-11-14T18:02:01.468Z</time>
      </trkpt>
      <trkpt lat="47.531843" lon="7.889349">
        <ele>367.691884</ele>
        <time>2021-11-14T18:02:05.505Z</time>
      </trkpt>
      <trkpt lat="47.531560" lon="7.889776">
        <ele>367.099282</ele>
        <time>2021-11-14T18:02:10.445Z</time>
      </trkpt>
      <trkpt lat="47.531265" lon="7.889937">
        <ele>367.007756</ele>
        <time>2021-11-14T18:02:14.413Z</time>
      </trkpt>
      <trkpt lat="47.531076" lon="7.890029">
        <ele>367.054023</ele>
        <time>2021-11-14T18:02:17.255Z</time>
      </trkpt>
      <trkpt lat="47.530606" lon="7.890373">
        <ele>367.175945</ele>
        <time>2021-11-14T18:02:25.103Z</time>
      </trkpt>
      <trkpt lat="47.530322" lon="7.890690">
        <ele>367.258650</ele>
        <time>2021-11-14T18:02:31.097Z</time>
      </trkpt>
      <trkpt lat="47.529972" lon="7.891210">
        <ele>367.373944</ele>
        <time>2021-11-14T18:02:40.259Z</time>
      </trkpt>
      <trkpt lat="47.529714" lon="7.891609">
        <ele>367.761920</ele>
        <time>2021-11-14T18:02:47.592Z</time>
      </trkpt>
      <trkpt lat="47.529695" lon="7.891638">
        <ele>367.790692</ele>
        <time>2021-11-14T18:02:48.579Z</time>
      </trkpt>
      <trkpt lat="47.529235" lon="7.892158">
        <ele>368.400929</ele>
        <time>2021-11-14T18:02:59.512Z</time>
      </trkpt>
      <trkpt lat="47.528331" lon="7.892682">
        <ele>369.513567</ele>
        <time>2021-11-14T18:03:18.215Z</time>
      </trkpt>
      <trkpt lat="47.528003" lon="7.892732">
        <ele>370.064119</ele>
        <time>2021-11-14T18:03:23.921Z</time>
      </trkpt>
      <trkpt lat="47.527498" lon="7.892650">
        <ele>370.912366</ele>
        <time>2021-11-14T18:03:33.394Z</time>
      </trkpt>
      <trkpt lat="47.527011" lon="7.893061">
        <ele>371.848269</ele>
        <time>2021-11-14T18:03:46.586Z</time>
      </trkpt>
      <trkpt lat="47.526709" lon="7.893617">
        <ele>372.907017</ele>
        <time>2021-11-14T18:03:59.118Z</time>
      </trkpt>
      <trkpt lat="47.526504" lon="7.894030">
        <ele>373.874234</ele>
        <time>2021-11-14T18:04:09.299Z</time>
      </trkpt>
      <trkpt lat="47.526451" lon="7.893983">
        <ele>374.046864</ele>
        <time>2021-11-14T18:04:10.688Z</time>
      </trkpt>
      <trkpt lat="47.526401" lon="7.893964">
        <ele>374.191114</ele>
        <time>2021-11-14T18:04:11.506Z</time>
      </trkpt>
      <trkpt lat="47.526335" lon="7.893960">
        <ele>374.375704</ele>
        <time>2021-11-14T18:04:13.580Z</time>
      </trkpt>
      <trkpt lat="47.526257" lon="7.894278">
        <ele>375.014124</ele>
        <time>2021-11-14T18:04:19.791Z</time>
      </trkpt>
      <trkpt lat="47.525725" lon="7.895110">
        <ele>377.176291</ele>
        <time>2021-11-14T18:04:38.874Z</time>
      </trkpt>
      <trkpt lat="47.525603" lon="7.895265">
        <ele>377.445341</ele>
        <time>2021-11-14T18:04:44.489Z</time>
      </trkpt>
      <trkpt lat="47.525631" lon="7.895442">
        <ele>377.597576</ele>
        <time>2021-11-14T18:04:47.339Z</time>
      </trkpt>
      <trkpt lat="47.525631" lon="7.895583">
        <ele>377.715651</ele>
        <time>2021-11-14T18:04:48.531Z</time>
      </trkpt>
      <trkpt lat="47.525622" lon="7.895944">
        <ele>378.018163</ele>
        <time>2021-11-14T18:04:55.966Z</time>
      </trkpt>
      <trkpt lat="47.525590" lon="7.896117">
        <ele>378.168372</ele>
        <time>2021-11-14T18:04:57.519Z</time>
      </trkpt>
      <trkpt lat="47.525518" lon="7.896336">
        <ele>378.372347</ele>
        <time>2021-11-14T18:05:02.326Z</time>
      </trkpt>
      <trkpt lat="47.524834" lon="7.897636">
        <ele>379.532923</ele>
        <time>2021-11-14T18:05:19.250Z</time>
      </trkpt>
      <trkpt lat="47.524617" lon="7.898216">
        <ele>379.534832</ele>
        <time>2021-11-14T18:05:25.423Z</time>
      </trkpt>
      <trkpt lat="47.524360" lon="7.898951">
        <ele>379.537215</ele>
        <time>2021-11-14T18:05:32.964Z</time>
      </trkpt>
      <trkpt lat="47.524309" lon="7.899115">
        <ele>379.537735</ele>
        <time>2021-11-14T18:05:34.878Z</time>
      </trkpt>
      <trkpt lat="47.523896" lon="7.900001">
        <ele>380.029152</ele>
        <time>2021-11-14T18:05:46.801Z</time>
      </trkpt>
      <trkpt lat="47.523861" lon="7.900049">
        <ele>380.128658</ele>
        <time>2021-11-14T18:05:47.780Z</time>
      </trkpt>
      <trkpt lat="47.523890" lon="7.900131">
        <ele>380.259043</ele>
        <time>2021-11-14T18:05:48.735Z</time>
      </trkpt>
      <trkpt lat="47.523945" lon="7.900256">
        <ele>380.469193</ele>
        <time>2021-11-14T18:05:50.326Z</time>
      </trkpt>
      <trkpt lat="47.523989" lon="7.900340">
        <ele>380.618938</ele>
        <time>2021-11-14T18:05:51.376Z</time>
      </trkpt>
      <trkpt lat="47.523957" lon="7.900371">
        <ele>380.698701</ele>
        <time>2021-11-14T18:05:52.081Z</time>
      </trkpt>
      <trkpt lat="47.523878" lon="7.900445">
        <ele>380.893687</ele>
        <time>2021-11-14T18:05:54.197Z</time>
      </trkpt>
      <trkpt lat="47.523739" lon="7.900557">
        <ele>381.223770</ele>
        <time>2021-11-14T18:05:57.129Z</time>
      </trkpt>
      <trkpt lat="47.523648" lon="7.900606">
        <ele>381.425747</ele>
        <time>2021-11-14T18:05:59.308Z</time>
      </trkpt>
      <trkpt lat="47.523620" lon="7.900698">
        <ele>381.567890</ele>
        <time>2021-11-14T18:06:01.271Z</time>
      </trkpt>
      <trkpt lat="47.523567" lon="7.900820">
        <ele>381.772227</ele>
        <time>2021-11-14T18:06:03.368Z</time>
      </trkpt>
      <trkpt lat="47.523433" lon="7.901043">
        <ele>382.192698</ele>
        <time>2021-11-14T18:06:08.612Z</time>
      </trkpt>
      <trkpt lat="47.523340" lon="7.901197">
        <ele>382.483710</ele>
        <time>2021-11-14T18:06:12.655Z</time>
      </trkpt>
      <trkpt lat="47.523036" lon="7.901580">
        <ele>383.340421</ele>
        <time>2021-11-14T18:06:24.350Z</time>
      </trkpt>
      <trkpt lat="47.522688" lon="7.901843">
        <ele>384.954592</ele>
        <time>2021-11-14T18:06:36.668Z</time>
      </trkpt>
      <trkpt lat="47.522554" lon="7.901999">
        <ele>385.658811</ele>
        <time>2021-11-14T18:06:42.989Z</time>
      </trkpt>
      <trkpt lat="47.522260" lon="7.902356">
        <ele>387.229626</ele>
        <time>2021-11-14T18:06:55.363Z</time>
      </trkpt>
      <trkpt lat="47.522132" lon="7.902476">
        <ele>387.855527</ele>
        <time>2021-11-14T18:06:59.920Z</time>
      </trkpt>
      <trkpt lat="47.522065" lon="7.902526">
        <ele>388.165501</ele>
        <time>2021-11-14T18:07:02.115Z</time>
      </trkpt>
      <trkpt lat="47.522038" lon="7.902562">
        <ele>388.315606</ele>
        <time>2021-11-14T18:07:03.619Z</time>
      </trkpt>
      <trkpt lat="47.522013" lon="7.902637">
        <ele>388.548961</ele>
        <time>2021-11-14T18:07:05.752Z</time>
      </trkpt>
      <trkpt lat="47.521792" lon="7.903347">
        <ele>390.727544</ele>
        <time>2021-11-14T18:07:21.821Z</time>
      </trkpt>
      <trkpt lat="47.521297" lon="7.904312">
        <ele>392.917933</ele>
        <time>2021-11-14T18:07:45.823Z</time>
      </trkpt>
      <trkpt lat="47.520989" lon="7.905130">
        <ele>394.610788</ele>
        <time>2021-11-14T18:08:01.237Z</time>
      </trkpt>
      <trkpt lat="47.520678" lon="7.906050">
        <ele>395.674652</ele>
        <time>2021-11-14T18:08:14.708Z</time>
      </trkpt>
      <trkpt lat="47.520566" lon="7.906668">
        <ele>395.845324</ele>
        <time>2021-11-14T18:08:21.727Z</time>
      </trkpt>
      <trkpt lat="47.520528" lon="7.906930">
        <ele>395.916801</ele>
        <time>2021-11-14T18:08:24.987Z</time>
      </trkpt>
      <trkpt lat="47.520515" lon="7.907103">
        <ele>395.963231</ele>
        <time>2021-11-14T18:08:26.785Z</time>
      </trkpt>
      <trkpt lat="47.520506" lon="7.907236">
        <ele>395.998884</ele>
        <time>2021-11-14T18:08:27.861Z</time>
      </trkpt>
      <trkpt lat="47.520551" lon="7.907422">
        <ele>396.051583</ele>
        <time>2021-11-14T18:08:30.271Z</time>
      </trkpt>
      <trkpt lat="47.520733" lon="7.907655">
        <ele>396.146608</ele>
        <time>2021-11-14T18:08:33.458Z</time>
      </trkpt>
      <trkpt lat="47.520738" lon="7.907839">
        <ele>396.195727</ele>
        <time>2021-11-14T18:08:35.601Z</time>
      </trkpt>
      <trkpt lat="47.520493" lon="7.908683">
        <ele>396.396599</ele>
        <time>2021-11-14T18:08:43.780Z</time>
      </trkpt>
      <trkpt lat="47.519997" lon="7.910833">
        <ele>397.030926</ele>
        <time>2021-11-14T18:09:09.727Z</time>
      </trkpt>
      <trkpt lat="47.519891" lon="7.911129">
        <ele>397.267096</ele>
        <time>2021-11-14T18:09:14.317Z</time>
      </trkpt>
      <trkpt lat="47.519720" lon="7.911522">
        <ele>397.596644</ele>
        <time>2021-11-14T18:09:20.401Z</time>
      </trkpt>
      <trkpt lat="47.519421" lon="7.912098">
        <ele>398.108755</ele>
        <time>2021-11-14T18:09:29.967Z</time>
      </trkpt>
      <trkpt lat="47.517688" lon="7.914418">
        <ele>400.584373</ele>
        <time>2021-11-14T18:10:14.546Z</time>
      </trkpt>
      <trkpt lat="47.517281" lon="7.915238">
        <ele>401.226456</ele>
        <time>2021-11-14T18:10:27.560Z</time>
      </trkpt>
      <trkpt lat="47.517140" lon="7.915259">
        <ele>401.358772</ele>
        <time>2021-11-14T18:10:30.060Z</time>
      </trkpt>
      <trkpt lat="47.516806" lon="7.914896">
        <ele>401.745622</ele>
        <time>2021-11-14T18:10:37.635Z</time>
      </trkpt>
      <trkpt lat="47.516748" lon="7.914873">
        <ele>401.801686</ele>
        <time>2021-11-14T18:10:38.806Z</time>
      </trkpt>
      <trkpt lat="47.516662" lon="7.914835">
        <ele>401.885483</ele>
        <time>2021-11-14T18:10:40.598Z</time>
      </trkpt>
      <trkpt lat="47.516626" lon="7.914830">
        <ele>401.919244</ele>
        <time>2021-11-14T18:10:41.293Z</time>
      </trkpt>
      <trkpt lat="47.516590" lon="7.914840">
        <ele>401.953444</ele>
        <time>2021-11-14T18:10:41.888Z</time>
      </trkpt>
      <trkpt lat="47.516569" lon="7.914864">
        <ele>401.978213</ele>
        <time>2021-11-14T18:10:42.423Z</time>
      </trkpt>
      <trkpt lat="47.516544" lon="7.914936">
        <ele>402.029265</ele>
        <time>2021-11-14T18:10:43.270Z</time>
      </trkpt>
      <trkpt lat="47.516391" lon="7.915243">
        <ele>402.269813</ele>
        <time>2021-11-14T18:10:48.062Z</time>
      </trkpt>
      <trkpt lat="47.515014" lon="7.917030">
        <ele>403.971038</ele>
        <time>2021-11-14T18:11:21.839Z</time>
      </trkpt>
      <trkpt lat="47.514635" lon="7.917349">
        <ele>404.612781</ele>
        <time>2021-11-14T18:11:29.958Z</time>
      </trkpt>
      <trkpt lat="47.514561" lon="7.917409">
        <ele>404.736974</ele>
        <time>2021-11-14T18:11:31.849Z</time>
      </trkpt>
      <trkpt lat="47.514255" lon="7.917714">
        <ele>405.279972</ele>
        <time>2021-11-14T18:11:39.318Z</time>
      </trkpt>
      <trkpt lat="47.513378" lon="7.918393">
        <ele>406.781417</ele>
        <time>2021-11-14T18:12:01.045Z</time>
      </trkpt>
      <trkpt lat="47.513160" lon="7.918764">
        <ele>407.398213</ele>
        <time>2021-11-14T18:12:08.546Z</time>
      </trkpt>
      <trkpt lat="47.513058" lon="7.918896">
        <ele>407.649793</ele>
        <time>2021-11-14T18:12:11.702Z</time>
      </trkpt>
      <trkpt lat="47.512938" lon="7.919052">
        <ele>407.946353</ele>
        <time>2021-11-14T18:12:15.481Z</time>
      </trkpt>
      <trkpt lat="47.512664" lon="7.919306">
        <ele>408.546697</ele>
        <time>2021-11-14T18:12:22.807Z</time>
      </trkpt>
      <trkpt lat="47.512255" lon="7.919538">
        <ele>409.360071</ele>
        <time>2021-11-14T18:12:32.492Z</time>
      </trkpt>
      <trkpt lat="47.512085" lon="7.919732">
        <ele>409.758668</ele>
        <time>2021-11-14T18:12:37.116Z</time>
      </trkpt>
      <trkpt lat="47.511964" lon="7.919989">
        <ele>410.043257</ele>
        <time>2021-11-14T18:12:41.653Z</time>
      </trkpt>
      <trkpt lat="47.511883" lon="7.920133">
        <ele>410.174462</ele>
        <time>2021-11-14T18:12:44.308Z</time>
      </trkpt>
      <trkpt lat="47.511632" lon="7.920105">
        <ele>410.435382</ele>
        <time>2021-11-14T18:12:50.957Z</time>
      </trkpt>
      <trkpt lat="47.511613" lon="7.920183">
        <ele>410.493437</ele>
        <time>2021-11-14T18:12:51.873Z</time>
      </trkpt>
      <trkpt lat="47.511186" lon="7.920984">
        <ele>411.207887</ele>
        <time>2021-11-14T18:13:04.550Z</time>
      </trkpt>
      <trkpt lat="47.511067" lon="7.921207">
        <ele>411.406871</ele>
        <time>2021-11-14T18:13:07.865Z</time>
      </trkpt>
      <trkpt lat="47.511052" lon="7.921232">
        <ele>411.430284</ele>
        <time>2021-11-14T18:13:08.310Z</time>
      </trkpt>
      <trkpt lat="47.510872" lon="7.921477">
        <ele>411.683740</ele>
        <time>2021-11-14T18:13:12.631Z</time>
      </trkpt>
      <trkpt lat="47.510639" lon="7.921796">
        <ele>412.048168</ele>
        <time>2021-11-14T18:13:18.146Z</time>
      </trkpt>
      <trkpt lat="47.509688" lon="7.922616">
        <ele>413.356195</ele>
        <time>2021-11-14T18:13:38.552Z</time>
      </trkpt>
      <trkpt lat="47.509615" lon="7.922742">
        <ele>413.489462</ele>
        <time>2021-11-14T18:13:41.583Z</time>
      </trkpt>
      <trkpt lat="47.509583" lon="7.922962">
        <ele>413.670130</ele>
        <time>2021-11-14T18:13:44.430Z</time>
      </trkpt>
      <trkpt lat="47.509550" lon="7.923245">
        <ele>413.900687</ele>
        <time>2021-11-14T18:13:49.108Z</time>
      </trkpt>
      <trkpt lat="47.509595" lon="7.923295">
        <ele>414.018826</ele>
        <time>2021-11-14T18:13:50.306Z</time>
      </trkpt>
      <trkpt lat="47.509668" lon="7.923400">
        <ele>414.244900</ele>
        <time>2021-11-14T18:13:52.214Z</time>
      </trkpt>
      <trkpt lat="47.509772" lon="7.923613">
        <ele>414.639223</ele>
        <time>2021-11-14T18:13:56.617Z</time>
      </trkpt>
      <trkpt lat="47.509817" lon="7.923703">
        <ele>414.807224</ele>
        <time>2021-11-14T18:13:58.404Z</time>
      </trkpt>
      <trkpt lat="47.509869" lon="7.923971">
        <ele>415.225576</ele>
        <time>2021-11-14T18:14:02.216Z</time>
      </trkpt>
      <trkpt lat="47.509886" lon="7.924134">
        <ele>415.473029</ele>
        <time>2021-11-14T18:14:05.522Z</time>
      </trkpt>
      <trkpt lat="47.509806" lon="7.924174">
        <ele>415.660586</ele>
        <time>2021-11-14T18:14:07.389Z</time>
      </trkpt>
      <trkpt lat="47.509676" lon="7.924247">
        <ele>415.969416</ele>
        <time>2021-11-14T18:14:10.225Z</time>
      </trkpt>
      <trkpt lat="47.509605" lon="7.924290">
        <ele>416.139807</ele>
        <time>2021-11-14T18:14:12.161Z</time>
      </trkpt>
      <trkpt lat="47.509572" lon="7.924311">
        <ele>416.219592</ele>
        <time>2021-11-14T18:14:13.390Z</time>
      </trkpt>
      <trkpt lat="47.509223" lon="7.924628">
        <ele>417.129065</ele>
        <time>2021-11-14T18:14:23.541Z</time>
      </trkpt>
      <trkpt lat="47.509032" lon="7.924863">
        <ele>417.680703</ele>
        <time>2021-11-14T18:14:29.412Z</time>
      </trkpt>
      <trkpt lat="47.509016" lon="7.924882">
        <ele>417.726262</ele>
        <time>2021-11-14T18:14:29.994Z</time>
      </trkpt>
      <trkpt lat="47.508667" lon="7.925295">
        <ele>418.762606</ele>
        <time>2021-11-14T18:14:41.340Z</time>
      </trkpt>
      <trkpt lat="47.508355" lon="7.925609">
        <ele>419.645753</ele>
        <time>2021-11-14T18:14:49.713Z</time>
      </trkpt>
      <trkpt lat="47.508106" lon="7.925799">
        <ele>420.301510</ele>
        <time>2021-11-14T18:14:56.028Z</time>
      </trkpt>
      <trkpt lat="47.508002" lon="7.925879">
        <ele>420.575868</ele>
        <time>2021-11-14T18:14:58.415Z</time>
      </trkpt>
      <trkpt lat="47.507856" lon="7.925990">
        <ele>420.960075</ele>
        <time>2021-11-14T18:15:02.272Z</time>
      </trkpt>
      <trkpt lat="47.506112" lon="7.927414">
        <ele>427.009819</ele>
        <time>2021-11-14T18:15:55.267Z</time>
      </trkpt>
      <trkpt lat="47.505881" lon="7.927601">
        <ele>427.869873</ele>
        <time>2021-11-14T18:16:03.963Z</time>
      </trkpt>
      <trkpt lat="47.505868" lon="7.927611">
        <ele>427.917731</ele>
        <time>2021-11-14T18:16:04.426Z</time>
      </trkpt>
      <trkpt lat="47.505814" lon="7.927657">
        <ele>428.114099</ele>
        <time>2021-11-14T18:16:06.983Z</time>
      </trkpt>
      <trkpt lat="47.505253" lon="7.928170">
        <ele>430.151037</ele>
        <time>2021-11-14T18:16:27.651Z</time>
      </trkpt>
      <trkpt lat="47.504799" lon="7.928777">
        <ele>432.040808</ele>
        <time>2021-11-14T18:16:43.051Z</time>
      </trkpt>
      <trkpt lat="47.504724" lon="7.928871">
        <ele>432.344374</ele>
        <time>2021-11-14T18:16:47.016Z</time>
      </trkpt>
      <trkpt lat="47.504650" lon="7.928941">
        <ele>432.615651</ele>
        <time>2021-11-14T18:16:49.550Z</time>
      </trkpt>
      <trkpt lat="47.504005" lon="7.929312">
        <ele>433.967929</ele>
        <time>2021-11-14T18:17:03.991Z</time>
      </trkpt>
      <trkpt lat="47.503815" lon="7.929426">
        <ele>434.189330</ele>
        <time>2021-11-14T18:17:06.950Z</time>
      </trkpt>
      <trkpt lat="47.503598" lon="7.929585">
        <ele>434.450811</ele>
        <time>2021-11-14T18:17:12.226Z</time>
      </trkpt>
      <trkpt lat="47.503528" lon="7.929650">
        <ele>434.540048</ele>
        <time>2021-11-14T18:17:13.298Z</time>
      </trkpt>
      <trkpt lat="47.503485" lon="7.929688">
        <ele>434.594130</ele>
        <time>2021-11-14T18:17:14.810Z</time>
      </trkpt>
      <trkpt lat="47.503014" lon="7.930220">
        <ele>435.233939</ele>
        <time>2021-11-14T18:17:24.722Z</time>
      </trkpt>
      <trkpt lat="47.502761" lon="7.930610">
        <ele>435.592720</ele>
        <time>2021-11-14T18:17:31.076Z</time>
      </trkpt>
      <trkpt lat="47.502613" lon="7.930856">
        <ele>435.771862</ele>
        <time>2021-11-14T18:17:34.873Z</time>
      </trkpt>
      <trkpt lat="47.502400" lon="7.931256">
        <ele>436.048846</ele>
        <time>2021-11-14T18:17:41.677Z</time>
      </trkpt>
      <trkpt lat="47.502023" lon="7.932158">
        <ele>436.625672</ele>
        <time>2021-11-14T18:17:54.663Z</time>
      </trkpt>
      <trkpt lat="47.501901" lon="7.932351">
        <ele>436.769414</ele>
        <time>2021-11-14T18:17:58.422Z</time>
      </trkpt>
      <trkpt lat="47.501794" lon="7.932466">
        <ele>436.875860</ele>
        <time>2021-11-14T18:18:00.301Z</time>
      </trkpt>
      <trkpt lat="47.501463" lon="7.932668">
        <ele>437.054423</ele>
        <time>2021-11-14T18:18:06.441Z</time>
      </trkpt>
      <trkpt lat="47.501075" lon="7.932885">
        <ele>437.227688</ele>
        <time>2021-11-14T18:18:13.980Z</time>
      </trkpt>
      <trkpt lat="47.500990" lon="7.932950">
        <ele>437.267654</ele>
        <time>2021-11-14T18:18:15.798Z</time>
      </trkpt>
      <trkpt lat="47.500843" lon="7.933102">
        <ele>437.342561</ele>
        <time>2021-11-14T18:18:18.677Z</time>
      </trkpt>
      <trkpt lat="47.500435" lon="7.933872">
        <ele>437.618731</ele>
        <time>2021-11-14T18:18:28.508Z</time>
      </trkpt>
      <trkpt lat="47.500386" lon="7.933937">
        <ele>437.646218</ele>
        <time>2021-11-14T18:18:29.367Z</time>
      </trkpt>
      <trkpt lat="47.500352" lon="7.933976">
        <ele>437.664186</ele>
        <time>2021-11-14T18:18:30.129Z</time>
      </trkpt>
      <trkpt lat="47.500275" lon="7.934029">
        <ele>437.719327</ele>
        <time>2021-11-14T18:18:31.237Z</time>
      </trkpt>
      <trkpt lat="47.500208" lon="7.934071">
        <ele>437.798902</ele>
        <time>2021-11-14T18:18:32.470Z</time>
      </trkpt>
      <trkpt lat="47.500193" lon="7.934023">
        <ele>437.837977</ele>
        <time>2021-11-14T18:18:32.949Z</time>
      </trkpt>
      <trkpt lat="47.500169" lon="7.933984">
        <ele>437.876955</ele>
        <time>2021-11-14T18:18:33.382Z</time>
      </trkpt>
      <trkpt lat="47.500138" lon="7.933956">
        <ele>437.916671</ele>
        <time>2021-11-14T18:18:33.926Z</time>
      </trkpt>
      <trkpt lat="47.500067" lon="7.933946">
        <ele>437.994671</ele>
        <time>2021-11-14T18:18:34.874Z</time>
      </trkpt>
      <trkpt lat="47.500034" lon="7.933965">
        <ele>438.033396</ele>
        <time>2021-11-14T18:18:35.693Z</time>
      </trkpt>
      <trkpt lat="47.499993" lon="7.933864">
        <ele>438.120456</ele>
        <time>2021-11-14T18:18:37.235Z</time>
      </trkpt>
      <trkpt lat="47.499822" lon="7.933272">
        <ele>438.596163</ele>
        <time>2021-11-14T18:18:45.215Z</time>
      </trkpt>
      <trkpt lat="47.499538" lon="7.932868">
        <ele>439.026945</ele>
        <time>2021-11-14T18:18:53.197Z</time>
      </trkpt>
      <trkpt lat="47.499421" lon="7.932805">
        <ele>439.163105</ele>
        <time>2021-11-14T18:18:56.251Z</time>
      </trkpt>
      <trkpt lat="47.499354" lon="7.932769">
        <ele>439.241058</ele>
        <time>2021-11-14T18:18:57.978Z</time>
      </trkpt>
      <trkpt lat="47.499088" lon="7.932741">
        <ele>439.532704</ele>
        <time>2021-11-14T18:19:03.855Z</time>
      </trkpt>
      <trkpt lat="47.498997" lon="7.932758">
        <ele>439.633015</ele>
        <time>2021-11-14T18:19:05.893Z</time>
      </trkpt>
      <trkpt lat="47.498925" lon="7.932781">
        <ele>439.755990</ele>
        <time>2021-11-14T18:19:07.600Z</time>
      </trkpt>
      <trkpt lat="47.498481" lon="7.933011">
        <ele>440.640436</ele>
        <time>2021-11-14T18:19:16.854Z</time>
      </trkpt>
      <trkpt lat="47.498431" lon="7.932995">
        <ele>440.736617</ele>
        <time>2021-11-14T18:19:18.076Z</time>
      </trkpt>
      <trkpt lat="47.498391" lon="7.932972">
        <ele>440.817300</ele>
        <time>2021-11-14T18:19:18.995Z</time>
      </trkpt>
      <trkpt lat="47.498196" lon="7.932613">
        <ele>441.402433</ele>
        <time>2021-11-14T18:19:25.719Z</time>
      </trkpt>
      <trkpt lat="47.498138" lon="7.932522">
        <ele>441.561349</ele>
        <time>2021-11-14T18:19:27.719Z</time>
      </trkpt>
      <trkpt lat="47.498068" lon="7.932426">
        <ele>441.740772</ele>
        <time>2021-11-14T18:19:30.166Z</time>
      </trkpt>
      <trkpt lat="47.497907" lon="7.932254">
        <ele>442.114094</ele>
        <time>2021-11-14T18:19:34.868Z</time>
      </trkpt>
      <trkpt lat="47.497676" lon="7.932013">
        <ele>442.645465</ele>
        <time>2021-11-14T18:19:41.347Z</time>
      </trkpt>
      <trkpt lat="47.497430" lon="7.931757">
        <ele>443.166562</ele>
        <time>2021-11-14T18:19:48.938Z</time>
      </trkpt>
      <trkpt lat="47.497221" lon="7.931528">
        <ele>443.531349</ele>
        <time>2021-11-14T18:19:54.935Z</time>
      </trkpt>
      <trkpt lat="47.497104" lon="7.931414">
        <ele>443.727852</ele>
        <time>2021-11-14T18:19:57.733Z</time>
      </trkpt>
      <trkpt lat="47.496998" lon="7.931330">
        <ele>443.896524</ele>
        <time>2021-11-14T18:20:00.144Z</time>
      </trkpt>
      <trkpt lat="47.496424" lon="7.931075">
        <ele>444.737240</ele>
        <time>2021-11-14T18:20:10.893Z</time>
      </trkpt>
      <trkpt lat="47.496205" lon="7.930904">
        <ele>445.084591</ele>
        <time>2021-11-14T18:20:14.886Z</time>
      </trkpt>
      <trkpt lat="47.496162" lon="7.930842">
        <ele>445.168805</ele>
        <time>2021-11-14T18:20:16.354Z</time>
      </trkpt>
      <trkpt lat="47.496117" lon="7.930763">
        <ele>445.266742</ele>
        <time>2021-11-14T18:20:17.508Z</time>
      </trkpt>
      <trkpt lat="47.496051" lon="7.930607">
        <ele>445.441197</ele>
        <time>2021-11-14T18:20:20.120Z</time>
      </trkpt>
      <trkpt lat="47.495985" lon="7.930428">
        <ele>445.688965</ele>
        <time>2021-11-14T18:20:23.267Z</time>
      </trkpt>
      <trkpt lat="47.495801" lon="7.929891">
        <ele>446.674715</ele>
        <time>2021-11-14T18:20:32.812Z</time>
      </trkpt>
      <trkpt lat="47.495622" lon="7.929400">
        <ele>447.588118</ele>
        <time>2021-11-14T18:20:41.398Z</time>
      </trkpt>
      <trkpt lat="47.495562" lon="7.929221">
        <ele>447.915254</ele>
        <time>2021-11-14T18:20:44.138Z</time>
      </trkpt>
      <trkpt lat="47.495530" lon="7.929063">
        <ele>448.185299</ele>
        <time>2021-11-14T18:20:47.009Z</time>
      </trkpt>
      <trkpt lat="47.495468" lon="7.928678">
        <ele>448.833269</ele>
        <time>2021-11-14T18:20:54.028Z</time>
      </trkpt>
      <trkpt lat="47.495455" lon="7.928595">
        <ele>448.972758</ele>
        <time>2021-11-14T18:20:55.834Z</time>
      </trkpt>
      <trkpt lat="47.495346" lon="7.928097">
        <ele>449.829787</ele>
        <time>2021-11-14T18:21:05.377Z</time>
      </trkpt>
      <trkpt lat="47.495268" lon="7.927740">
        <ele>450.758711</ele>
        <time>2021-11-14T18:21:12.512Z</time>
      </trkpt>
      <trkpt lat="47.495031" lon="7.927006">
        <ele>452.887021</ele>
        <time>2021-11-14T18:21:29.680Z</time>
      </trkpt>
      <trkpt lat="47.494945" lon="7.926765">
        <ele>453.600064</ele>
        <time>2021-11-14T18:21:36.032Z</time>
      </trkpt>
      <trkpt lat="47.494515" lon="7.925509">
        <ele>457.238893</ele>
        <time>2021-11-14T18:22:04.865Z</time>
      </trkpt>
      <trkpt lat="47.494438" lon="7.925289">
        <ele>457.814568</ele>
        <time>2021-11-14T18:22:10.299Z</time>
      </trkpt>
      <trkpt lat="47.494034" lon="7.924101">
        <ele>460.904771</ele>
        <time>2021-11-14T18:22:35.362Z</time>
      </trkpt>
      <trkpt lat="47.493708" lon="7.923049">
        <ele>463.652238</ele>
        <time>2021-11-14T18:22:56.934Z</time>
      </trkpt>
      <trkpt lat="47.493397" lon="7.921760">
        <ele>467.184940</ele>
        <time>2021-11-14T18:23:23.914Z</time>
      </trkpt>
      <trkpt lat="47.493307" lon="7.921373">
        <ele>468.241314</ele>
        <time>2021-11-14T18:23:32.408Z</time>
      </trkpt>
      <trkpt lat="47.493236" lon="7.921091">
        <ele>469.018058</ele>
        <time>2021-11-14T18:23:38.789Z</time>
      </trkpt>
      <trkpt lat="47.493132" lon="7.920716">
        <ele>470.094412</ele>
        <time>2021-11-14T18:23:47.839Z</time>
      </trkpt>
      <trkpt lat="47.492813" lon="7.919900">
        <ele>473.109181</ele>
        <time>2021-11-14T18:24:09.322Z</time>
      </trkpt>
      <trkpt lat="47.492584" lon="7.919482">
        <ele>474.830086</ele>
        <time>2021-11-14T18:24:22.094Z</time>
      </trkpt>
      <trkpt lat="47.492227" lon="7.918989">
        <ele>477.141027</ele>
        <time>2021-11-14T18:24:38.996Z</time>
      </trkpt>
      <trkpt lat="47.491324" lon="7.917985">
        <ele>481.760236</ele>
        <time>2021-11-14T18:25:15.781Z</time>
      </trkpt>
      <trkpt lat="47.490822" lon="7.917158">
        <ele>484.675618</ele>
        <time>2021-11-14T18:25:37.940Z</time>
      </trkpt>
      <trkpt lat="47.490607" lon="7.916690">
        <ele>485.902392</ele>
        <time>2021-11-14T18:25:48.139Z</time>
      </trkpt>
      <trkpt lat="47.490429" lon="7.916164">
        <ele>486.899791</ele>
        <time>2021-11-14T18:25:58.008Z</time>
      </trkpt>
      <trkpt lat="47.490283" lon="7.915612">
        <ele>487.904829</ele>
        <time>2021-11-14T18:26:07.836Z</time>
      </trkpt>
      <trkpt lat="47.489987" lon="7.914083">
        <ele>490.660999</ele>
        <time>2021-11-14T18:26:33.616Z</time>
      </trkpt>
      <trkpt lat="47.489951" lon="7.913893">
        <ele>491.025878</ele>
        <time>2021-11-14T18:26:36.610Z</time>
      </trkpt>
      <trkpt lat="47.489922" lon="7.913738">
        <ele>491.323271</ele>
        <time>2021-11-14T18:26:39.115Z</time>
      </trkpt>
      <trkpt lat="47.489843" lon="7.913398">
        <ele>491.988095</ele>
        <time>2021-11-14T18:26:44.462Z</time>
      </trkpt>
      <trkpt lat="47.489607" lon="7.912646">
        <ele>493.521272</ele>
        <time>2021-11-14T18:26:58.691Z</time>
      </trkpt>
      <trkpt lat="47.489216" lon="7.911685">
        <ele>495.951611</ele>
        <time>2021-11-14T18:27:21.005Z</time>
      </trkpt>
      <trkpt lat="47.489040" lon="7.911300">
        <ele>497.231096</ele>
        <time>2021-11-14T18:27:30.472Z</time>
      </trkpt>
      <trkpt lat="47.488908" lon="7.911009">
        <ele>498.195848</ele>
        <time>2021-11-14T18:27:39.032Z</time>
      </trkpt>
      <trkpt lat="47.488699" lon="7.910498">
        <ele>499.840027</ele>
        <time>2021-11-14T18:27:52.695Z</time>
      </trkpt>
      <trkpt lat="47.488366" lon="7.909318">
        <ele>503.111778</ele>
        <time>2021-11-14T18:28:18.568Z</time>
      </trkpt>
      <trkpt lat="47.488241" lon="7.908835">
        <ele>504.232496</ele>
        <time>2021-11-14T18:28:27.755Z</time>
      </trkpt>
      <trkpt lat="47.488185" lon="7.908663">
        <ele>504.646199</ele>
        <time>2021-11-14T18:28:31.806Z</time>
      </trkpt>
      <trkpt lat="47.488080" lon="7.908344">
        <ele>505.415067</ele>
        <time>2021-11-14T18:28:37.768Z</time>
      </trkpt>
      <trkpt lat="47.487763" lon="7.907711">
        <ele>507.122295</ele>
        <time>2021-11-14T18:28:52.825Z</time>
      </trkpt>
      <trkpt lat="47.487587" lon="7.907459">
        <ele>507.907586</ele>
        <time>2021-11-14T18:28:59.285Z</time>
      </trkpt>
      <trkpt lat="47.487378" lon="7.907191">
        <ele>509.191929</ele>
        <time>2021-11-14T18:29:06.483Z</time>
      </trkpt>
      <trkpt lat="47.487197" lon="7.906946">
        <ele>510.353814</ele>
        <time>2021-11-14T18:29:12.624Z</time>
      </trkpt>
      <trkpt lat="47.486969" lon="7.906583">
        <ele>511.940096</ele>
        <time>2021-11-14T18:29:20.933Z</time>
      </trkpt>
      <trkpt lat="47.486769" lon="7.905976">
        <ele>514.101642</ele>
        <time>2021-11-14T18:29:36.732Z</time>
      </trkpt>
      <trkpt lat="47.486724" lon="7.905485">
        <ele>515.687637</ele>
        <time>2021-11-14T18:29:50.956Z</time>
      </trkpt>
      <trkpt lat="47.486755" lon="7.904487">
        <ele>520.856227</ele>
        <time>2021-11-14T18:30:22.870Z</time>
      </trkpt>
      <trkpt lat="47.486721" lon="7.904326">
        <ele>521.838613</ele>
        <time>2021-11-14T18:30:29.280Z</time>
      </trkpt>
      <trkpt lat="47.486787" lon="7.904241">
        <ele>522.592681</ele>
        <time>2021-11-14T18:30:35.309Z</time>
      </trkpt>
      <trkpt lat="47.486851" lon="7.904088">
        <ele>523.640656</ele>
        <time>2021-11-14T18:30:43.327Z</time>
      </trkpt>
      <trkpt lat="47.486956" lon="7.903776">
        <ele>525.670610</ele>
        <time>2021-11-14T18:31:00.848Z</time>
      </trkpt>
      <trkpt lat="47.487094" lon="7.903449">
        <ele>527.915926</ele>
        <time>2021-11-14T18:31:19.931Z</time>
      </trkpt>
      <trkpt lat="47.487618" lon="7.902286">
        <ele>535.764827</ele>
        <time>2021-11-14T18:32:30.963Z</time>
      </trkpt>
      <trkpt lat="47.488244" lon="7.900510">
        <ele>546.431252</ele>
        <time>2021-11-14T18:34:04.328Z</time>
      </trkpt>
      <trkpt lat="47.488318" lon="7.900297">
        <ele>546.769462</ele>
        <time>2021-11-14T18:34:14.325Z</time>
      </trkpt>
      <trkpt lat="47.488332" lon="7.900256">
        <ele>546.834331</ele>
        <time>2021-11-14T18:34:16.330Z</time>
      </trkpt>
      <trkpt lat="47.488488" lon="7.899603">
        <ele>547.812383</ele>
        <time>2021-11-14T18:34:40.456Z</time>
      </trkpt>
      <trkpt lat="47.488504" lon="7.899482">
        <ele>547.986491</ele>
        <time>2021-11-14T18:34:44.910Z</time>
      </trkpt>
      <trkpt lat="47.488505" lon="7.899198">
        <ele>548.387541</ele>
        <time>2021-11-14T18:34:48.774Z</time>
      </trkpt>
      <trkpt lat="47.488244" lon="7.897339">
        <ele>548.508656</ele>
        <time>2021-11-14T18:35:05.861Z</time>
      </trkpt>
      <trkpt lat="47.488196" lon="7.897116">
        <ele>547.935833</ele>
        <time>2021-11-14T18:35:07.268Z</time>
      </trkpt>
      <trkpt lat="47.488140" lon="7.896871">
        <ele>547.302808</ele>
        <time>2021-11-14T18:35:09.247Z</time>
      </trkpt>
      <trkpt lat="47.488083" lon="7.896718">
        <ele>546.875193</ele>
        <time>2021-11-14T18:35:10.349Z</time>
      </trkpt>
      <trkpt lat="47.487908" lon="7.896570">
        <ele>546.145134</ele>
        <time>2021-11-14T18:35:12.320Z</time>
      </trkpt>
      <trkpt lat="47.487764" lon="7.896613">
        <ele>545.613052</ele>
        <time>2021-11-14T18:35:13.742Z</time>
      </trkpt>
      <trkpt lat="47.487421" lon="7.896715">
        <ele>544.345866</ele>
        <time>2021-11-14T18:35:17.106Z</time>
      </trkpt>
      <trkpt lat="47.487234" lon="7.896710">
        <ele>543.668439</ele>
        <time>2021-11-14T18:35:18.835Z</time>
      </trkpt>
      <trkpt lat="47.487132" lon="7.896643">
        <ele>542.838745</ele>
        <time>2021-11-14T18:35:20.123Z</time>
      </trkpt>
      <trkpt lat="47.487062" lon="7.896463">
        <ele>541.718006</ele>
        <time>2021-11-14T18:35:21.351Z</time>
      </trkpt>
      <trkpt lat="47.487149" lon="7.895169">
        <ele>534.700445</ele>
        <time>2021-11-14T18:35:29.153Z</time>
      </trkpt>
      <trkpt lat="47.487161" lon="7.894314">
        <ele>530.085439</ele>
        <time>2021-11-14T18:35:34.199Z</time>
      </trkpt>
      <trkpt lat="47.487170" lon="7.894195">
        <ele>529.439245</ele>
        <time>2021-11-14T18:35:34.863Z</time>
      </trkpt>
      <trkpt lat="47.487181" lon="7.894092">
        <ele>528.754108</ele>
        <time>2021-11-14T18:35:35.468Z</time>
      </trkpt>
      <trkpt lat="47.487216" lon="7.893977">
        <ele>527.852567</ele>
        <time>2021-11-14T18:35:36.303Z</time>
      </trkpt>
      <trkpt lat="47.487256" lon="7.893919">
        <ele>527.260199</ele>
        <time>2021-11-14T18:35:36.802Z</time>
      </trkpt>
      <trkpt lat="47.487323" lon="7.893893">
        <ele>526.527526</ele>
        <time>2021-11-14T18:35:37.392Z</time>
      </trkpt>
      <trkpt lat="47.487476" lon="7.893956">
        <ele>524.847647</ele>
        <time>2021-11-14T18:35:38.716Z</time>
      </trkpt>
      <trkpt lat="47.487507" lon="7.894007">
        <ele>524.357322</ele>
        <time>2021-11-14T18:35:39.176Z</time>
      </trkpt>
      <trkpt lat="47.487632" lon="7.894208">
        <ele>522.404769</ele>
        <time>2021-11-14T18:35:40.767Z</time>
      </trkpt>
      <trkpt lat="47.487657" lon="7.894274">
        <ele>521.863946</ele>
        <time>2021-11-14T18:35:41.188Z</time>
      </trkpt>
      <trkpt lat="47.487689" lon="7.894368">
        <ele>521.111597</ele>
        <time>2021-11-14T18:35:41.774Z</time>
      </trkpt>
      <trkpt lat="47.487840" lon="7.894546">
        <ele>519.069542</ele>
        <time>2021-11-14T18:35:43.520Z</time>
      </trkpt>
      <trkpt lat="47.488123" lon="7.894358">
        <ele>515.788251</ele>
        <time>2021-11-14T18:35:46.126Z</time>
      </trkpt>
      <trkpt lat="47.488180" lon="7.894303">
        <ele>515.068474</ele>
        <time>2021-11-14T18:35:46.715Z</time>
      </trkpt>
      <trkpt lat="47.488216" lon="7.894259">
        <ele>514.574590</ele>
        <time>2021-11-14T18:35:47.090Z</time>
      </trkpt>
      <trkpt lat="47.488316" lon="7.893785">
        <ele>511.025237</ele>
        <time>2021-11-14T18:35:49.972Z</time>
      </trkpt>
      <trkpt lat="47.488417" lon="7.893532">
        <ele>509.317390</ele>
        <time>2021-11-14T18:35:51.671Z</time>
      </trkpt>
      <trkpt lat="47.488372" lon="7.893226">
        <ele>507.753235</ele>
        <time>2021-11-14T18:35:53.549Z</time>
      </trkpt>
      <trkpt lat="47.488323" lon="7.893133">
        <ele>507.164216</ele>
        <time>2021-11-14T18:35:54.220Z</time>
      </trkpt>
      <trkpt lat="47.488250" lon="7.893055">
        <ele>506.498692</ele>
        <time>2021-11-14T18:35:55.048Z</time>
      </trkpt>
      <trkpt lat="47.488168" lon="7.892899">
        <ele>505.511537</ele>
        <time>2021-11-14T18:35:56.265Z</time>
      </trkpt>
      <trkpt lat="47.488137" lon="7.892763">
        <ele>504.794648</ele>
        <time>2021-11-14T18:35:57.102Z</time>
      </trkpt>
      <trkpt lat="47.488084" lon="7.892534">
        <ele>503.585627</ele>
        <time>2021-11-14T18:35:58.582Z</time>
      </trkpt>
      <trkpt lat="47.487680" lon="7.891282">
        <ele>496.777573</ele>
        <time>2021-11-14T18:36:07.111Z</time>
      </trkpt>
      <trkpt lat="47.487518" lon="7.890485">
        <ele>494.444072</ele>
        <time>2021-11-14T18:36:12.490Z</time>
      </trkpt>
      <trkpt lat="47.487490" lon="7.890449">
        <ele>494.290174</ele>
        <time>2021-11-14T18:36:12.846Z</time>
      </trkpt>
      <trkpt lat="47.487367" lon="7.890321">
        <ele>493.666279</ele>
        <time>2021-11-14T18:36:14.332Z</time>
      </trkpt>
      <trkpt lat="47.486940" lon="7.889619">
        <ele>491.018098</ele>
        <time>2021-11-14T18:36:20.798Z</time>
      </trkpt>
      <trkpt lat="47.486763" lon="7.889251">
        <ele>489.751629</ele>
        <time>2021-11-14T18:36:23.934Z</time>
      </trkpt>
      <trkpt lat="47.486746" lon="7.889218">
        <ele>489.635284</ele>
        <time>2021-11-14T18:36:24.174Z</time>
      </trkpt>
      <trkpt lat="47.486185" lon="7.888073">
        <ele>485.429218</ele>
        <time>2021-11-14T18:36:33.413Z</time>
      </trkpt>
      <trkpt lat="47.485991" lon="7.887744">
        <ele>484.127425</ele>
        <time>2021-11-14T18:36:36.229Z</time>
      </trkpt>
      <trkpt lat="47.485842" lon="7.887493">
        <ele>483.131373</ele>
        <time>2021-11-14T18:36:38.331Z</time>
      </trkpt>
      <trkpt lat="47.485824" lon="7.887463">
        <ele>483.011765</ele>
        <time>2021-11-14T18:36:38.588Z</time>
      </trkpt>
      <trkpt lat="47.485730" lon="7.887323">
        <ele>482.423373</ele>
        <time>2021-11-14T18:36:39.850Z</time>
      </trkpt>
      <trkpt lat="47.484923" lon="7.886213">
        <ele>477.909675</ele>
        <time>2021-11-14T18:36:50.463Z</time>
      </trkpt>
      <trkpt lat="47.484859" lon="7.886144">
        <ele>477.590852</ele>
        <time>2021-11-14T18:36:51.193Z</time>
      </trkpt>
      <trkpt lat="47.484724" lon="7.885990">
        <ele>476.904539</ele>
        <time>2021-11-14T18:36:52.880Z</time>
      </trkpt>
      <trkpt lat="47.484124" lon="7.885514">
        <ele>474.199908</ele>
        <time>2021-11-14T18:36:59.736Z</time>
      </trkpt>
      <trkpt lat="47.483644" lon="7.884992">
        <ele>472.473737</ele>
        <time>2021-11-14T18:37:05.670Z</time>
      </trkpt>
      <trkpt lat="47.483551" lon="7.884901">
        <ele>472.150652</ele>
        <time>2021-11-14T18:37:06.814Z</time>
      </trkpt>
      <trkpt lat="47.483495" lon="7.884861">
        <ele>471.970459</ele>
        <time>2021-11-14T18:37:07.424Z</time>
      </trkpt>
      <trkpt lat="47.483344" lon="7.884768">
        <ele>471.496506</ele>
        <time>2021-11-14T18:37:09.205Z</time>
      </trkpt>
      <trkpt lat="47.482795" lon="7.884621">
        <ele>469.879790</ele>
        <time>2021-11-14T18:37:15.031Z</time>
      </trkpt>
      <trkpt lat="47.482343" lon="7.884501">
        <ele>468.711769</ele>
        <time>2021-11-14T18:37:19.959Z</time>
      </trkpt>
      <trkpt lat="47.482094" lon="7.884439">
        <ele>468.203701</ele>
        <time>2021-11-14T18:37:22.585Z</time>
      </trkpt>
      <trkpt lat="47.481625" lon="7.884355">
        <ele>467.253120</ele>
        <time>2021-11-14T18:37:27.896Z</time>
      </trkpt>
      <trkpt lat="47.481202" lon="7.884417">
        <ele>466.397819</ele>
        <time>2021-11-14T18:37:32.627Z</time>
      </trkpt>
      <trkpt lat="47.481022" lon="7.884472">
        <ele>466.027992</ele>
        <time>2021-11-14T18:37:34.577Z</time>
      </trkpt>
      <trkpt lat="47.480931" lon="7.884489">
        <ele>465.843433</ele>
        <time>2021-11-14T18:37:35.707Z</time>
      </trkpt>
      <trkpt lat="47.480537" lon="7.884477">
        <ele>465.225860</ele>
        <time>2021-11-14T18:37:40.094Z</time>
      </trkpt>
      <trkpt lat="47.479813" lon="7.884128">
        <ele>464.346241</ele>
        <time>2021-11-14T18:37:48.897Z</time>
      </trkpt>
      <trkpt lat="47.479273" lon="7.883853">
        <ele>463.686526</ele>
        <time>2021-11-14T18:37:55.886Z</time>
      </trkpt>
      <trkpt lat="47.479105" lon="7.883776">
        <ele>463.483357</ele>
        <time>2021-11-14T18:37:58.136Z</time>
      </trkpt>
      <trkpt lat="47.478811" lon="7.883733">
        <ele>463.644403</ele>
        <time>2021-11-14T18:38:02.078Z</time>
      </trkpt>
      <trkpt lat="47.478579" lon="7.883777">
        <ele>463.934069</ele>
        <time>2021-11-14T18:38:05.311Z</time>
      </trkpt>
      <trkpt lat="47.477249" lon="7.884423">
        <ele>465.818875</ele>
        <time>2021-11-14T18:38:33.816Z</time>
      </trkpt>
      <trkpt lat="47.476108" lon="7.884690">
        <ele>471.135639</ele>
        <time>2021-11-14T18:39:13.082Z</time>
      </trkpt>
      <trkpt lat="47.475795" lon="7.884698">
        <ele>472.576445</ele>
        <time>2021-11-14T18:39:24.946Z</time>
      </trkpt>
      <trkpt lat="47.475660" lon="7.884681">
        <ele>473.200034</ele>
        <time>2021-11-14T18:39:29.983Z</time>
      </trkpt>
      <trkpt lat="47.475395" lon="7.884643">
        <ele>474.376214</ele>
        <time>2021-11-14T18:39:40.499Z</time>
      </trkpt>
      <trkpt lat="47.474825" lon="7.884590">
        <ele>476.763123</ele>
        <time>2021-11-14T18:40:00.184Z</time>
      </trkpt>
      <trkpt lat="47.474703" lon="7.884534">
        <ele>477.296976</ele>
        <time>2021-11-14T18:40:05.732Z</time>
      </trkpt>
      <trkpt lat="47.474508" lon="7.884402">
        <ele>478.193197</ele>
        <time>2021-11-14T18:40:12.101Z</time>
      </trkpt>
      <trkpt lat="47.473290" lon="7.883592">
        <ele>481.348380</ele>
        <time>2021-11-14T18:40:47.861Z</time>
      </trkpt>
      <trkpt lat="47.473082" lon="7.883408">
        <ele>481.323123</ele>
        <time>2021-11-14T18:40:51.573Z</time>
      </trkpt>
      <trkpt lat="47.472670" lon="7.883027">
        <ele>481.272488</ele>
        <time>2021-11-14T18:40:58.292Z</time>
      </trkpt>
      <trkpt lat="47.471932" lon="7.882355">
        <ele>477.867702</ele>
        <time>2021-11-14T18:41:07.477Z</time>
      </trkpt>
      <trkpt lat="47.471600" lon="7.881776">
        <ele>473.121354</ele>
        <time>2021-11-14T18:41:11.960Z</time>
      </trkpt>
      <trkpt lat="47.471472" lon="7.881494">
        <ele>470.997920</ele>
        <time>2021-11-14T18:41:13.969Z</time>
      </trkpt>
      <trkpt lat="47.471451" lon="7.881438">
        <ele>470.597584</ele>
        <time>2021-11-14T18:41:14.353Z</time>
      </trkpt>
      <trkpt lat="47.471376" lon="7.881235">
        <ele>469.151385</ele>
        <time>2021-11-14T18:41:15.672Z</time>
      </trkpt>
      <trkpt lat="47.471173" lon="7.880721">
        <ele>465.429955</ele>
        <time>2021-11-14T18:41:19.042Z</time>
      </trkpt>
      <trkpt lat="47.471143" lon="7.880602">
        <ele>464.635993</ele>
        <time>2021-11-14T18:41:19.746Z</time>
      </trkpt>
      <trkpt lat="47.471122" lon="7.880528">
        <ele>463.859934</ele>
        <time>2021-11-14T18:41:20.197Z</time>
      </trkpt>
      <trkpt lat="47.471056" lon="7.880271">
        <ele>461.097397</ele>
        <time>2021-11-14T18:41:21.753Z</time>
      </trkpt>
      <trkpt lat="47.470688" lon="7.879298">
        <ele>449.893883</ele>
        <time>2021-11-14T18:41:27.985Z</time>
      </trkpt>
      <trkpt lat="47.470641" lon="7.879203">
        <ele>448.710912</ele>
        <time>2021-11-14T18:41:28.640Z</time>
      </trkpt>
      <trkpt lat="47.470626" lon="7.879175">
        <ele>448.351910</ele>
        <time>2021-11-14T18:41:28.837Z</time>
      </trkpt>
      <trkpt lat="47.470496" lon="7.878920">
        <ele>445.142500</ele>
        <time>2021-11-14T18:41:30.667Z</time>
      </trkpt>
      <trkpt lat="47.470372" lon="7.878664">
        <ele>441.977825</ele>
        <time>2021-11-14T18:41:32.412Z</time>
      </trkpt>
      <trkpt lat="47.470277" lon="7.878469">
        <ele>439.562485</ele>
        <time>2021-11-14T18:41:33.794Z</time>
      </trkpt>
      <trkpt lat="47.470106" lon="7.878102">
        <ele>436.464011</ele>
        <time>2021-11-14T18:41:36.348Z</time>
      </trkpt>
      <trkpt lat="47.469549" lon="7.877073">
        <ele>429.831349</ele>
        <time>2021-11-14T18:41:44.156Z</time>
      </trkpt>
      <trkpt lat="47.469512" lon="7.877020">
        <ele>429.448005</ele>
        <time>2021-11-14T18:41:44.602Z</time>
      </trkpt>
      <trkpt lat="47.469475" lon="7.876966">
        <ele>429.061144</ele>
        <time>2021-11-14T18:41:45.096Z</time>
      </trkpt>
      <trkpt lat="47.469413" lon="7.876875">
        <ele>428.411072</ele>
        <time>2021-11-14T18:41:45.970Z</time>
      </trkpt>
      <trkpt lat="47.469384" lon="7.876836">
        <ele>428.119360</ele>
        <time>2021-11-14T18:41:46.391Z</time>
      </trkpt>
      <trkpt lat="47.469354" lon="7.876797">
        <ele>427.822098</ele>
        <time>2021-11-14T18:41:46.791Z</time>
      </trkpt>
      <trkpt lat="47.469265" lon="7.876688">
        <ele>426.962101</ele>
        <time>2021-11-14T18:41:47.897Z</time>
      </trkpt>
      <trkpt lat="47.468740" lon="7.876159">
        <ele>423.710935</ele>
        <time>2021-11-14T18:41:54.461Z</time>
      </trkpt>
      <trkpt lat="47.468698" lon="7.876140">
        <ele>423.600833</ele>
        <time>2021-11-14T18:41:54.900Z</time>
      </trkpt>
      <trkpt lat="47.468806" lon="7.875696">
        <ele>422.801192</ele>
        <time>2021-11-14T18:41:58.233Z</time>
      </trkpt>
      <trkpt lat="47.468925" lon="7.875205">
        <ele>421.917273</ele>
        <time>2021-11-14T18:42:01.943Z</time>
      </trkpt>
      <trkpt lat="47.468989" lon="7.874967">
        <ele>421.483214</ele>
        <time>2021-11-14T18:42:03.744Z</time>
      </trkpt>
      <trkpt lat="47.469050" lon="7.874738">
        <ele>421.066105</ele>
        <time>2021-11-14T18:42:05.716Z</time>
      </trkpt>
      <trkpt lat="47.469068" lon="7.874689">
        <ele>420.971600</ele>
        <time>2021-11-14T18:42:06.125Z</time>
      </trkpt>
      <trkpt lat="47.469097" lon="7.874606">
        <ele>420.813270</ele>
        <time>2021-11-14T18:42:06.776Z</time>
      </trkpt>
      <trkpt lat="47.469136" lon="7.874516">
        <ele>420.632109</ele>
        <time>2021-11-14T18:42:07.558Z</time>
      </trkpt>
      <trkpt lat="47.469173" lon="7.874432">
        <ele>420.462209</ele>
        <time>2021-11-14T18:42:08.340Z</time>
      </trkpt>
      <trkpt lat="47.469224" lon="7.874328">
        <ele>420.244480</ele>
        <time>2021-11-14T18:42:09.372Z</time>
      </trkpt>
      <trkpt lat="47.469422" lon="7.873965">
        <ele>419.585313</ele>
        <time>2021-11-14T18:42:12.803Z</time>
      </trkpt>
      <trkpt lat="47.469489" lon="7.873809">
        <ele>419.354674</ele>
        <time>2021-11-14T18:42:14.208Z</time>
      </trkpt>
      <trkpt lat="47.469626" lon="7.873477">
        <ele>418.869284</ele>
        <time>2021-11-14T18:42:17.105Z</time>
      </trkpt>
      <trkpt lat="47.469682" lon="7.873326">
        <ele>418.654358</ele>
        <time>2021-11-14T18:42:18.432Z</time>
      </trkpt>
      <trkpt lat="47.469710" lon="7.873249">
        <ele>418.545251</ele>
        <time>2021-11-14T18:42:19.024Z</time>
      </trkpt>
      <trkpt lat="47.469969" lon="7.872276">
        <ele>417.240320</ele>
        <time>2021-11-14T18:42:26.970Z</time>
      </trkpt>
      <trkpt lat="47.470156" lon="7.871491">
        <ele>416.328665</ele>
        <time>2021-11-14T18:42:33.314Z</time>
      </trkpt>
      <trkpt lat="47.470217" lon="7.871214">
        <ele>416.072489</ele>
        <time>2021-11-14T18:42:35.473Z</time>
      </trkpt>
      <trkpt lat="47.470245" lon="7.871088">
        <ele>415.955859</ele>
        <time>2021-11-14T18:42:36.486Z</time>
      </trkpt>
      <trkpt lat="47.470316" lon="7.870753">
        <ele>415.647141</ele>
        <time>2021-11-14T18:42:39.308Z</time>
      </trkpt>
      <trkpt lat="47.470333" lon="7.870669">
        <ele>415.570038</ele>
        <time>2021-11-14T18:42:39.952Z</time>
      </trkpt>
      <trkpt lat="47.470350" lon="7.870570">
        <ele>415.480219</ele>
        <time>2021-11-14T18:42:40.743Z</time>
      </trkpt>
      <trkpt lat="47.470379" lon="7.870338">
        <ele>415.272754</ele>
        <time>2021-11-14T18:42:42.699Z</time>
      </trkpt>
      <trkpt lat="47.470379" lon="7.870338">
        <ele>415.272754</ele>
        <time>2021-11-14T18:42:42.700Z</time>
      </trkpt>
      <trkpt lat="47.470397" lon="7.870147">
        <ele>415.103177</ele>
        <time>2021-11-14T18:42:44.833Z</time>
      </trkpt>
      <trkpt lat="47.470391" lon="7.869990">
        <ele>414.964901</ele>
        <time>2021-11-14T18:42:46.611Z</time>
      </trkpt>
      <trkpt lat="47.470378" lon="7.869626">
        <ele>414.644376</ele>
        <time>2021-11-14T18:42:50.845Z</time>
      </trkpt>
      <trkpt lat="47.470309" lon="7.869201">
        <ele>414.275145</ele>
        <time>2021-11-14T18:42:56.133Z</time>
      </trkpt>
      <trkpt lat="47.470234" lon="7.868884">
        <ele>414.120017</ele>
        <time>2021-11-14T18:43:00.194Z</time>
      </trkpt>
      <trkpt lat="47.470127" lon="7.868484">
        <ele>413.921321</ele>
        <time>2021-11-14T18:43:05.639Z</time>
      </trkpt>
      <trkpt lat="47.469915" lon="7.867494">
        <ele>413.441652</ele>
        <time>2021-11-14T18:43:18.810Z</time>
      </trkpt>
      <trkpt lat="47.469808" lon="7.866690">
        <ele>413.063161</ele>
        <time>2021-11-14T18:43:28.533Z</time>
      </trkpt>
      <trkpt lat="47.469764" lon="7.866452">
        <ele>412.817902</ele>
        <time>2021-11-14T18:43:31.541Z</time>
      </trkpt>
      <trkpt lat="47.469710" lon="7.866208">
        <ele>412.562341</ele>
        <time>2021-11-14T18:43:34.505Z</time>
      </trkpt>
      <trkpt lat="47.469629" lon="7.865918">
        <ele>412.250006</ele>
        <time>2021-11-14T18:43:38.253Z</time>
      </trkpt>
      <trkpt lat="47.469305" lon="7.864692">
        <ele>410.939706</ele>
        <time>2021-11-14T18:43:52.625Z</time>
      </trkpt>
      <trkpt lat="47.469011" lon="7.863405">
        <ele>409.444118</ele>
        <time>2021-11-14T18:44:07.327Z</time>
      </trkpt>
      <trkpt lat="47.468986" lon="7.863323">
        <ele>409.339056</ele>
        <time>2021-11-14T18:44:08.183Z</time>
      </trkpt>
      <trkpt lat="47.468943" lon="7.863195">
        <ele>409.172115</ele>
        <time>2021-11-14T18:44:09.740Z</time>
      </trkpt>
      <trkpt lat="47.468859" lon="7.862978">
        <ele>408.880056</ele>
        <time>2021-11-14T18:44:12.510Z</time>
      </trkpt>
      <trkpt lat="47.468825" lon="7.862900">
        <ele>408.771658</ele>
        <time>2021-11-14T18:44:13.467Z</time>
      </trkpt>
      <trkpt lat="47.468543" lon="7.862357">
        <ele>407.971904</ele>
        <time>2021-11-14T18:44:20.894Z</time>
      </trkpt>
      <trkpt lat="47.468224" lon="7.861805">
        <ele>407.197185</ele>
        <time>2021-11-14T18:44:29.070Z</time>
      </trkpt>
      <trkpt lat="47.467944" lon="7.861300">
        <ele>406.740651</ele>
        <time>2021-11-14T18:44:36.449Z</time>
      </trkpt>
      <trkpt lat="47.467266" lon="7.860107">
        <ele>405.651219</ele>
        <time>2021-11-14T18:44:55.192Z</time>
      </trkpt>
      <trkpt lat="47.467047" lon="7.859682">
        <ele>405.312781</ele>
        <time>2021-11-14T18:45:01.393Z</time>
      </trkpt>
      <trkpt lat="47.466922" lon="7.859398">
        <ele>405.125034</ele>
        <time>2021-11-14T18:45:05.357Z</time>
      </trkpt>
      <trkpt lat="47.466824" lon="7.859137">
        <ele>404.959632</ele>
        <time>2021-11-14T18:45:09.055Z</time>
      </trkpt>
      <trkpt lat="47.466673" lon="7.858620">
        <ele>404.647621</ele>
        <time>2021-11-14T18:45:15.610Z</time>
      </trkpt>
      <trkpt lat="47.466576" lon="7.858236">
        <ele>404.420515</ele>
        <time>2021-11-14T18:45:20.408Z</time>
      </trkpt>
      <trkpt lat="47.466518" lon="7.858022">
        <ele>404.292784</ele>
        <time>2021-11-14T18:45:22.402Z</time>
      </trkpt>
      <trkpt lat="47.466347" lon="7.856973">
        <ele>403.968959</ele>
        <time>2021-11-14T18:45:32.078Z</time>
      </trkpt>
      <trkpt lat="47.466344" lon="7.856945">
        <ele>403.968738</ele>
        <time>2021-11-14T18:45:32.269Z</time>
      </trkpt>
      <trkpt lat="47.466322" lon="7.856655">
        <ele>403.966458</ele>
        <time>2021-11-14T18:45:35.175Z</time>
      </trkpt>
      <trkpt lat="47.466310" lon="7.856541">
        <ele>403.965557</ele>
        <time>2021-11-14T18:45:36.290Z</time>
      </trkpt>
      <trkpt lat="47.466334" lon="7.856525">
        <ele>403.965253</ele>
        <time>2021-11-14T18:45:36.669Z</time>
      </trkpt>
      <trkpt lat="47.466353" lon="7.856496">
        <ele>403.964937</ele>
        <time>2021-11-14T18:45:37.138Z</time>
      </trkpt>
      <trkpt lat="47.466361" lon="7.856459">
        <ele>403.964634</ele>
        <time>2021-11-14T18:45:37.449Z</time>
      </trkpt>
      <trkpt lat="47.466359" lon="7.856420">
        <ele>403.964328</ele>
        <time>2021-11-14T18:45:37.757Z</time>
      </trkpt>
      <trkpt lat="47.466324" lon="7.856362">
        <ele>403.963721</ele>
        <time>2021-11-14T18:45:38.732Z</time>
      </trkpt>
      <trkpt lat="47.466298" lon="7.856354">
        <ele>403.963414</ele>
        <time>2021-11-14T18:45:39.086Z</time>
      </trkpt>
      <trkpt lat="47.466271" lon="7.856363">
        <ele>403.963094</ele>
        <time>2021-11-14T18:45:39.495Z</time>
      </trkpt>
      <trkpt lat="47.466237" lon="7.856421">
        <ele>403.962494</ele>
        <time>2021-11-14T18:45:40.238Z</time>
      </trkpt>
      <trkpt lat="47.466235" lon="7.856461">
        <ele>403.962181</ele>
        <time>2021-11-14T18:45:40.591Z</time>
      </trkpt>
      <trkpt lat="47.466156" lon="7.856481">
        <ele>403.961255</ele>
        <time>2021-11-14T18:45:41.788Z</time>
      </trkpt>
      <trkpt lat="47.465801" lon="7.856657">
        <ele>403.956928</ele>
        <time>2021-11-14T18:45:47.688Z</time>
      </trkpt>
      <trkpt lat="47.465748" lon="7.856649">
        <ele>403.956313</ele>
        <time>2021-11-14T18:45:48.529Z</time>
      </trkpt>
      <trkpt lat="47.465709" lon="7.856610">
        <ele>403.955769</ele>
        <time>2021-11-14T18:45:49.122Z</time>
      </trkpt>
      <trkpt lat="47.465583" lon="7.856194">
        <ele>403.952208</ele>
        <time>2021-11-14T18:45:54.483Z</time>
      </trkpt>
      <trkpt lat="47.465550" lon="7.856132">
        <ele>403.981517</ele>
        <time>2021-11-14T18:45:55.135Z</time>
      </trkpt>
      <trkpt lat="47.465527" lon="7.856111">
        <ele>403.999817</ele>
        <time>2021-11-14T18:45:55.787Z</time>
      </trkpt>
      <trkpt lat="47.465400" lon="7.856122">
        <ele>404.085952</ele>
        <time>2021-11-14T18:45:57.908Z</time>
      </trkpt>
      <trkpt lat="47.465152" lon="7.856303">
        <ele>404.273189</ele>
        <time>2021-11-14T18:46:02.907Z</time>
      </trkpt>
      <trkpt lat="47.464855" lon="7.856521">
        <ele>404.497672</ele>
        <time>2021-11-14T18:46:09.117Z</time>
      </trkpt>
      <trkpt lat="47.464813" lon="7.856540">
        <ele>404.527409</ele>
        <time>2021-11-14T18:46:10.018Z</time>
      </trkpt>
      <trkpt lat="47.464805" lon="7.856519">
        <ele>404.538442</ele>
        <time>2021-11-14T18:46:10.312Z</time>
      </trkpt>
      <trkpt lat="47.464741" lon="7.856458">
        <ele>404.589991</ele>
        <time>2021-11-14T18:46:11.596Z</time>
      </trkpt>
      <trkpt lat="47.464713" lon="7.856451">
        <ele>404.609217</ele>
        <time>2021-11-14T18:46:12.042Z</time>
      </trkpt>
      <trkpt lat="47.464688" lon="7.856453">
        <ele>404.626169</ele>
        <time>2021-11-14T18:46:12.463Z</time>
      </trkpt>
      <trkpt lat="47.464650" lon="7.856478">
        <ele>404.654327</ele>
        <time>2021-11-14T18:46:13.198Z</time>
      </trkpt>
      <trkpt lat="47.464638" lon="7.856496">
        <ele>404.665898</ele>
        <time>2021-11-14T18:46:13.585Z</time>
      </trkpt>
      <trkpt lat="47.464622" lon="7.856523">
        <ele>404.682332</ele>
        <time>2021-11-14T18:46:14.073Z</time>
      </trkpt>
      <trkpt lat="47.464610" lon="7.856554">
        <ele>404.698683</ele>
        <time>2021-11-14T18:46:14.417Z</time>
      </trkpt>
      <trkpt lat="47.464600" lon="7.856587">
        <ele>404.715236</ele>
        <time>2021-11-14T18:46:14.847Z</time>
      </trkpt>
      <trkpt lat="47.464530" lon="7.856598">
        <ele>404.762897</ele>
        <time>2021-11-14T18:46:16.238Z</time>
      </trkpt>
      <trkpt lat="47.463900" lon="7.856772">
        <ele>405.199312</ele>
        <time>2021-11-14T18:46:27.258Z</time>
      </trkpt>
      <trkpt lat="47.463826" lon="7.856840">
        <ele>405.263757</ele>
        <time>2021-11-14T18:46:28.765Z</time>
      </trkpt>
      <trkpt lat="47.463762" lon="7.856925">
        <ele>405.327385</ele>
        <time>2021-11-14T18:46:30.321Z</time>
      </trkpt>
      <trkpt lat="47.463161" lon="7.858061">
        <ele>406.048796</ele>
        <time>2021-11-14T18:46:46.832Z</time>
      </trkpt>
      <trkpt lat="47.463081" lon="7.858188">
        <ele>406.135609</ele>
        <time>2021-11-14T18:46:49.133Z</time>
      </trkpt>
      <trkpt lat="47.462979" lon="7.858360">
        <ele>406.250034</ele>
        <time>2021-11-14T18:46:51.872Z</time>
      </trkpt>
      <trkpt lat="47.462764" lon="7.858828">
        <ele>406.570577</ele>
        <time>2021-11-14T18:46:59.021Z</time>
      </trkpt>
      <trkpt lat="47.462720" lon="7.858959">
        <ele>406.728073</ele>
        <time>2021-11-14T18:47:00.969Z</time>
      </trkpt>
      <trkpt lat="47.462691" lon="7.859060">
        <ele>406.846221</ele>
        <time>2021-11-14T18:47:02.390Z</time>
      </trkpt>
      <trkpt lat="47.462623" lon="7.859309">
        <ele>407.135366</ele>
        <time>2021-11-14T18:47:05.918Z</time>
      </trkpt>
      <trkpt lat="47.462535" lon="7.859721">
        <ele>407.600581</ele>
        <time>2021-11-14T18:47:11.607Z</time>
      </trkpt>
      <trkpt lat="47.462471" lon="7.860097">
        <ele>408.018057</ele>
        <time>2021-11-14T18:47:17.184Z</time>
      </trkpt>
      <trkpt lat="47.462442" lon="7.860255">
        <ele>408.194335</ele>
        <time>2021-11-14T18:47:19.433Z</time>
      </trkpt>
      <trkpt lat="47.462327" lon="7.860669">
        <ele>408.676251</ele>
        <time>2021-11-14T18:47:26.177Z</time>
      </trkpt>
      <trkpt lat="47.462285" lon="7.860769">
        <ele>408.803007</ele>
        <time>2021-11-14T18:47:28.076Z</time>
      </trkpt>
      <trkpt lat="47.462231" lon="7.860873">
        <ele>408.944199</ele>
        <time>2021-11-14T18:47:30.435Z</time>
      </trkpt>
      <trkpt lat="47.461855" lon="7.861499">
        <ele>409.976266</ele>
        <time>2021-11-14T18:47:43.531Z</time>
      </trkpt>
      <trkpt lat="47.461541" lon="7.862217">
        <ele>411.146797</ele>
        <time>2021-11-14T18:47:57.204Z</time>
      </trkpt>
      <trkpt lat="47.461527" lon="7.862242">
        <ele>411.191233</ele>
        <time>2021-11-14T18:47:57.667Z</time>
      </trkpt>
      <trkpt lat="47.461353" lon="7.862539">
        <ele>411.729187</ele>
        <time>2021-11-14T18:48:04.010Z</time>
      </trkpt>
      <trkpt lat="47.461098" lon="7.862848">
        <ele>412.396623</ele>
        <time>2021-11-14T18:48:11.521Z</time>
      </trkpt>
      <trkpt lat="47.460786" lon="7.863164">
        <ele>413.120013</ele>
        <time>2021-11-14T18:48:19.910Z</time>
      </trkpt>
      <trkpt lat="47.460527" lon="7.863440">
        <ele>413.590992</ele>
        <time>2021-11-14T18:48:26.672Z</time>
      </trkpt>
      <trkpt lat="47.460398" lon="7.863603">
        <ele>413.841315</ele>
        <time>2021-11-14T18:48:30.086Z</time>
      </trkpt>
      <trkpt lat="47.460271" lon="7.863810">
        <ele>414.120145</ele>
        <time>2021-11-14T18:48:33.653Z</time>
      </trkpt>
      <trkpt lat="47.460115" lon="7.864146">
        <ele>414.526731</ele>
        <time>2021-11-14T18:48:39.455Z</time>
      </trkpt>
      <trkpt lat="47.460001" lon="7.864512">
        <ele>414.928706</ele>
        <time>2021-11-14T18:48:44.985Z</time>
      </trkpt>
      <trkpt lat="47.459616" lon="7.865526">
        <ele>416.068812</ele>
        <time>2021-11-14T18:49:01.033Z</time>
      </trkpt>
      <trkpt lat="47.459563" lon="7.865651">
        <ele>416.209133</ele>
        <time>2021-11-14T18:49:02.624Z</time>
      </trkpt>
      <trkpt lat="47.459497" lon="7.865844">
        <ele>416.414825</ele>
        <time>2021-11-14T18:49:06.156Z</time>
      </trkpt>
      <trkpt lat="47.459383" lon="7.866214">
        <ele>416.801524</ele>
        <time>2021-11-14T18:49:11.470Z</time>
      </trkpt>
      <trkpt lat="47.459231" lon="7.866811">
        <ele>417.408217</ele>
        <time>2021-11-14T18:49:20.371Z</time>
      </trkpt>
      <trkpt lat="47.459152" lon="7.867074">
        <ele>417.681914</ele>
        <time>2021-11-14T18:49:23.995Z</time>
      </trkpt>
      <trkpt lat="47.459058" lon="7.867339">
        <ele>417.966519</ele>
        <time>2021-11-14T18:49:28.505Z</time>
      </trkpt>
      <trkpt lat="47.458844" lon="7.867795">
        <ele>418.543771</ele>
        <time>2021-11-14T18:49:36.413Z</time>
      </trkpt>
      <trkpt lat="47.458680" lon="7.868173">
        <ele>419.040231</ele>
        <time>2021-11-14T18:49:42.692Z</time>
      </trkpt>
      <trkpt lat="47.458252" lon="7.869378">
        <ele>420.544830</ele>
        <time>2021-11-14T18:50:02.219Z</time>
      </trkpt>
      <trkpt lat="47.458055" lon="7.870048">
        <ele>421.496123</ele>
        <time>2021-11-14T18:50:12.986Z</time>
      </trkpt>
      <trkpt lat="47.457897" lon="7.870571">
        <ele>422.540041</ele>
        <time>2021-11-14T18:50:21.763Z</time>
      </trkpt>
      <trkpt lat="47.457834" lon="7.870782">
        <ele>422.960388</ele>
        <time>2021-11-14T18:50:25.742Z</time>
      </trkpt>
      <trkpt lat="47.457598" lon="7.871461">
        <ele>424.351711</ele>
        <time>2021-11-14T18:50:37.879Z</time>
      </trkpt>
      <trkpt lat="47.457107" lon="7.872555">
        <ele>426.861034</ele>
        <time>2021-11-14T18:51:04.805Z</time>
      </trkpt>
      <trkpt lat="47.456956" lon="7.873025">
        <ele>427.953433</ele>
        <time>2021-11-14T18:51:15.728Z</time>
      </trkpt>
      <trkpt lat="47.456839" lon="7.873690">
        <ele>429.395969</ele>
        <time>2021-11-14T18:51:28.709Z</time>
      </trkpt>
      <trkpt lat="47.456816" lon="7.873911">
        <ele>429.865383</ele>
        <time>2021-11-14T18:51:33.125Z</time>
      </trkpt>
      <trkpt lat="47.456788" lon="7.874217">
        <ele>430.513631</ele>
        <time>2021-11-14T18:51:38.357Z</time>
      </trkpt>
      <trkpt lat="47.456714" lon="7.874531">
        <ele>431.211713</ele>
        <time>2021-11-14T18:51:43.918Z</time>
      </trkpt>
      <trkpt lat="47.456658" lon="7.874665">
        <ele>431.542419</ele>
        <time>2021-11-14T18:51:45.771Z</time>
      </trkpt>
      <trkpt lat="47.456403" lon="7.875046">
        <ele>431.896258</ele>
        <time>2021-11-14T18:51:53.628Z</time>
      </trkpt>
      <trkpt lat="47.455780" lon="7.875652">
        <ele>432.594123</ele>
        <time>2021-11-14T18:52:09.121Z</time>
      </trkpt>
      <trkpt lat="47.455446" lon="7.875966">
        <ele>432.964520</ele>
        <time>2021-11-14T18:52:14.813Z</time>
      </trkpt>
      <trkpt lat="47.455123" lon="7.876253">
        <ele>433.276535</ele>
        <time>2021-11-14T18:52:19.787Z</time>
      </trkpt>
      <trkpt lat="47.454502" lon="7.876895">
        <ele>433.577009</ele>
        <time>2021-11-14T18:52:30.896Z</time>
      </trkpt>
      <trkpt lat="47.454362" lon="7.877045">
        <ele>433.645568</ele>
        <time>2021-11-14T18:52:33.824Z</time>
      </trkpt>
      <trkpt lat="47.453945" lon="7.877554">
        <ele>433.859989</ele>
        <time>2021-11-14T18:52:43.964Z</time>
      </trkpt>
      <trkpt lat="47.453517" lon="7.878069">
        <ele>434.178204</ele>
        <time>2021-11-14T18:52:54.099Z</time>
      </trkpt>
      <trkpt lat="47.453302" lon="7.878355">
        <ele>434.388781</ele>
        <time>2021-11-14T18:52:59.431Z</time>
      </trkpt>
      <trkpt lat="47.453057" lon="7.878652">
        <ele>434.619466</ele>
        <time>2021-11-14T18:53:05.031Z</time>
      </trkpt>
      <trkpt lat="47.452813" lon="7.878981">
        <ele>434.859910</ele>
        <time>2021-11-14T18:53:10.697Z</time>
      </trkpt>
      <trkpt lat="47.452655" lon="7.879223">
        <ele>435.025551</ele>
        <time>2021-11-14T18:53:14.515Z</time>
      </trkpt>
      <trkpt lat="47.452247" lon="7.879980">
        <ele>435.578773</ele>
        <time>2021-11-14T18:53:26.000Z</time>
      </trkpt>
      <trkpt lat="47.451953" lon="7.880518">
        <ele>436.031520</ele>
        <time>2021-11-14T18:53:34.342Z</time>
      </trkpt>
      <trkpt lat="47.451581" lon="7.881111">
        <ele>436.560955</ele>
        <time>2021-11-14T18:53:44.883Z</time>
      </trkpt>
      <trkpt lat="47.451351" lon="7.881477">
        <ele>436.887987</ele>
        <time>2021-11-14T18:53:51.442Z</time>
      </trkpt>
      <trkpt lat="47.451309" lon="7.881545">
        <ele>436.948267</ele>
        <time>2021-11-14T18:53:52.684Z</time>
      </trkpt>
      <trkpt lat="47.451241" lon="7.881654">
        <ele>437.057614</ele>
        <time>2021-11-14T18:53:54.658Z</time>
      </trkpt>
      <trkpt lat="47.451051" lon="7.881948">
        <ele>437.418062</ele>
        <time>2021-11-14T18:54:00.228Z</time>
      </trkpt>
      <trkpt lat="47.450772" lon="7.882435">
        <ele>437.983790</ele>
        <time>2021-11-14T18:54:09.020Z</time>
      </trkpt>
      <trkpt lat="47.450733" lon="7.882508">
        <ele>438.066249</ele>
        <time>2021-11-14T18:54:10.292Z</time>
      </trkpt>
      <trkpt lat="47.450650" lon="7.882664">
        <ele>438.242185</ele>
        <time>2021-11-14T18:54:13.026Z</time>
      </trkpt>
      <trkpt lat="47.450548" lon="7.882846">
        <ele>438.451700</ele>
        <time>2021-11-14T18:54:16.291Z</time>
      </trkpt>
      <trkpt lat="47.450472" lon="7.882973">
        <ele>438.602013</ele>
        <time>2021-11-14T18:54:18.550Z</time>
      </trkpt>
      <trkpt lat="47.450274" lon="7.883264">
        <ele>438.967907</ele>
        <time>2021-11-14T18:54:24.186Z</time>
      </trkpt>
      <trkpt lat="47.449712" lon="7.884119">
        <ele>440.154183</ele>
        <time>2021-11-14T18:54:39.918Z</time>
      </trkpt>
      <trkpt lat="47.449068" lon="7.885121">
        <ele>441.620993</ele>
        <time>2021-11-14T18:54:58.513Z</time>
      </trkpt>
      <trkpt lat="47.449022" lon="7.885187">
        <ele>441.721563</ele>
        <time>2021-11-14T18:55:00.137Z</time>
      </trkpt>
      <trkpt lat="47.448867" lon="7.885429">
        <ele>442.075245</ele>
        <time>2021-11-14T18:55:05.378Z</time>
      </trkpt>
      <trkpt lat="47.448801" lon="7.885554">
        <ele>442.415356</ele>
        <time>2021-11-14T18:55:08.037Z</time>
      </trkpt>
      <trkpt lat="47.448759" lon="7.885611">
        <ele>442.794318</ele>
        <time>2021-11-14T18:55:09.351Z</time>
      </trkpt>
      <trkpt lat="47.448727" lon="7.885648">
        <ele>443.064351</ele>
        <time>2021-11-14T18:55:10.376Z</time>
      </trkpt>
      <trkpt lat="47.448623" lon="7.885730">
        <ele>443.847840</ele>
        <time>2021-11-14T18:55:13.306Z</time>
      </trkpt>
      <trkpt lat="47.448497" lon="7.885784">
        <ele>444.719910</ele>
        <time>2021-11-14T18:55:16.845Z</time>
      </trkpt>
      <trkpt lat="47.448503" lon="7.885850">
        <ele>445.019281</ele>
        <time>2021-11-14T18:55:18.031Z</time>
      </trkpt>
      <trkpt lat="47.448510" lon="7.885941">
        <ele>445.431007</ele>
        <time>2021-11-14T18:55:19.578Z</time>
      </trkpt>
      <trkpt lat="47.448509" lon="7.886022">
        <ele>445.795201</ele>
        <time>2021-11-14T18:55:21.019Z</time>
      </trkpt>
      <trkpt lat="47.448479" lon="7.886216">
        <ele>446.689835</ele>
        <time>2021-11-14T18:55:25.466Z</time>
      </trkpt>
      <trkpt lat="47.448449" lon="7.886310">
        <ele>447.157105</ele>
        <time>2021-11-14T18:55:27.885Z</time>
      </trkpt>
      <trkpt lat="47.448384" lon="7.886513">
        <ele>448.166816</ele>
        <time>2021-11-14T18:55:32.863Z</time>
      </trkpt>
      <trkpt lat="47.448327" lon="7.886693">
        <ele>449.060327</ele>
        <time>2021-11-14T18:55:39.512Z</time>
      </trkpt>
      <trkpt lat="47.448252" lon="7.886934">
        <ele>450.252954</ele>
        <time>2021-11-14T18:55:49.817Z</time>
      </trkpt>
      <trkpt lat="47.448187" lon="7.887164">
        <ele>451.373575</ele>
        <time>2021-11-14T18:55:57.842Z</time>
      </trkpt>
      <trkpt lat="47.448053" lon="7.887573">
        <ele>453.416655</ele>
        <time>2021-11-14T18:56:14.789Z</time>
      </trkpt>
      <trkpt lat="47.447994" lon="7.887745">
        <ele>454.379111</ele>
        <time>2021-11-14T18:56:22.836Z</time>
      </trkpt>
      <trkpt lat="47.447924" lon="7.887980">
        <ele>456.340531</ele>
        <time>2021-11-14T18:56:32.408Z</time>
      </trkpt>
      <trkpt lat="47.447918" lon="7.888002">
        <ele>456.521725</ele>
        <time>2021-11-14T18:56:33.487Z</time>
      </trkpt>
      <trkpt lat="47.447781" lon="7.888460">
        <ele>460.347036</ele>
        <time>2021-11-14T18:56:53.924Z</time>
      </trkpt>
      <trkpt lat="47.447728" lon="7.888631">
        <ele>461.783842</ele>
        <time>2021-11-14T18:57:02.883Z</time>
      </trkpt>
      <trkpt lat="47.447650" lon="7.888831">
        <ele>463.547349</ele>
        <time>2021-11-14T18:57:14.040Z</time>
      </trkpt>
      <trkpt lat="47.447509" lon="7.889081">
        <ele>466.033892</ele>
        <time>2021-11-14T18:57:27.074Z</time>
      </trkpt>
      <trkpt lat="47.447331" lon="7.889272">
        <ele>468.517964</ele>
        <time>2021-11-14T18:57:39.850Z</time>
      </trkpt>
      <trkpt lat="47.446668" lon="7.889866">
        <ele>476.374719</ele>
        <time>2021-11-14T18:58:26.612Z</time>
      </trkpt>
      <trkpt lat="47.446569" lon="7.889962">
        <ele>477.284222</ele>
        <time>2021-11-14T18:58:34.858Z</time>
      </trkpt>
      <trkpt lat="47.446400" lon="7.890153">
        <ele>478.918333</ele>
        <time>2021-11-14T18:58:44.700Z</time>
      </trkpt>
      <trkpt lat="47.445742" lon="7.891213">
        <ele>486.393734</ele>
        <time>2021-11-14T18:59:23.396Z</time>
      </trkpt>
      <trkpt lat="47.445595" lon="7.891655">
        <ele>488.781798</ele>
        <time>2021-11-14T18:59:36.489Z</time>
      </trkpt>
      <trkpt lat="47.445231" lon="7.893511">
        <ele>496.268186</ele>
        <time>2021-11-14T19:00:25.416Z</time>
      </trkpt>
      <trkpt lat="47.444611" lon="7.894568">
        <ele>501.420846</ele>
        <time>2021-11-14T19:01:01.116Z</time>
      </trkpt>
      <trkpt lat="47.444374" lon="7.895190">
        <ele>503.948093</ele>
        <time>2021-11-14T19:01:17.875Z</time>
      </trkpt>
      <trkpt lat="47.444269" lon="7.895507">
        <ele>505.197616</ele>
        <time>2021-11-14T19:01:26.215Z</time>
      </trkpt>
      <trkpt lat="47.444186" lon="7.895774">
        <ele>506.237847</ele>
        <time>2021-11-14T19:01:33.042Z</time>
      </trkpt>
      <trkpt lat="47.444057" lon="7.896377">
        <ele>508.603197</ele>
        <time>2021-11-14T19:01:47.847Z</time>
      </trkpt>
      <trkpt lat="47.443973" lon="7.897319">
        <ele>512.856010</ele>
        <time>2021-11-14T19:02:10.707Z</time>
      </trkpt>
      <trkpt lat="47.443656" lon="7.899062">
        <ele>521.530925</ele>
        <time>2021-11-14T19:03:04.642Z</time>
      </trkpt>
      <trkpt lat="47.443601" lon="7.899993">
        <ele>528.128502</ele>
        <time>2021-11-14T19:03:39.588Z</time>
      </trkpt>
      <trkpt lat="47.443701" lon="7.901256">
        <ele>537.105750</ele>
        <time>2021-11-14T19:04:31.572Z</time>
      </trkpt>
      <trkpt lat="47.443979" lon="7.902634">
        <ele>547.254030</ele>
        <time>2021-11-14T19:05:32.549Z</time>
      </trkpt>
      <trkpt lat="47.444039" lon="7.903160">
        <ele>551.018302</ele>
        <time>2021-11-14T19:05:53.565Z</time>
      </trkpt>
      <trkpt lat="47.443987" lon="7.903658">
        <ele>554.574199</ele>
        <time>2021-11-14T19:06:11.817Z</time>
      </trkpt>
      <trkpt lat="47.443774" lon="7.904468">
        <ele>558.975488</ele>
        <time>2021-11-14T19:06:39.899Z</time>
      </trkpt>
      <trkpt lat="47.443812" lon="7.904620">
        <ele>559.512161</ele>
        <time>2021-11-14T19:06:43.995Z</time>
      </trkpt>
      <trkpt lat="47.444103" lon="7.905127">
        <ele>561.714352</ele>
        <time>2021-11-14T19:06:59.799Z</time>
      </trkpt>
      <trkpt lat="47.444124" lon="7.905848">
        <ele>564.104303</ele>
        <time>2021-11-14T19:07:14.552Z</time>
      </trkpt>
      <trkpt lat="47.444095" lon="7.905911">
        <ele>564.356682</ele>
        <time>2021-11-14T19:07:16.857Z</time>
      </trkpt>
      <trkpt lat="47.444060" lon="7.905957">
        <ele>564.585985</ele>
        <time>2021-11-14T19:07:18.155Z</time>
      </trkpt>
      <trkpt lat="47.444021" lon="7.905974">
        <ele>564.785083</ele>
        <time>2021-11-14T19:07:18.650Z</time>
      </trkpt>
      <trkpt lat="47.443887" lon="7.905861">
        <ele>565.540458</ele>
        <time>2021-11-14T19:07:22.207Z</time>
      </trkpt>
      <trkpt lat="47.443715" lon="7.905422">
        <ele>566.511353</ele>
        <time>2021-11-14T19:07:30.375Z</time>
      </trkpt>
      <trkpt lat="47.443616" lon="7.905326">
        <ele>566.666682</ele>
        <time>2021-11-14T19:07:33.730Z</time>
      </trkpt>
      <trkpt lat="47.443478" lon="7.905315">
        <ele>566.848002</ele>
        <time>2021-11-14T19:07:36.857Z</time>
      </trkpt>
      <trkpt lat="47.443437" lon="7.905338">
        <ele>566.905535</ele>
        <time>2021-11-14T19:07:37.416Z</time>
      </trkpt>
      <trkpt lat="47.443060" lon="7.905749">
        <ele>567.520071</ele>
        <time>2021-11-14T19:07:47.300Z</time>
      </trkpt>
      <trkpt lat="47.442586" lon="7.906135">
        <ele>568.230044</ele>
        <time>2021-11-14T19:07:57.388Z</time>
      </trkpt>
      <trkpt lat="47.442338" lon="7.906317">
        <ele>568.593294</ele>
        <time>2021-11-14T19:08:01.316Z</time>
      </trkpt>
      <trkpt lat="47.442196" lon="7.906411">
        <ele>568.541310</ele>
        <time>2021-11-14T19:08:03.841Z</time>
      </trkpt>
      <trkpt lat="47.441977" lon="7.906511">
        <ele>568.427609</ele>
        <time>2021-11-14T19:08:07.028Z</time>
      </trkpt>
      <trkpt lat="47.441743" lon="7.906608">
        <ele>568.307054</ele>
        <time>2021-11-14T19:08:10.726Z</time>
      </trkpt>
      <trkpt lat="47.441622" lon="7.906657">
        <ele>568.244820</ele>
        <time>2021-11-14T19:08:12.585Z</time>
      </trkpt>
      <trkpt lat="47.441570" lon="7.906678">
        <ele>568.218080</ele>
        <time>2021-11-14T19:08:13.716Z</time>
      </trkpt>
      <trkpt lat="47.441463" lon="7.906711">
        <ele>568.163858</ele>
        <time>2021-11-14T19:08:15.386Z</time>
      </trkpt>
      <trkpt lat="47.441212" lon="7.906790">
        <ele>568.036556</ele>
        <time>2021-11-14T19:08:18.833Z</time>
      </trkpt>
      <trkpt lat="47.440946" lon="7.906861">
        <ele>567.902470</ele>
        <time>2021-11-14T19:08:21.938Z</time>
      </trkpt>
      <trkpt lat="47.440759" lon="7.906942">
        <ele>567.805808</ele>
        <time>2021-11-14T19:08:24.767Z</time>
      </trkpt>
      <trkpt lat="47.440689" lon="7.906996">
        <ele>567.766641</ele>
        <time>2021-11-14T19:08:25.572Z</time>
      </trkpt>
      <trkpt lat="47.440645" lon="7.907088">
        <ele>567.728836</ele>
        <time>2021-11-14T19:08:26.438Z</time>
      </trkpt>
      <trkpt lat="47.440578" lon="7.907274">
        <ele>567.553840</ele>
        <time>2021-11-14T19:08:28.170Z</time>
      </trkpt>
      <trkpt lat="47.440484" lon="7.907616">
        <ele>567.218921</ele>
        <time>2021-11-14T19:08:30.825Z</time>
      </trkpt>
      <trkpt lat="47.440348" lon="7.908111">
        <ele>566.734195</ele>
        <time>2021-11-14T19:08:34.802Z</time>
      </trkpt>
      <trkpt lat="47.440306" lon="7.908217">
        <ele>566.622740</ele>
        <time>2021-11-14T19:08:35.895Z</time>
      </trkpt>
      <trkpt lat="47.440124" lon="7.908395">
        <ele>566.330031</ele>
        <time>2021-11-14T19:08:38.255Z</time>
      </trkpt>
      <trkpt lat="47.439774" lon="7.908833">
        <ele>565.714953</ele>
        <time>2021-11-14T19:08:43.828Z</time>
      </trkpt>
      <trkpt lat="47.439615" lon="7.909100">
        <ele>565.392204</ele>
        <time>2021-11-14T19:08:46.841Z</time>
      </trkpt>
      <trkpt lat="47.439518" lon="7.909224">
        <ele>565.305079</ele>
        <time>2021-11-14T19:08:48.639Z</time>
      </trkpt>
      <trkpt lat="47.439483" lon="7.909286">
        <ele>565.303722</ele>
        <time>2021-11-14T19:08:49.388Z</time>
      </trkpt>
      <trkpt lat="47.439145" lon="7.909911">
        <ele>565.290270</ele>
        <time>2021-11-14T19:08:56.471Z</time>
      </trkpt>
      <trkpt lat="47.439047" lon="7.910071">
        <ele>565.286642</ele>
        <time>2021-11-14T19:08:58.579Z</time>
      </trkpt>
      <trkpt lat="47.438918" lon="7.910246">
        <ele>565.282290</ele>
        <time>2021-11-14T19:09:00.970Z</time>
      </trkpt>
      <trkpt lat="47.438881" lon="7.910291">
        <ele>565.281100</ele>
        <time>2021-11-14T19:09:01.640Z</time>
      </trkpt>
      <trkpt lat="47.438659" lon="7.910501">
        <ele>565.274549</ele>
        <time>2021-11-14T19:09:05.490Z</time>
      </trkpt>
      <trkpt lat="47.438339" lon="7.910703">
        <ele>565.265902</ele>
        <time>2021-11-14T19:09:11.601Z</time>
      </trkpt>
      <trkpt lat="47.437939" lon="7.911215">
        <ele>565.752614</ele>
        <time>2021-11-14T19:09:21.497Z</time>
      </trkpt>
      <trkpt lat="47.437281" lon="7.911740">
        <ele>566.740727</ele>
        <time>2021-11-14T19:09:36.377Z</time>
      </trkpt>
      <trkpt lat="47.437154" lon="7.911831">
        <ele>566.927233</ele>
        <time>2021-11-14T19:09:39.433Z</time>
      </trkpt>
      <trkpt lat="47.436962" lon="7.911943">
        <ele>567.200003</ele>
        <time>2021-11-14T19:09:43.507Z</time>
      </trkpt>
      <trkpt lat="47.436670" lon="7.912144">
        <ele>567.625666</ele>
        <time>2021-11-14T19:09:50.396Z</time>
      </trkpt>
      <trkpt lat="47.436616" lon="7.912213">
        <ele>567.792984</ele>
        <time>2021-11-14T19:09:52.351Z</time>
      </trkpt>
      <trkpt lat="47.436578" lon="7.912267">
        <ele>567.925365</ele>
        <time>2021-11-14T19:09:53.750Z</time>
      </trkpt>
      <trkpt lat="47.436515" lon="7.912405">
        <ele>568.208209</ele>
        <time>2021-11-14T19:09:56.069Z</time>
      </trkpt>
      <trkpt lat="47.436476" lon="7.912706">
        <ele>568.728864</ele>
        <time>2021-11-14T19:10:00.761Z</time>
      </trkpt>
      <trkpt lat="47.436408" lon="7.913110">
        <ele>569.436137</ele>
        <time>2021-11-14T19:10:06.732Z</time>
      </trkpt>
      <trkpt lat="47.436396" lon="7.913182">
        <ele>569.562113</ele>
        <time>2021-11-14T19:10:08.095Z</time>
      </trkpt>
      <trkpt lat="47.436332" lon="7.913599">
        <ele>570.288549</ele>
        <time>2021-11-14T19:10:15.914Z</time>
      </trkpt>
      <trkpt lat="47.436332" lon="7.913599">
        <ele>570.288549</ele>
        <time>2021-11-14T19:10:16.034Z</time>
      </trkpt>
      <trkpt lat="47.436332" lon="7.913599">
        <ele>570.288549</ele>
        <time>2021-11-14T19:10:16.070Z</time>
      </trkpt>
      <trkpt lat="47.436328" lon="7.913781">
        <ele>570.597906</ele>
        <time>2021-11-14T19:10:19.934Z</time>
      </trkpt>
      <trkpt lat="47.436426" lon="7.914382">
        <ele>571.648175</ele>
        <time>2021-11-14T19:10:31.001Z</time>
      </trkpt>
      <trkpt lat="47.436779" lon="7.915143">
        <ele>573.804752</ele>
        <time>2021-11-14T19:10:46.113Z</time>
      </trkpt>
      <trkpt lat="47.436788" lon="7.915208">
        <ele>573.980128</ele>
        <time>2021-11-14T19:10:48.103Z</time>
      </trkpt>
      <trkpt lat="47.436789" lon="7.915276">
        <ele>574.159914</ele>
        <time>2021-11-14T19:10:49.836Z</time>
      </trkpt>
      <trkpt lat="47.436405" lon="7.916185">
        <ele>576.992773</ele>
        <time>2021-11-14T19:11:11.826Z</time>
      </trkpt>
      <trkpt lat="47.436153" lon="7.916928">
        <ele>579.191411</ele>
        <time>2021-11-14T19:11:29.929Z</time>
      </trkpt>
      <trkpt lat="47.436025" lon="7.917438">
        <ele>581.129850</ele>
        <time>2021-11-14T19:11:43.334Z</time>
      </trkpt>
      <trkpt lat="47.435776" lon="7.918311">
        <ele>584.506028</ele>
        <time>2021-11-14T19:12:06.395Z</time>
      </trkpt>
      <trkpt lat="47.435658" lon="7.918713">
        <ele>586.067620</ele>
        <time>2021-11-14T19:12:17.339Z</time>
      </trkpt>
      <trkpt lat="47.435475" lon="7.919362">
        <ele>588.573231</ele>
        <time>2021-11-14T19:12:34.955Z</time>
      </trkpt>
      <trkpt lat="47.435403" lon="7.919605">
        <ele>589.577068</ele>
        <time>2021-11-14T19:12:41.110Z</time>
      </trkpt>
      <trkpt lat="47.435333" lon="7.919826">
        <ele>590.505949</ele>
        <time>2021-11-14T19:12:47.241Z</time>
      </trkpt>
      <trkpt lat="47.435252" lon="7.920039">
        <ele>591.436065</ele>
        <time>2021-11-14T19:12:53.308Z</time>
      </trkpt>
      <trkpt lat="47.434702" lon="7.921025">
        <ele>596.300777</ele>
        <time>2021-11-14T19:13:26.428Z</time>
      </trkpt>
      <trkpt lat="47.434524" lon="7.921435">
        <ele>598.155227</ele>
        <time>2021-11-14T19:13:38.286Z</time>
      </trkpt>
      <trkpt lat="47.434378" lon="7.921753">
        <ele>599.639049</ele>
        <time>2021-11-14T19:13:47.916Z</time>
      </trkpt>
      <trkpt lat="47.434253" lon="7.922015">
        <ele>600.889933</ele>
        <time>2021-11-14T19:13:55.539Z</time>
      </trkpt>
      <trkpt lat="47.433914" lon="7.922971">
        <ele>605.101259</ele>
        <time>2021-11-14T19:14:24.360Z</time>
      </trkpt>
      <trkpt lat="47.433902" lon="7.923204">
        <ele>606.012958</ele>
        <time>2021-11-14T19:14:30.641Z</time>
      </trkpt>
      <trkpt lat="47.434035" lon="7.924100">
        <ele>609.397363</ele>
        <time>2021-11-14T19:14:54.921Z</time>
      </trkpt>
      <trkpt lat="47.434048" lon="7.924524">
        <ele>610.313203</ele>
        <time>2021-11-14T19:15:04.697Z</time>
      </trkpt>
      <trkpt lat="47.434048" lon="7.924731">
        <ele>610.759864</ele>
        <time>2021-11-14T19:15:09.604Z</time>
      </trkpt>
      <trkpt lat="47.433985" lon="7.925315">
        <ele>612.035934</ele>
        <time>2021-11-14T19:15:21.388Z</time>
      </trkpt>
      <trkpt lat="47.433569" lon="7.926574">
        <ele>614.827279</ele>
        <time>2021-11-14T19:15:43.621Z</time>
      </trkpt>
      <trkpt lat="47.433455" lon="7.926970">
        <ele>614.451755</ele>
        <time>2021-11-14T19:15:48.146Z</time>
      </trkpt>
      <trkpt lat="47.433388" lon="7.927259">
        <ele>614.185185</ele>
        <time>2021-11-14T19:15:50.827Z</time>
      </trkpt>
      <trkpt lat="47.433296" lon="7.927408">
        <ele>614.009156</ele>
        <time>2021-11-14T19:15:52.615Z</time>
      </trkpt>
      <trkpt lat="47.432918" lon="7.927850">
        <ele>613.387473</ele>
        <time>2021-11-14T19:15:58.676Z</time>
      </trkpt>
      <trkpt lat="47.432392" lon="7.928678">
        <ele>611.928600</ele>
        <time>2021-11-14T19:16:06.375Z</time>
      </trkpt>
      <trkpt lat="47.432343" lon="7.928929">
        <ele>611.100514</ele>
        <time>2021-11-14T19:16:08.025Z</time>
      </trkpt>
      <trkpt lat="47.432332" lon="7.929564">
        <ele>609.087034</ele>
        <time>2021-11-14T19:16:12.223Z</time>
      </trkpt>
      <trkpt lat="47.432320" lon="7.929632">
        <ele>608.864274</ele>
        <time>2021-11-14T19:16:12.800Z</time>
      </trkpt>
      <trkpt lat="47.432376" lon="7.929666">
        <ele>608.580596</ele>
        <time>2021-11-14T19:16:13.332Z</time>
      </trkpt>
      <trkpt lat="47.432548" lon="7.929945">
        <ele>607.384062</ele>
        <time>2021-11-14T19:16:15.741Z</time>
      </trkpt>
      <trkpt lat="47.432626" lon="7.930198">
        <ele>606.502746</ele>
        <time>2021-11-14T19:16:17.507Z</time>
      </trkpt>
      <trkpt lat="47.432655" lon="7.930328">
        <ele>606.068846</ele>
        <time>2021-11-14T19:16:18.406Z</time>
      </trkpt>
      <trkpt lat="47.432655" lon="7.930328">
        <ele>606.068846</ele>
        <time>2021-11-14T19:16:18.422Z</time>
      </trkpt>
      <trkpt lat="47.432664" lon="7.930471">
        <ele>605.613611</ele>
        <time>2021-11-14T19:16:19.447Z</time>
      </trkpt>
      <trkpt lat="47.432625" lon="7.930778">
        <ele>604.623478</ele>
        <time>2021-11-14T19:16:21.433Z</time>
      </trkpt>
      <trkpt lat="47.432518" lon="7.931622">
        <ele>601.093590</ele>
        <time>2021-11-14T19:16:26.803Z</time>
      </trkpt>
      <trkpt lat="47.432491" lon="7.931730">
        <ele>600.597218</ele>
        <time>2021-11-14T19:16:27.479Z</time>
      </trkpt>
      <trkpt lat="47.432474" lon="7.931798">
        <ele>600.284687</ele>
        <time>2021-11-14T19:16:27.939Z</time>
      </trkpt>
      <trkpt lat="47.432246" lon="7.932289">
        <ele>597.717225</ele>
        <time>2021-11-14T19:16:31.558Z</time>
      </trkpt>
      <trkpt lat="47.431940" lon="7.932715">
        <ele>595.038456</ele>
        <time>2021-11-14T19:16:35.325Z</time>
      </trkpt>
      <trkpt lat="47.431916" lon="7.932769">
        <ele>594.759907</ele>
        <time>2021-11-14T19:16:35.858Z</time>
      </trkpt>
      <trkpt lat="47.431934" lon="7.932867">
        <ele>594.322123</ele>
        <time>2021-11-14T19:16:36.456Z</time>
      </trkpt>
      <trkpt lat="47.432257" lon="7.933273">
        <ele>591.739521</ele>
        <time>2021-11-14T19:16:40.332Z</time>
      </trkpt>
      <trkpt lat="47.432362" lon="7.933398">
        <ele>590.976861</ele>
        <time>2021-11-14T19:16:41.538Z</time>
      </trkpt>
      <trkpt lat="47.432488" lon="7.933576">
        <ele>589.990924</ele>
        <time>2021-11-14T19:16:43.144Z</time>
      </trkpt>
      <trkpt lat="47.432554" lon="7.933755">
        <ele>589.210780</ele>
        <time>2021-11-14T19:16:44.437Z</time>
      </trkpt>
      <trkpt lat="47.432569" lon="7.933827">
        <ele>588.922480</ele>
        <time>2021-11-14T19:16:44.886Z</time>
      </trkpt>
      <trkpt lat="47.432578" lon="7.933907">
        <ele>588.612132</ele>
        <time>2021-11-14T19:16:45.429Z</time>
      </trkpt>
      <trkpt lat="47.432647" lon="7.934240">
        <ele>587.279368</ele>
        <time>2021-11-14T19:16:47.561Z</time>
      </trkpt>
      <trkpt lat="47.432802" lon="7.934732">
        <ele>585.202419</ele>
        <time>2021-11-14T19:16:50.919Z</time>
      </trkpt>
      <trkpt lat="47.432965" lon="7.935043">
        <ele>583.696869</ele>
        <time>2021-11-14T19:16:53.418Z</time>
      </trkpt>
      <trkpt lat="47.433050" lon="7.935392">
        <ele>582.464344</ele>
        <time>2021-11-14T19:16:55.741Z</time>
      </trkpt>
      <trkpt lat="47.433187" lon="7.935304">
        <ele>582.304350</ele>
        <time>2021-11-14T19:16:57.194Z</time>
      </trkpt>
      <trkpt lat="47.433385" lon="7.935078">
        <ele>582.036414</ele>
        <time>2021-11-14T19:16:59.892Z</time>
      </trkpt>
      <trkpt lat="47.433512" lon="7.934950">
        <ele>581.871778</ele>
        <time>2021-11-14T19:17:01.462Z</time>
      </trkpt>
      <trkpt lat="47.433620" lon="7.934930">
        <ele>581.755196</ele>
        <time>2021-11-14T19:17:03.974Z</time>
      </trkpt>
      <trkpt lat="47.434298" lon="7.934609">
        <ele>580.992659</ele>
        <time>2021-11-14T19:17:15.905Z</time>
      </trkpt>
      <trkpt lat="47.434567" lon="7.934576">
        <ele>580.703543</ele>
        <time>2021-11-14T19:17:20.419Z</time>
      </trkpt>
      <trkpt lat="47.434614" lon="7.934590">
        <ele>580.652190</ele>
        <time>2021-11-14T19:17:21.580Z</time>
      </trkpt>
      <trkpt lat="47.434668" lon="7.934617">
        <ele>580.591132</ele>
        <time>2021-11-14T19:17:23.100Z</time>
      </trkpt>
      <trkpt lat="47.434806" lon="7.934720">
        <ele>580.473946</ele>
        <time>2021-11-14T19:17:24.690Z</time>
      </trkpt>
      <trkpt lat="47.434953" lon="7.934914">
        <ele>580.328390</ele>
        <time>2021-11-14T19:17:29.007Z</time>
      </trkpt>
      <trkpt lat="47.435021" lon="7.934988">
        <ele>580.266019</ele>
        <time>2021-11-14T19:17:29.804Z</time>
      </trkpt>
      <trkpt lat="47.435108" lon="7.935067">
        <ele>580.190600</ele>
        <time>2021-11-14T19:17:31.227Z</time>
      </trkpt>
      <trkpt lat="47.435139" lon="7.935085">
        <ele>580.165998</ele>
        <time>2021-11-14T19:17:32.244Z</time>
      </trkpt>
      <trkpt lat="47.435218" lon="7.935133">
        <ele>580.102907</ele>
        <time>2021-11-14T19:17:33.678Z</time>
      </trkpt>
      <trkpt lat="47.435945" lon="7.935453">
        <ele>579.542596</ele>
        <time>2021-11-14T19:17:43.085Z</time>
      </trkpt>
      <trkpt lat="47.435987" lon="7.935459">
        <ele>579.511428</ele>
        <time>2021-11-14T19:17:43.642Z</time>
      </trkpt>
      <trkpt lat="47.436041" lon="7.935466">
        <ele>579.471387</ele>
        <time>2021-11-14T19:17:44.128Z</time>
      </trkpt>
      <trkpt lat="47.436379" lon="7.935508">
        <ele>579.257443</ele>
        <time>2021-11-14T19:17:48.370Z</time>
      </trkpt>
      <trkpt lat="47.436645" lon="7.935783">
        <ele>579.291596</ele>
        <time>2021-11-14T19:17:52.374Z</time>
      </trkpt>
      <trkpt lat="47.436754" lon="7.935830">
        <ele>579.303543</ele>
        <time>2021-11-14T19:17:53.525Z</time>
      </trkpt>
      <trkpt lat="47.436817" lon="7.935819">
        <ele>579.310218</ele>
        <time>2021-11-14T19:17:54.112Z</time>
      </trkpt>
      <trkpt lat="47.436959" lon="7.935813">
        <ele>579.325165</ele>
        <time>2021-11-14T19:17:57.580Z</time>
      </trkpt>
      <trkpt lat="47.437163" lon="7.935805">
        <ele>579.346637</ele>
        <time>2021-11-14T19:17:59.660Z</time>
      </trkpt>
      <trkpt lat="47.437455" lon="7.935929">
        <ele>579.378604</ele>
        <time>2021-11-14T19:18:04.536Z</time>
      </trkpt>
      <trkpt lat="47.438097" lon="7.936295">
        <ele>579.637479</ele>
        <time>2021-11-14T19:18:20.402Z</time>
      </trkpt>
      <trkpt lat="47.438488" lon="7.936601">
        <ele>580.662456</ele>
        <time>2021-11-14T19:18:31.966Z</time>
      </trkpt>
      <trkpt lat="47.438795" lon="7.937030">
        <ele>581.641160</ele>
        <time>2021-11-14T19:18:43.358Z</time>
      </trkpt>
      <trkpt lat="47.439053" lon="7.937594">
        <ele>582.708138</ele>
        <time>2021-11-14T19:18:54.332Z</time>
      </trkpt>
      <trkpt lat="47.439305" lon="7.937977">
        <ele>583.545452</ele>
        <time>2021-11-14T19:19:01.683Z</time>
      </trkpt>
      <trkpt lat="47.439513" lon="7.938183">
        <ele>584.254433</ele>
        <time>2021-11-14T19:19:06.813Z</time>
      </trkpt>
      <trkpt lat="47.439973" lon="7.938391">
        <ele>585.647328</ele>
        <time>2021-11-14T19:19:18.904Z</time>
      </trkpt>
      <trkpt lat="47.440111" lon="7.938384">
        <ele>586.047161</ele>
        <time>2021-11-14T19:19:21.568Z</time>
      </trkpt>
      <trkpt lat="47.440276" lon="7.938174">
        <ele>586.677579</ele>
        <time>2021-11-14T19:19:27.910Z</time>
      </trkpt>
      <trkpt lat="47.440493" lon="7.937497">
        <ele>588.144829</ele>
        <time>2021-11-14T19:19:41.306Z</time>
      </trkpt>
      <trkpt lat="47.440535" lon="7.937445">
        <ele>588.303455</ele>
        <time>2021-11-14T19:19:41.854Z</time>
      </trkpt>
      <trkpt lat="47.440583" lon="7.937384">
        <ele>588.486733</ele>
        <time>2021-11-14T19:19:46.455Z</time>
      </trkpt>
      <trkpt lat="47.440806" lon="7.937210">
        <ele>589.541460</ele>
        <time>2021-11-14T19:19:53.321Z</time>
      </trkpt>
      <trkpt lat="47.441000" lon="7.937143">
        <ele>590.587251</ele>
        <time>2021-11-14T19:20:01.314Z</time>
      </trkpt>
      <trkpt lat="47.441541" lon="7.937289">
        <ele>593.474080</ele>
        <time>2021-11-14T19:20:20.229Z</time>
      </trkpt>
      <trkpt lat="47.442638" lon="7.937187">
        <ele>598.724713</ele>
        <time>2021-11-14T19:21:04.505Z</time>
      </trkpt>
      <trkpt lat="47.443543" lon="7.937251">
        <ele>600.972680</ele>
        <time>2021-11-14T19:21:29.515Z</time>
      </trkpt>
      <trkpt lat="47.443821" lon="7.937284">
        <ele>601.664647</ele>
        <time>2021-11-14T19:21:35.102Z</time>
      </trkpt>
      <trkpt lat="47.444030" lon="7.937346">
        <ele>602.193532</ele>
        <time>2021-11-14T19:21:38.653Z</time>
      </trkpt>
      <trkpt lat="47.444304" lon="7.937471">
        <ele>602.430061</ele>
        <time>2021-11-14T19:21:42.523Z</time>
      </trkpt>
      <trkpt lat="47.444544" lon="7.937668">
        <ele>601.344348</ele>
        <time>2021-11-14T19:21:45.865Z</time>
      </trkpt>
      <trkpt lat="47.444935" lon="7.938269">
        <ele>599.113629</ele>
        <time>2021-11-14T19:21:51.578Z</time>
      </trkpt>
      <trkpt lat="47.445088" lon="7.938426">
        <ele>598.377034</ele>
        <time>2021-11-14T19:21:53.349Z</time>
      </trkpt>
      <trkpt lat="47.445739" lon="7.938730">
        <ele>595.676832</ele>
        <time>2021-11-14T19:21:59.616Z</time>
      </trkpt>
      <trkpt lat="47.445987" lon="7.938989">
        <ele>593.745306</ele>
        <time>2021-11-14T19:22:02.299Z</time>
      </trkpt>
      <trkpt lat="47.446136" lon="7.939210">
        <ele>592.371780</ele>
        <time>2021-11-14T19:22:04.193Z</time>
      </trkpt>
      <trkpt lat="47.446200" lon="7.939305">
        <ele>591.781579</ele>
        <time>2021-11-14T19:22:04.965Z</time>
      </trkpt>
      <trkpt lat="47.446350" lon="7.939484">
        <ele>590.527078</ele>
        <time>2021-11-14T19:22:06.798Z</time>
      </trkpt>
      <trkpt lat="47.446714" lon="7.939663">
        <ele>588.030487</ele>
        <time>2021-11-14T19:22:10.239Z</time>
      </trkpt>
      <trkpt lat="47.446911" lon="7.939640">
        <ele>586.744363</ele>
        <time>2021-11-14T19:22:11.988Z</time>
      </trkpt>
      <trkpt lat="47.447023" lon="7.939500">
        <ele>585.789883</ele>
        <time>2021-11-14T19:22:13.388Z</time>
      </trkpt>
      <trkpt lat="47.447088" lon="7.939400">
        <ele>585.179405</ele>
        <time>2021-11-14T19:22:14.194Z</time>
      </trkpt>
      <trkpt lat="47.447148" lon="7.939307">
        <ele>584.613687</ele>
        <time>2021-11-14T19:22:14.991Z</time>
      </trkpt>
      <trkpt lat="47.447375" lon="7.938987">
        <ele>583.521574</ele>
        <time>2021-11-14T19:22:17.881Z</time>
      </trkpt>
      <trkpt lat="47.447514" lon="7.938816">
        <ele>583.184985</ele>
        <time>2021-11-14T19:22:19.884Z</time>
      </trkpt>
      <trkpt lat="47.447579" lon="7.938758">
        <ele>583.043663</ele>
        <time>2021-11-14T19:22:20.613Z</time>
      </trkpt>
      <trkpt lat="47.447622" lon="7.938729">
        <ele>582.955686</ele>
        <time>2021-11-14T19:22:21.047Z</time>
      </trkpt>
      <trkpt lat="47.447884" lon="7.938706">
        <ele>582.467110</ele>
        <time>2021-11-14T19:22:24.296Z</time>
      </trkpt>
      <trkpt lat="47.448076" lon="7.938764">
        <ele>582.102317</ele>
        <time>2021-11-14T19:22:26.286Z</time>
      </trkpt>
      <trkpt lat="47.448323" lon="7.938940">
        <ele>581.591925</ele>
        <time>2021-11-14T19:22:29.332Z</time>
      </trkpt>
      <trkpt lat="47.448504" lon="7.939113">
        <ele>581.190734</ele>
        <time>2021-11-14T19:22:33.328Z</time>
      </trkpt>
      <trkpt lat="47.448566" lon="7.939145">
        <ele>581.068492</ele>
        <time>2021-11-14T19:22:34.685Z</time>
      </trkpt>
      <trkpt lat="47.448632" lon="7.939166">
        <ele>580.942820</ele>
        <time>2021-11-14T19:22:35.963Z</time>
      </trkpt>
      <trkpt lat="47.448737" lon="7.939187">
        <ele>580.745581</ele>
        <time>2021-11-14T19:22:37.917Z</time>
      </trkpt>
      <trkpt lat="47.448995" lon="7.939236">
        <ele>581.078290</ele>
        <time>2021-11-14T19:22:43.400Z</time>
      </trkpt>
      <trkpt lat="47.449095" lon="7.939194">
        <ele>581.425801</ele>
        <time>2021-11-14T19:22:45.434Z</time>
      </trkpt>
      <trkpt lat="47.449121" lon="7.939164">
        <ele>581.536044</ele>
        <time>2021-11-14T19:22:46.140Z</time>
      </trkpt>
      <trkpt lat="47.449215" lon="7.939276">
        <ele>581.939586</ele>
        <time>2021-11-14T19:22:48.967Z</time>
      </trkpt>
      <trkpt lat="47.449278" lon="7.939333">
        <ele>582.186481</ele>
        <time>2021-11-14T19:22:50.618Z</time>
      </trkpt>
      <trkpt lat="47.449351" lon="7.939383">
        <ele>582.455417</ele>
        <time>2021-11-14T19:22:52.210Z</time>
      </trkpt>
      <trkpt lat="47.449443" lon="7.939446">
        <ele>582.794338</ele>
        <time>2021-11-14T19:22:54.353Z</time>
      </trkpt>
      <trkpt lat="47.449589" lon="7.939535">
        <ele>583.322243</ele>
        <time>2021-11-14T19:22:59.149Z</time>
      </trkpt>
      <trkpt lat="47.449814" lon="7.939672">
        <ele>584.135659</ele>
        <time>2021-11-14T19:23:05.245Z</time>
      </trkpt>
      <trkpt lat="47.449913" lon="7.939726">
        <ele>584.488401</ele>
        <time>2021-11-14T19:23:09.123Z</time>
      </trkpt>
      <trkpt lat="47.450248" lon="7.939948">
        <ele>585.715575</ele>
        <time>2021-11-14T19:23:21.936Z</time>
      </trkpt>
      <trkpt lat="47.450383" lon="7.940114">
        <ele>586.302498</ele>
        <time>2021-11-14T19:23:27.607Z</time>
      </trkpt>
      <trkpt lat="47.450538" lon="7.940621">
        <ele>588.508020</ele>
        <time>2021-11-14T19:23:41.549Z</time>
      </trkpt>
      <trkpt lat="47.450568" lon="7.940770">
        <ele>589.194516</ele>
        <time>2021-11-14T19:23:46.436Z</time>
      </trkpt>
      <trkpt lat="47.450647" lon="7.940719">
        <ele>589.757403</ele>
        <time>2021-11-14T19:23:50.362Z</time>
      </trkpt>
      <trkpt lat="47.450818" lon="7.940534">
        <ele>591.140960</ele>
        <time>2021-11-14T19:23:58.336Z</time>
      </trkpt>
      <trkpt lat="47.450926" lon="7.940417">
        <ele>592.015196</ele>
        <time>2021-11-14T19:24:04.822Z</time>
      </trkpt>
      <trkpt lat="47.451066" lon="7.940265">
        <ele>593.149334</ele>
        <time>2021-11-14T19:24:11.361Z</time>
      </trkpt>
      <trkpt lat="47.451186" lon="7.940163">
        <ele>594.053160</ele>
        <time>2021-11-14T19:24:17.704Z</time>
      </trkpt>
      <trkpt lat="47.451687" lon="7.939736">
        <ele>597.829157</ele>
        <time>2021-11-14T19:24:42.527Z</time>
      </trkpt>
      <trkpt lat="47.451870" lon="7.939623">
        <ele>598.992003</ele>
        <time>2021-11-14T19:24:51.429Z</time>
      </trkpt>
      <trkpt lat="47.452527" lon="7.939169">
        <ele>602.957548</ele>
        <time>2021-11-14T19:25:21.221Z</time>
      </trkpt>
      <trkpt lat="47.452569" lon="7.939136">
        <ele>603.217620</ele>
        <time>2021-11-14T19:25:22.911Z</time>
      </trkpt>
      <trkpt lat="47.452671" lon="7.939085">
        <ele>603.806404</ele>
        <time>2021-11-14T19:25:26.790Z</time>
      </trkpt>
      <trkpt lat="47.453247" lon="7.938949">
        <ele>606.996040</ele>
        <time>2021-11-14T19:25:45.865Z</time>
      </trkpt>
      <trkpt lat="47.453399" lon="7.938926">
        <ele>607.831562</ele>
        <time>2021-11-14T19:25:51.081Z</time>
      </trkpt>
      <trkpt lat="47.453527" lon="7.938907">
        <ele>608.372232</ele>
        <time>2021-11-14T19:25:54.552Z</time>
      </trkpt>
      <trkpt lat="47.453896" lon="7.938837">
        <ele>609.553164</ele>
        <time>2021-11-14T19:26:05.521Z</time>
      </trkpt>
      <trkpt lat="47.453952" lon="7.938831">
        <ele>609.731393</ele>
        <time>2021-11-14T19:26:07.038Z</time>
      </trkpt>
      <trkpt lat="47.454186" lon="7.938810">
        <ele>610.475557</ele>
        <time>2021-11-14T19:26:13.940Z</time>
      </trkpt>
      <trkpt lat="47.454409" lon="7.938779">
        <ele>611.186557</ele>
        <time>2021-11-14T19:26:20.048Z</time>
      </trkpt>
      <trkpt lat="47.454590" lon="7.938738">
        <ele>611.767815</ele>
        <time>2021-11-14T19:26:24.706Z</time>
      </trkpt>
      <trkpt lat="47.455114" lon="7.938524">
        <ele>613.493429</ele>
        <time>2021-11-14T19:26:38.915Z</time>
      </trkpt>
      <trkpt lat="47.455980" lon="7.938143">
        <ele>615.121131</ele>
        <time>2021-11-14T19:27:00.265Z</time>
      </trkpt>
      <trkpt lat="47.456527" lon="7.937909">
        <ele>616.033674</ele>
        <time>2021-11-14T19:27:11.809Z</time>
      </trkpt>
      <trkpt lat="47.456612" lon="7.937840">
        <ele>616.189063</ele>
        <time>2021-11-14T19:27:13.925Z</time>
      </trkpt>
      <trkpt lat="47.456885" lon="7.937800">
        <ele>616.628707</ele>
        <time>2021-11-14T19:27:20.200Z</time>
      </trkpt>
      <trkpt lat="47.457759" lon="7.938112">
        <ele>617.216976</ele>
        <time>2021-11-14T19:27:40.398Z</time>
      </trkpt>
      <trkpt lat="47.458684" lon="7.938601">
        <ele>617.793738</ele>
        <time>2021-11-14T19:28:01.571Z</time>
      </trkpt>
      <trkpt lat="47.459661" lon="7.938631">
        <ele>619.140499</ele>
        <time>2021-11-14T19:28:25.483Z</time>
      </trkpt>
      <trkpt lat="47.460344" lon="7.938606">
        <ele>620.082076</ele>
        <time>2021-11-14T19:28:43.786Z</time>
      </trkpt>
      <trkpt lat="47.460640" lon="7.938599">
        <ele>621.061430</ele>
        <time>2021-11-14T19:28:52.074Z</time>
      </trkpt>
      <trkpt lat="47.461076" lon="7.938696">
        <ele>623.135455</ele>
        <time>2021-11-14T19:29:05.882Z</time>
      </trkpt>
      <trkpt lat="47.461309" lon="7.938844">
        <ele>624.328286</ele>
        <time>2021-11-14T19:29:15.049Z</time>
      </trkpt>
      <trkpt lat="47.461855" lon="7.939515">
        <ele>627.667535</ele>
        <time>2021-11-14T19:29:46.090Z</time>
      </trkpt>
      <trkpt lat="47.462056" lon="7.939688">
        <ele>628.791178</ele>
        <time>2021-11-14T19:29:57.572Z</time>
      </trkpt>
      <trkpt lat="47.462207" lon="7.939778">
        <ele>630.037849</ele>
        <time>2021-11-14T19:30:06.253Z</time>
      </trkpt>
      <trkpt lat="47.462671" lon="7.939972">
        <ele>633.730275</ele>
        <time>2021-11-14T19:30:30.880Z</time>
      </trkpt>
      <trkpt lat="47.462895" lon="7.940071">
        <ele>635.520549</ele>
        <time>2021-11-14T19:30:43.039Z</time>
      </trkpt>
      <trkpt lat="47.463169" lon="7.940192">
        <ele>637.710291</ele>
        <time>2021-11-14T19:30:58.655Z</time>
      </trkpt>
      <trkpt lat="47.463351" lon="7.940342">
        <ele>639.305751</ele>
        <time>2021-11-14T19:31:10.891Z</time>
      </trkpt>
      <trkpt lat="47.463757" lon="7.940617">
        <ele>642.594690</ele>
        <time>2021-11-14T19:31:33.936Z</time>
      </trkpt>
      <trkpt lat="47.464307" lon="7.940722">
        <ele>644.506814</ele>
        <time>2021-11-14T19:31:57.733Z</time>
      </trkpt>
      <trkpt lat="47.464341" lon="7.940728">
        <ele>644.624877</ele>
        <time>2021-11-14T19:32:00.078Z</time>
      </trkpt>
      <trkpt lat="47.464912" lon="7.940831">
        <ele>646.608265</ele>
        <time>2021-11-14T19:32:16.524Z</time>
      </trkpt>
      <trkpt lat="47.465246" lon="7.940877">
        <ele>647.764874</ele>
        <time>2021-11-14T19:32:24.310Z</time>
      </trkpt>
      <trkpt lat="47.465632" lon="7.940899">
        <ele>648.779102</ele>
        <time>2021-11-14T19:32:34.293Z</time>
      </trkpt>
      <trkpt lat="47.465949" lon="7.940958">
        <ele>649.021581</ele>
        <time>2021-11-14T19:32:42.286Z</time>
      </trkpt>
      <trkpt lat="47.466346" lon="7.941118">
        <ele>649.333861</ele>
        <time>2021-11-14T19:32:51.694Z</time>
      </trkpt>
      <trkpt lat="47.466651" lon="7.941234">
        <ele>649.572864</ele>
        <time>2021-11-14T19:32:58.064Z</time>
      </trkpt>
      <trkpt lat="47.466822" lon="7.941310">
        <ele>649.708373</ele>
        <time>2021-11-14T19:33:02.561Z</time>
      </trkpt>
      <trkpt lat="47.467100" lon="7.941411">
        <ele>649.925627</ele>
        <time>2021-11-14T19:33:08.897Z</time>
      </trkpt>
      <trkpt lat="47.467399" lon="7.941540">
        <ele>650.123781</ele>
        <time>2021-11-14T19:33:15.834Z</time>
      </trkpt>
      <trkpt lat="47.467899" lon="7.941853">
        <ele>650.389337</ele>
        <time>2021-11-14T19:33:29.136Z</time>
      </trkpt>
      <trkpt lat="47.468006" lon="7.941992">
        <ele>650.458989</ele>
        <time>2021-11-14T19:33:32.223Z</time>
      </trkpt>
      <trkpt lat="47.468260" lon="7.942246">
        <ele>650.608948</ele>
        <time>2021-11-14T19:33:39.678Z</time>
      </trkpt>
      <trkpt lat="47.468737" lon="7.942334">
        <ele>650.844065</ele>
        <time>2021-11-14T19:33:49.740Z</time>
      </trkpt>
      <trkpt lat="47.468954" lon="7.942332">
        <ele>650.922557</ele>
        <time>2021-11-14T19:33:53.907Z</time>
      </trkpt>
      <trkpt lat="47.469044" lon="7.942317">
        <ele>650.890123</ele>
        <time>2021-11-14T19:33:55.644Z</time>
      </trkpt>
      <trkpt lat="47.469058" lon="7.942569">
        <ele>650.828914</ele>
        <time>2021-11-14T19:33:58.118Z</time>
      </trkpt>
      <trkpt lat="47.469215" lon="7.943133">
        <ele>650.681259</ele>
        <time>2021-11-14T19:34:03.476Z</time>
      </trkpt>
      <trkpt lat="47.469517" lon="7.943834">
        <ele>650.480031</ele>
        <time>2021-11-14T19:34:11.135Z</time>
      </trkpt>
      <trkpt lat="47.469843" lon="7.944430">
        <ele>650.294438</ele>
        <time>2021-11-14T19:34:18.305Z</time>
      </trkpt>
      <trkpt lat="47.470096" lon="7.944809">
        <ele>649.752982</ele>
        <time>2021-11-14T19:34:23.278Z</time>
      </trkpt>
      <trkpt lat="47.470904" lon="7.946018">
        <ele>647.979289</ele>
        <time>2021-11-14T19:34:36.703Z</time>
      </trkpt>
      <trkpt lat="47.471580" lon="7.947013">
        <ele>644.491106</ele>
        <time>2021-11-14T19:34:46.353Z</time>
      </trkpt>
      <trkpt lat="47.471655" lon="7.947281">
        <ele>643.582341</ele>
        <time>2021-11-14T19:34:48.202Z</time>
      </trkpt>
      <trkpt lat="47.471588" lon="7.947530">
        <ele>642.742680</ele>
        <time>2021-11-14T19:34:50.105Z</time>
      </trkpt>
      <trkpt lat="47.471526" lon="7.947625">
        <ele>642.328955</ele>
        <time>2021-11-14T19:34:50.926Z</time>
      </trkpt>
      <trkpt lat="47.471433" lon="7.947675">
        <ele>641.870321</ele>
        <time>2021-11-14T19:34:51.831Z</time>
      </trkpt>
      <trkpt lat="47.470644" lon="7.947609">
        <ele>637.156558</ele>
        <time>2021-11-14T19:34:59.069Z</time>
      </trkpt>
      <trkpt lat="47.470424" lon="7.947722">
        <ele>634.907736</ele>
        <time>2021-11-14T19:35:01.121Z</time>
      </trkpt>
      <trkpt lat="47.470368" lon="7.947828">
        <ele>634.029576</ele>
        <time>2021-11-14T19:35:01.917Z</time>
      </trkpt>
      <trkpt lat="47.470333" lon="7.948107">
        <ele>632.177314</ele>
        <time>2021-11-14T19:35:03.604Z</time>
      </trkpt>
      <trkpt lat="47.470426" lon="7.948527">
        <ele>629.292435</ele>
        <time>2021-11-14T19:35:06.182Z</time>
      </trkpt>
      <trkpt lat="47.470338" lon="7.948724">
        <ele>627.751113</ele>
        <time>2021-11-14T19:35:07.567Z</time>
      </trkpt>
      <trkpt lat="47.470241" lon="7.948800">
        <ele>626.691178</ele>
        <time>2021-11-14T19:35:08.513Z</time>
      </trkpt>
      <trkpt lat="47.470079" lon="7.948808">
        <ele>625.125964</ele>
        <time>2021-11-14T19:35:09.902Z</time>
      </trkpt>
      <trkpt lat="47.469762" lon="7.948654">
        <ele>621.904042</ele>
        <time>2021-11-14T19:35:12.717Z</time>
      </trkpt>
      <trkpt lat="47.469469" lon="7.948624">
        <ele>617.663972</ele>
        <time>2021-11-14T19:35:15.169Z</time>
      </trkpt>
      <trkpt lat="47.469180" lon="7.948713">
        <ele>613.353422</ele>
        <time>2021-11-14T19:35:17.623Z</time>
      </trkpt>
      <trkpt lat="47.468810" lon="7.949041">
        <ele>607.054721</ele>
        <time>2021-11-14T19:35:21.196Z</time>
      </trkpt>
      <trkpt lat="47.468558" lon="7.949650">
        <ele>600.006398</ele>
        <time>2021-11-14T19:35:25.201Z</time>
      </trkpt>
      <trkpt lat="47.468441" lon="7.950143">
        <ele>594.976020</ele>
        <time>2021-11-14T19:35:28.133Z</time>
      </trkpt>
      <trkpt lat="47.468300" lon="7.950849">
        <ele>589.038193</ele>
        <time>2021-11-14T19:35:32.283Z</time>
      </trkpt>
      <trkpt lat="47.468208" lon="7.951691">
        <ele>582.158574</ele>
        <time>2021-11-14T19:35:37.143Z</time>
      </trkpt>
      <trkpt lat="47.468258" lon="7.952349">
        <ele>576.817792</ele>
        <time>2021-11-14T19:35:40.988Z</time>
      </trkpt>
      <trkpt lat="47.468338" lon="7.952658">
        <ele>574.148898</ele>
        <time>2021-11-14T19:35:42.941Z</time>
      </trkpt>
      <trkpt lat="47.468688" lon="7.953623">
        <ele>568.723947</ele>
        <time>2021-11-14T19:35:49.496Z</time>
      </trkpt>
      <trkpt lat="47.468825" lon="7.953883">
        <ele>567.098568</ele>
        <time>2021-11-14T19:35:51.510Z</time>
      </trkpt>
      <trkpt lat="47.469129" lon="7.954175">
        <ele>564.454858</ele>
        <time>2021-11-14T19:35:54.806Z</time>
      </trkpt>
      <trkpt lat="47.469948" lon="7.954438">
        <ele>558.396382</ele>
        <time>2021-11-14T19:36:02.437Z</time>
      </trkpt>
      <trkpt lat="47.470173" lon="7.954771">
        <ele>556.123015</ele>
        <time>2021-11-14T19:36:05.292Z</time>
      </trkpt>
      <trkpt lat="47.470344" lon="7.955464">
        <ele>552.560957</ele>
        <time>2021-11-14T19:36:09.728Z</time>
      </trkpt>
      <trkpt lat="47.470551" lon="7.956984">
        <ele>544.879438</ele>
        <time>2021-11-14T19:36:19.084Z</time>
      </trkpt>
      <trkpt lat="47.470611" lon="7.957558">
        <ele>541.895382</ele>
        <time>2021-11-14T19:36:22.578Z</time>
      </trkpt>
      <trkpt lat="47.470622" lon="7.958630">
        <ele>536.387200</ele>
        <time>2021-11-14T19:36:29.011Z</time>
      </trkpt>
      <trkpt lat="47.470999" lon="7.960100">
        <ele>528.401913</ele>
        <time>2021-11-14T19:36:38.423Z</time>
      </trkpt>
      <trkpt lat="47.471231" lon="7.960809">
        <ele>524.415882</ele>
        <time>2021-11-14T19:36:43.157Z</time>
      </trkpt>
      <trkpt lat="47.471575" lon="7.961333">
        <ele>520.803465</ele>
        <time>2021-11-14T19:36:47.618Z</time>
      </trkpt>
      <trkpt lat="47.471579" lon="7.961404">
        <ele>520.558240</ele>
        <time>2021-11-14T19:36:48.017Z</time>
      </trkpt>
      <trkpt lat="47.471568" lon="7.961446">
        <ele>520.403206</ele>
        <time>2021-11-14T19:36:48.274Z</time>
      </trkpt>
      <trkpt lat="47.471484" lon="7.961507">
        <ele>519.926729</ele>
        <time>2021-11-14T19:36:49.177Z</time>
      </trkpt>
      <trkpt lat="47.471375" lon="7.961461">
        <ele>519.349564</ele>
        <time>2021-11-14T19:36:50.290Z</time>
      </trkpt>
      <trkpt lat="47.470924" lon="7.960881">
        <ele>516.306675</ele>
        <time>2021-11-14T19:36:55.729Z</time>
      </trkpt>
      <trkpt lat="47.470268" lon="7.959615">
        <ele>511.152401</ele>
        <time>2021-11-14T19:37:06.428Z</time>
      </trkpt>
      <trkpt lat="47.469974" lon="7.958722">
        <ele>508.875059</ele>
        <time>2021-11-14T19:37:13.351Z</time>
      </trkpt>
      <trkpt lat="47.469781" lon="7.958087">
        <ele>507.278765</ele>
        <time>2021-11-14T19:37:18.144Z</time>
      </trkpt>
      <trkpt lat="47.469604" lon="7.957623">
        <ele>506.057222</ele>
        <time>2021-11-14T19:37:21.695Z</time>
      </trkpt>
      <trkpt lat="47.469296" lon="7.957034">
        <ele>503.367055</ele>
        <time>2021-11-14T19:37:26.578Z</time>
      </trkpt>
      <trkpt lat="47.469049" lon="7.956742">
        <ele>501.526883</ele>
        <time>2021-11-14T19:37:29.653Z</time>
      </trkpt>
      <trkpt lat="47.468875" lon="7.956583">
        <ele>500.336581</ele>
        <time>2021-11-14T19:37:31.506Z</time>
      </trkpt>
      <trkpt lat="47.468475" lon="7.956375">
        <ele>497.868951</ele>
        <time>2021-11-14T19:37:35.313Z</time>
      </trkpt>
      <trkpt lat="47.468322" lon="7.956470">
        <ele>496.903236</ele>
        <time>2021-11-14T19:37:36.907Z</time>
      </trkpt>
      <trkpt lat="47.468267" lon="7.956746">
        <ele>495.771173</ele>
        <time>2021-11-14T19:37:38.657Z</time>
      </trkpt>
      <trkpt lat="47.468479" lon="7.957453">
        <ele>491.015306</ele>
        <time>2021-11-14T19:37:43.257Z</time>
      </trkpt>
      <trkpt lat="47.468507" lon="7.957558">
        <ele>490.270128</ele>
        <time>2021-11-14T19:37:43.924Z</time>
      </trkpt>
      <trkpt lat="47.468524" lon="7.957646">
        <ele>489.665911</ele>
        <time>2021-11-14T19:37:44.441Z</time>
      </trkpt>
      <trkpt lat="47.468536" lon="7.958296">
        <ele>485.373128</ele>
        <time>2021-11-14T19:37:48.280Z</time>
      </trkpt>
      <trkpt lat="47.468627" lon="7.958965">
        <ele>480.867989</ele>
        <time>2021-11-14T19:37:52.213Z</time>
      </trkpt>
      <trkpt lat="47.468637" lon="7.959076">
        <ele>480.128710</ele>
        <time>2021-11-14T19:37:52.838Z</time>
      </trkpt>
      <trkpt lat="47.468641" lon="7.959158">
        <ele>479.585954</ele>
        <time>2021-11-14T19:37:53.331Z</time>
      </trkpt>
      <trkpt lat="47.468645" lon="7.959223">
        <ele>479.155062</ele>
        <time>2021-11-14T19:37:53.701Z</time>
      </trkpt>
      <trkpt lat="47.468655" lon="7.959428">
        <ele>477.798173</ele>
        <time>2021-11-14T19:37:54.890Z</time>
      </trkpt>
      <trkpt lat="47.468634" lon="7.959800">
        <ele>475.184632</ele>
        <time>2021-11-14T19:37:57.018Z</time>
      </trkpt>
      <trkpt lat="47.468516" lon="7.960416">
        <ele>470.690164</ele>
        <time>2021-11-14T19:38:00.718Z</time>
      </trkpt>
      <trkpt lat="47.468503" lon="7.960562">
        <ele>469.656417</ele>
        <time>2021-11-14T19:38:01.544Z</time>
      </trkpt>
      <trkpt lat="47.468498" lon="7.960883">
        <ele>467.402457</ele>
        <time>2021-11-14T19:38:03.420Z</time>
      </trkpt>
      <trkpt lat="47.468509" lon="7.961184">
        <ele>465.286405</ele>
        <time>2021-11-14T19:38:05.123Z</time>
      </trkpt>
      <trkpt lat="47.468616" lon="7.962000">
        <ele>459.451466</ele>
        <time>2021-11-14T19:38:10.056Z</time>
      </trkpt>
      <trkpt lat="47.469373" lon="7.963006">
        <ele>452.984593</ele>
        <time>2021-11-14T19:38:19.130Z</time>
      </trkpt>
      <trkpt lat="47.469749" lon="7.963424">
        <ele>450.078008</ele>
        <time>2021-11-14T19:38:23.595Z</time>
      </trkpt>
      <trkpt lat="47.470318" lon="7.964176">
        <ele>446.504976</ele>
        <time>2021-11-14T19:38:31.057Z</time>
      </trkpt>
      <trkpt lat="47.470351" lon="7.964220">
        <ele>446.354227</ele>
        <time>2021-11-14T19:38:31.473Z</time>
      </trkpt>
      <trkpt lat="47.470610" lon="7.964511">
        <ele>445.250621</ele>
        <time>2021-11-14T19:38:34.731Z</time>
      </trkpt>
      <trkpt lat="47.471250" lon="7.965231">
        <ele>442.522286</ele>
        <time>2021-11-14T19:38:43.121Z</time>
      </trkpt>
      <trkpt lat="47.471503" lon="7.965463">
        <ele>441.466268</ele>
        <time>2021-11-14T19:38:46.099Z</time>
      </trkpt>
      <trkpt lat="47.471880" lon="7.965766">
        <ele>439.771628</ele>
        <time>2021-11-14T19:38:50.382Z</time>
      </trkpt>
      <trkpt lat="47.472564" lon="7.966330">
        <ele>436.678655</ele>
        <time>2021-11-14T19:38:58.117Z</time>
      </trkpt>
      <trkpt lat="47.472594" lon="7.966357">
        <ele>436.539956</ele>
        <time>2021-11-14T19:38:58.423Z</time>
      </trkpt>
      <trkpt lat="47.472859" lon="7.966644">
        <ele>435.242762</ele>
        <time>2021-11-14T19:39:01.571Z</time>
      </trkpt>
      <trkpt lat="47.473444" lon="7.967380">
        <ele>432.114060</ele>
        <time>2021-11-14T19:39:08.845Z</time>
      </trkpt>
      <trkpt lat="47.473664" lon="7.967490">
        <ele>431.161470</ele>
        <time>2021-11-14T19:39:11.104Z</time>
      </trkpt>
      <trkpt lat="47.474076" lon="7.967608">
        <ele>429.440061</ele>
        <time>2021-11-14T19:39:15.068Z</time>
      </trkpt>
      <trkpt lat="47.474238" lon="7.967666">
        <ele>428.756352</ele>
        <time>2021-11-14T19:39:16.713Z</time>
      </trkpt>
      <trkpt lat="47.474560" lon="7.967748">
        <ele>427.416078</ele>
        <time>2021-11-14T19:39:20.008Z</time>
      </trkpt>
      <trkpt lat="47.475217" lon="7.967697">
        <ele>426.550238</ele>
        <time>2021-11-14T19:39:27.293Z</time>
      </trkpt>
      <trkpt lat="47.475280" lon="7.967711">
        <ele>426.473650</ele>
        <time>2021-11-14T19:39:27.997Z</time>
      </trkpt>
      <trkpt lat="47.475359" lon="7.967770">
        <ele>426.367261</ele>
        <time>2021-11-14T19:39:29.031Z</time>
      </trkpt>
      <trkpt lat="47.475436" lon="7.967868">
        <ele>426.245153</ele>
        <time>2021-11-14T19:39:30.369Z</time>
      </trkpt>
      <trkpt lat="47.475607" lon="7.968209">
        <ele>425.900134</ele>
        <time>2021-11-14T19:39:34.148Z</time>
      </trkpt>
      <trkpt lat="47.475616" lon="7.968229">
        <ele>425.880610</ele>
        <time>2021-11-14T19:39:34.421Z</time>
      </trkpt>
      <trkpt lat="47.475616" lon="7.968229">
        <ele>425.880610</ele>
        <time>2021-11-14T19:39:34.434Z</time>
      </trkpt>
      <trkpt lat="47.475684" lon="7.968334">
        <ele>425.762447</ele>
        <time>2021-11-14T19:39:36.095Z</time>
      </trkpt>
      <trkpt lat="47.475729" lon="7.968403">
        <ele>425.684535</ele>
        <time>2021-11-14T19:39:37.136Z</time>
      </trkpt>
      <trkpt lat="47.475871" lon="7.968576">
        <ele>425.463393</ele>
        <time>2021-11-14T19:39:39.522Z</time>
      </trkpt>
      <trkpt lat="47.476103" lon="7.968806">
        <ele>425.143360</ele>
        <time>2021-11-14T19:39:43.279Z</time>
      </trkpt>
      <trkpt lat="47.476327" lon="7.969094">
        <ele>425.064894</ele>
        <time>2021-11-14T19:39:47.297Z</time>
      </trkpt>
      <trkpt lat="47.476396" lon="7.969182">
        <ele>425.040807</ele>
        <time>2021-11-14T19:39:48.512Z</time>
      </trkpt>
      <trkpt lat="47.476670" lon="7.969631">
        <ele>424.932699</ele>
        <time>2021-11-14T19:39:54.842Z</time>
      </trkpt>
      <trkpt lat="47.476944" lon="7.970103">
        <ele>424.821506</ele>
        <time>2021-11-14T19:40:01.774Z</time>
      </trkpt>
      <trkpt lat="47.477029" lon="7.970212">
        <ele>424.791765</ele>
        <time>2021-11-14T19:40:03.250Z</time>
      </trkpt>
      <trkpt lat="47.477135" lon="7.970342">
        <ele>424.755361</ele>
        <time>2021-11-14T19:40:05.675Z</time>
      </trkpt>
      <trkpt lat="47.477203" lon="7.970445">
        <ele>424.729630</ele>
        <time>2021-11-14T19:40:06.941Z</time>
      </trkpt>
      <trkpt lat="47.477262" lon="7.970548">
        <ele>424.705502</ele>
        <time>2021-11-14T19:40:08.021Z</time>
      </trkpt>
      <trkpt lat="47.477284" lon="7.970600">
        <ele>424.694538</ele>
        <time>2021-11-14T19:40:08.520Z</time>
      </trkpt>
      <trkpt lat="47.477322" lon="7.970682">
        <ele>424.676770</ele>
        <time>2021-11-14T19:40:09.573Z</time>
      </trkpt>
      <trkpt lat="47.477370" lon="7.970827">
        <ele>424.419547</ele>
        <time>2021-11-14T19:40:10.884Z</time>
      </trkpt>
      <trkpt lat="47.477522" lon="7.971381">
        <ele>423.308345</ele>
        <time>2021-11-14T19:40:15.546Z</time>
      </trkpt>
      <trkpt lat="47.477553" lon="7.971461">
        <ele>423.136964</ele>
        <time>2021-11-14T19:40:16.145Z</time>
      </trkpt>
      <trkpt lat="47.477623" lon="7.971640">
        <ele>422.752624</ele>
        <time>2021-11-14T19:40:17.596Z</time>
      </trkpt>
      <trkpt lat="47.477698" lon="7.971759">
        <ele>422.450230</ele>
        <time>2021-11-14T19:40:18.879Z</time>
      </trkpt>
      <trkpt lat="47.477778" lon="7.971876">
        <ele>422.140922</ele>
        <time>2021-11-14T19:40:19.971Z</time>
      </trkpt>
      <trkpt lat="47.478083" lon="7.972275">
        <ele>421.021444</ele>
        <time>2021-11-14T19:40:23.993Z</time>
      </trkpt>
      <trkpt lat="47.478198" lon="7.972475">
        <ele>420.533438</ele>
        <time>2021-11-14T19:40:25.895Z</time>
      </trkpt>
      <trkpt lat="47.478213" lon="7.972508">
        <ele>420.459529</ele>
        <time>2021-11-14T19:40:26.151Z</time>
      </trkpt>
      <trkpt lat="47.478295" lon="7.972689">
        <ele>420.054570</ele>
        <time>2021-11-14T19:40:27.543Z</time>
      </trkpt>
      <trkpt lat="47.478424" lon="7.973015">
        <ele>419.143314</ele>
        <time>2021-11-14T19:40:30.119Z</time>
      </trkpt>
      <trkpt lat="47.478494" lon="7.973191">
        <ele>418.551463</ele>
        <time>2021-11-14T19:40:31.384Z</time>
      </trkpt>
      <trkpt lat="47.478606" lon="7.973396">
        <ele>417.787492</ele>
        <time>2021-11-14T19:40:33.208Z</time>
      </trkpt>
      <trkpt lat="47.478952" lon="7.973850">
        <ele>415.804408</ele>
        <time>2021-11-14T19:40:37.605Z</time>
      </trkpt>
      <trkpt lat="47.479061" lon="7.974014">
        <ele>415.137790</ele>
        <time>2021-11-14T19:40:39.108Z</time>
      </trkpt>
      <trkpt lat="47.479095" lon="7.974066">
        <ele>414.928103</ele>
        <time>2021-11-14T19:40:39.622Z</time>
      </trkpt>
      <trkpt lat="47.479172" lon="7.974215">
        <ele>414.384506</ele>
        <time>2021-11-14T19:40:40.836Z</time>
      </trkpt>
      <trkpt lat="47.479198" lon="7.974266">
        <ele>414.199365</ele>
        <time>2021-11-14T19:40:41.220Z</time>
      </trkpt>
      <trkpt lat="47.479256" lon="7.974388">
        <ele>413.767076</ele>
        <time>2021-11-14T19:40:42.167Z</time>
      </trkpt>
      <trkpt lat="47.479521" lon="7.975122">
        <ele>411.544745</ele>
        <time>2021-11-14T19:40:47.584Z</time>
      </trkpt>
      <trkpt lat="47.479548" lon="7.975187">
        <ele>411.387253</ele>
        <time>2021-11-14T19:40:48.063Z</time>
      </trkpt>
      <trkpt lat="47.479650" lon="7.975428">
        <ele>410.800272</ele>
        <time>2021-11-14T19:40:49.960Z</time>
      </trkpt>
      <trkpt lat="47.479662" lon="7.975458">
        <ele>410.728311</ele>
        <time>2021-11-14T19:40:50.203Z</time>
      </trkpt>
      <trkpt lat="47.479744" lon="7.975611">
        <ele>410.325230</ele>
        <time>2021-11-14T19:40:51.503Z</time>
      </trkpt>
      <trkpt lat="47.480019" lon="7.976061">
        <ele>409.072892</ele>
        <time>2021-11-14T19:40:55.780Z</time>
      </trkpt>
      <trkpt lat="47.480106" lon="7.976208">
        <ele>408.669549</ele>
        <time>2021-11-14T19:40:57.180Z</time>
      </trkpt>
      <trkpt lat="47.480172" lon="7.976321">
        <ele>408.361255</ele>
        <time>2021-11-14T19:40:58.285Z</time>
      </trkpt>
      <trkpt lat="47.480258" lon="7.976521">
        <ele>407.871933</ele>
        <time>2021-11-14T19:41:00.047Z</time>
      </trkpt>
      <trkpt lat="47.480294" lon="7.976615">
        <ele>407.648908</ele>
        <time>2021-11-14T19:41:00.769Z</time>
      </trkpt>
      <trkpt lat="47.480540" lon="7.977249">
        <ele>406.249253</ele>
        <time>2021-11-14T19:41:05.991Z</time>
      </trkpt>
      <trkpt lat="47.481057" lon="7.978315">
        <ele>404.320253</ele>
        <time>2021-11-14T19:41:15.470Z</time>
      </trkpt>
      <trkpt lat="47.481075" lon="7.978353">
        <ele>404.252030</ele>
        <time>2021-11-14T19:41:15.760Z</time>
      </trkpt>
      <trkpt lat="47.481331" lon="7.978796">
        <ele>403.395114</ele>
        <time>2021-11-14T19:41:20.088Z</time>
      </trkpt>
      <trkpt lat="47.481417" lon="7.978989">
        <ele>403.055248</ele>
        <time>2021-11-14T19:41:21.919Z</time>
      </trkpt>
      <trkpt lat="47.481508" lon="7.979190">
        <ele>402.699565</ele>
        <time>2021-11-14T19:41:23.707Z</time>
      </trkpt>
      <trkpt lat="47.481627" lon="7.979494">
        <ele>402.303357</ele>
        <time>2021-11-14T19:41:26.529Z</time>
      </trkpt>
      <trkpt lat="47.481673" lon="7.979611">
        <ele>402.160774</ele>
        <time>2021-11-14T19:41:27.562Z</time>
      </trkpt>
      <trkpt lat="47.481757" lon="7.979824">
        <ele>401.901000</ele>
        <time>2021-11-14T19:41:29.438Z</time>
      </trkpt>
      <trkpt lat="47.481977" lon="7.980334">
        <ele>401.263675</ele>
        <time>2021-11-14T19:41:34.110Z</time>
      </trkpt>
      <trkpt lat="47.482025" lon="7.980480">
        <ele>401.092652</ele>
        <time>2021-11-14T19:41:35.319Z</time>
      </trkpt>
      <trkpt lat="47.482099" lon="7.980698">
        <ele>400.835680</ele>
        <time>2021-11-14T19:41:37.237Z</time>
      </trkpt>
      <trkpt lat="47.482159" lon="7.980898">
        <ele>400.605184</ele>
        <time>2021-11-14T19:41:38.913Z</time>
      </trkpt>
      <trkpt lat="47.482458" lon="7.981897">
        <ele>399.497287</ele>
        <time>2021-11-14T19:41:47.442Z</time>
      </trkpt>
      <trkpt lat="47.482472" lon="7.981944">
        <ele>399.449836</ele>
        <time>2021-11-14T19:41:47.819Z</time>
      </trkpt>
      <trkpt lat="47.482563" lon="7.982231">
        <ele>399.156964</ele>
        <time>2021-11-14T19:41:50.487Z</time>
      </trkpt>
      <trkpt lat="47.482594" lon="7.982339">
        <ele>399.048563</ele>
        <time>2021-11-14T19:41:51.390Z</time>
      </trkpt>
      <trkpt lat="47.482652" lon="7.982524">
        <ele>398.860159</ele>
        <time>2021-11-14T19:41:53.008Z</time>
      </trkpt>
      <trkpt lat="47.482704" lon="7.982687">
        <ele>398.693640</ele>
        <time>2021-11-14T19:41:54.580Z</time>
      </trkpt>
      <trkpt lat="47.482729" lon="7.982770">
        <ele>398.609691</ele>
        <time>2021-11-14T19:41:55.268Z</time>
      </trkpt>
      <trkpt lat="47.482840" lon="7.983205">
        <ele>398.180133</ele>
        <time>2021-11-14T19:41:59.090Z</time>
      </trkpt>
      <trkpt lat="47.482897" lon="7.983529">
        <ele>397.870837</ele>
        <time>2021-11-14T19:42:01.706Z</time>
      </trkpt>
      <trkpt lat="47.483001" lon="7.984129">
        <ele>397.285056</ele>
        <time>2021-11-14T19:42:06.516Z</time>
      </trkpt>
      <trkpt lat="47.483130" lon="7.984873">
        <ele>396.369097</ele>
        <time>2021-11-14T19:42:12.275Z</time>
      </trkpt>
      <trkpt lat="47.483153" lon="7.984996">
        <ele>396.216907</ele>
        <time>2021-11-14T19:42:13.246Z</time>
      </trkpt>
      <trkpt lat="47.483173" lon="7.985106">
        <ele>396.081068</ele>
        <time>2021-11-14T19:42:14.128Z</time>
      </trkpt>
      <trkpt lat="47.483274" lon="7.985553">
        <ele>395.519015</ele>
        <time>2021-11-14T19:42:17.711Z</time>
      </trkpt>
      <trkpt lat="47.483382" lon="7.985915">
        <ele>395.047136</ele>
        <time>2021-11-14T19:42:20.750Z</time>
      </trkpt>
      <trkpt lat="47.483462" lon="7.986151">
        <ele>394.732287</ele>
        <time>2021-11-14T19:42:22.755Z</time>
      </trkpt>
      <trkpt lat="47.483550" lon="7.986378">
        <ele>394.420215</ele>
        <time>2021-11-14T19:42:24.724Z</time>
      </trkpt>
      <trkpt lat="47.483775" lon="7.986910">
        <ele>393.602307</ele>
        <time>2021-11-14T19:42:29.385Z</time>
      </trkpt>
      <trkpt lat="47.484569" lon="7.988582">
        <ele>390.826354</ele>
        <time>2021-11-14T19:42:44.285Z</time>
      </trkpt>
      <trkpt lat="47.485480" lon="7.990116">
        <ele>388.913196</ele>
        <time>2021-11-14T19:43:00.317Z</time>
      </trkpt>
      <trkpt lat="47.485638" lon="7.990371">
        <ele>388.604847</ele>
        <time>2021-11-14T19:43:03.150Z</time>
      </trkpt>
      <trkpt lat="47.485781" lon="7.990604">
        <ele>388.324317</ele>
        <time>2021-11-14T19:43:05.729Z</time>
      </trkpt>
      <trkpt lat="47.486196" lon="7.991276">
        <ele>387.855803</ele>
        <time>2021-11-14T19:43:13.530Z</time>
      </trkpt>
      <trkpt lat="47.486319" lon="7.991471">
        <ele>387.739586</ele>
        <time>2021-11-14T19:43:15.908Z</time>
      </trkpt>
      <trkpt lat="47.486489" lon="7.991744">
        <ele>387.577846</ele>
        <time>2021-11-14T19:43:19.276Z</time>
      </trkpt>
      <trkpt lat="47.487177" lon="7.992841">
        <ele>386.832128</ele>
        <time>2021-11-14T19:43:32.891Z</time>
      </trkpt>
      <trkpt lat="47.487787" lon="7.993572">
        <ele>385.843689</ele>
        <time>2021-11-14T19:43:42.220Z</time>
      </trkpt>
      <trkpt lat="47.488382" lon="7.994128">
        <ele>384.957543</ele>
        <time>2021-11-14T19:43:50.263Z</time>
      </trkpt>
      <trkpt lat="47.488991" lon="7.994692">
        <ele>383.786838</ele>
        <time>2021-11-14T19:43:58.423Z</time>
      </trkpt>
      <trkpt lat="47.489245" lon="7.994928">
        <ele>383.266903</ele>
        <time>2021-11-14T19:44:01.824Z</time>
      </trkpt>
      <trkpt lat="47.490016" lon="7.995686">
        <ele>381.662213</ele>
        <time>2021-11-14T19:44:12.149Z</time>
      </trkpt>
      <trkpt lat="47.490899" lon="7.996664">
        <ele>379.341500</ele>
        <time>2021-11-14T19:44:24.287Z</time>
      </trkpt>
      <trkpt lat="47.490940" lon="7.996698">
        <ele>379.242412</ele>
        <time>2021-11-14T19:44:24.805Z</time>
      </trkpt>
      <trkpt lat="47.491068" lon="7.996814">
        <ele>378.925964</ele>
        <time>2021-11-14T19:44:26.373Z</time>
      </trkpt>
      <trkpt lat="47.491354" lon="7.997016">
        <ele>378.257826</ele>
        <time>2021-11-14T19:44:29.811Z</time>
      </trkpt>
      <trkpt lat="47.491886" lon="7.997365">
        <ele>377.076119</ele>
        <time>2021-11-14T19:44:36.060Z</time>
      </trkpt>
      <trkpt lat="47.492317" lon="7.997637">
        <ele>376.142843</ele>
        <time>2021-11-14T19:44:40.994Z</time>
      </trkpt>
      <trkpt lat="47.492477" lon="7.997747">
        <ele>375.791441</ele>
        <time>2021-11-14T19:44:42.918Z</time>
      </trkpt>
      <trkpt lat="47.492617" lon="7.997908">
        <ele>375.438293</ele>
        <time>2021-11-14T19:44:44.859Z</time>
      </trkpt>
      <trkpt lat="47.492722" lon="7.998050">
        <ele>375.154983</ele>
        <time>2021-11-14T19:44:46.517Z</time>
      </trkpt>
      <trkpt lat="47.492747" lon="7.998084">
        <ele>375.087355</ele>
        <time>2021-11-14T19:44:46.901Z</time>
      </trkpt>
      <trkpt lat="47.492877" lon="7.998257">
        <ele>374.739131</ele>
        <time>2021-11-14T19:44:48.822Z</time>
      </trkpt>
      <trkpt lat="47.493144" lon="7.998645">
        <ele>374.180722</ele>
        <time>2021-11-14T19:44:53.178Z</time>
      </trkpt>
      <trkpt lat="47.493296" lon="7.998833">
        <ele>374.057003</ele>
        <time>2021-11-14T19:44:55.643Z</time>
      </trkpt>
      <trkpt lat="47.493358" lon="7.998911">
        <ele>374.006181</ele>
        <time>2021-11-14T19:44:56.603Z</time>
      </trkpt>
      <trkpt lat="47.493433" lon="7.998996">
        <ele>373.947182</ele>
        <time>2021-11-14T19:44:57.803Z</time>
      </trkpt>
      <trkpt lat="47.493502" lon="7.999071">
        <ele>373.893714</ele>
        <time>2021-11-14T19:44:58.920Z</time>
      </trkpt>
      <trkpt lat="47.493603" lon="7.999152">
        <ele>373.821967</ele>
        <time>2021-11-14T19:45:00.360Z</time>
      </trkpt>
      <trkpt lat="47.493742" lon="7.999216">
        <ele>373.731050</ele>
        <time>2021-11-14T19:45:02.204Z</time>
      </trkpt>
      <trkpt lat="47.493937" lon="7.999285">
        <ele>373.605828</ele>
        <time>2021-11-14T19:45:04.837Z</time>
      </trkpt>
      <trkpt lat="47.493961" lon="7.999292">
        <ele>373.590550</ele>
        <time>2021-11-14T19:45:05.142Z</time>
      </trkpt>
      <trkpt lat="47.494272" lon="7.999381">
        <ele>373.392715</ele>
        <time>2021-11-14T19:45:09.575Z</time>
      </trkpt>
      <trkpt lat="47.494489" lon="7.999417">
        <ele>373.256337</ele>
        <time>2021-11-14T19:45:12.913Z</time>
      </trkpt>
      <trkpt lat="47.494643" lon="7.999430">
        <ele>373.159998</ele>
        <time>2021-11-14T19:45:15.263Z</time>
      </trkpt>
      <trkpt lat="47.494812" lon="7.999457">
        <ele>373.065287</ele>
        <time>2021-11-14T19:45:17.754Z</time>
      </trkpt>
      <trkpt lat="47.495197" lon="7.999589">
        <ele>372.850257</ele>
        <time>2021-11-14T19:45:23.299Z</time>
      </trkpt>
      <trkpt lat="47.495430" lon="7.999752">
        <ele>372.710030</ele>
        <time>2021-11-14T19:45:26.796Z</time>
      </trkpt>
      <trkpt lat="47.495718" lon="8.000005">
        <ele>372.527802</ele>
        <time>2021-11-14T19:45:31.215Z</time>
      </trkpt>
      <trkpt lat="47.496011" lon="8.000286">
        <ele>372.337835</ele>
        <time>2021-11-14T19:45:35.677Z</time>
      </trkpt>
      <trkpt lat="47.496234" lon="8.000584">
        <ele>372.174359</ele>
        <time>2021-11-14T19:45:39.343Z</time>
      </trkpt>
      <trkpt lat="47.496272" lon="8.000651">
        <ele>372.099129</ele>
        <time>2021-11-14T19:45:40.195Z</time>
      </trkpt>
      <trkpt lat="47.496280" lon="8.000664">
        <ele>372.079941</ele>
        <time>2021-11-14T19:45:40.330Z</time>
      </trkpt>
      <trkpt lat="47.496429" lon="8.000925">
        <ele>371.707084</ele>
        <time>2021-11-14T19:45:43.001Z</time>
      </trkpt>
      <trkpt lat="47.496517" lon="8.001077">
        <ele>371.488658</ele>
        <time>2021-11-14T19:45:44.708Z</time>
      </trkpt>
      <trkpt lat="47.496533" lon="8.001104">
        <ele>371.449469</ele>
        <time>2021-11-14T19:45:44.960Z</time>
      </trkpt>
      <trkpt lat="47.496535" lon="8.001108">
        <ele>371.444039</ele>
        <time>2021-11-14T19:45:45.000Z</time>
      </trkpt>
      <trkpt lat="47.496585" lon="8.001187">
        <ele>371.325919</ele>
        <time>2021-11-14T19:45:45.797Z</time>
      </trkpt>
      <trkpt lat="47.496820" lon="8.001547">
        <ele>370.779690</ele>
        <time>2021-11-14T19:45:49.690Z</time>
      </trkpt>
      <trkpt lat="47.496861" lon="8.001608">
        <ele>370.685800</ele>
        <time>2021-11-14T19:45:50.323Z</time>
      </trkpt>
      <trkpt lat="47.496908" lon="8.001680">
        <ele>370.576555</ele>
        <time>2021-11-14T19:45:51.087Z</time>
      </trkpt>
      <trkpt lat="47.496932" lon="8.001715">
        <ele>370.522139</ele>
        <time>2021-11-14T19:45:51.453Z</time>
      </trkpt>
      <trkpt lat="47.497207" lon="8.002132">
        <ele>369.886286</ele>
        <time>2021-11-14T19:45:55.753Z</time>
      </trkpt>
      <trkpt lat="47.497264" lon="8.002219">
        <ele>369.754047</ele>
        <time>2021-11-14T19:45:56.695Z</time>
      </trkpt>
      <trkpt lat="47.497307" lon="8.002279">
        <ele>369.658604</ele>
        <time>2021-11-14T19:45:57.328Z</time>
      </trkpt>
      <trkpt lat="47.497390" lon="8.002409">
        <ele>369.463433</ele>
        <time>2021-11-14T19:45:58.690Z</time>
      </trkpt>
      <trkpt lat="47.497540" lon="8.002634">
        <ele>369.100680</ele>
        <time>2021-11-14T19:46:01.089Z</time>
      </trkpt>
      <trkpt lat="47.497607" lon="8.002710">
        <ele>368.947058</ele>
        <time>2021-11-14T19:46:02.008Z</time>
      </trkpt>
      <trkpt lat="47.497951" lon="8.003094">
        <ele>368.162934</ele>
        <time>2021-11-14T19:46:06.880Z</time>
      </trkpt>
      <trkpt lat="47.498072" lon="8.003250">
        <ele>367.870903</ele>
        <time>2021-11-14T19:46:08.611Z</time>
      </trkpt>
      <trkpt lat="47.498166" lon="8.003383">
        <ele>367.634246</ele>
        <time>2021-11-14T19:46:10.090Z</time>
      </trkpt>
      <trkpt lat="47.498213" lon="8.003454">
        <ele>367.512029</ele>
        <time>2021-11-14T19:46:10.856Z</time>
      </trkpt>
      <trkpt lat="47.498450" lon="8.003874">
        <ele>366.839195</ele>
        <time>2021-11-14T19:46:14.945Z</time>
      </trkpt>
      <trkpt lat="47.498698" lon="8.004313">
        <ele>366.135599</ele>
        <time>2021-11-14T19:46:19.187Z</time>
      </trkpt>
      <trkpt lat="47.498753" lon="8.004410">
        <ele>365.981877</ele>
        <time>2021-11-14T19:46:20.097Z</time>
      </trkpt>
      <trkpt lat="47.498898" lon="8.004636">
        <ele>365.726574</ele>
        <time>2021-11-14T19:46:22.590Z</time>
      </trkpt>
      <trkpt lat="47.498965" lon="8.004710">
        <ele>365.625216</ele>
        <time>2021-11-14T19:46:23.532Z</time>
      </trkpt>
      <trkpt lat="47.499012" lon="8.004762">
        <ele>365.554071</ele>
        <time>2021-11-14T19:46:24.184Z</time>
      </trkpt>
      <trkpt lat="47.499183" lon="8.004875">
        <ele>365.327017</ele>
        <time>2021-11-14T19:46:26.461Z</time>
      </trkpt>
      <trkpt lat="47.499409" lon="8.005000">
        <ele>365.034496</ele>
        <time>2021-11-14T19:46:29.310Z</time>
      </trkpt>
      <trkpt lat="47.499496" lon="8.005059">
        <ele>364.918468</ele>
        <time>2021-11-14T19:46:30.480Z</time>
      </trkpt>
      <trkpt lat="47.499523" lon="8.005078">
        <ele>364.882220</ele>
        <time>2021-11-14T19:46:30.822Z</time>
      </trkpt>
      <trkpt lat="47.499770" lon="8.005268">
        <ele>364.544717</ele>
        <time>2021-11-14T19:46:34.145Z</time>
      </trkpt>
      <trkpt lat="47.499856" lon="8.005338">
        <ele>364.425721</ele>
        <time>2021-11-14T19:46:35.307Z</time>
      </trkpt>
      <trkpt lat="47.499880" lon="8.005358">
        <ele>364.392327</ele>
        <time>2021-11-14T19:46:35.621Z</time>
      </trkpt>
      <trkpt lat="47.499991" lon="8.005468">
        <ele>364.230367</ele>
        <time>2021-11-14T19:46:37.196Z</time>
      </trkpt>
      <trkpt lat="47.500009" lon="8.005488">
        <ele>364.203078</ele>
        <time>2021-11-14T19:46:37.487Z</time>
      </trkpt>
      <trkpt lat="47.500207" lon="8.005727">
        <ele>363.893307</ele>
        <time>2021-11-14T19:46:40.648Z</time>
      </trkpt>
      <trkpt lat="47.500252" lon="8.005784">
        <ele>363.821496</ele>
        <time>2021-11-14T19:46:41.433Z</time>
      </trkpt>
      <trkpt lat="47.500310" lon="8.005852">
        <ele>363.775524</ele>
        <time>2021-11-14T19:46:42.361Z</time>
      </trkpt>
      <trkpt lat="47.500540" lon="8.006079">
        <ele>363.640443</ele>
        <time>2021-11-14T19:46:45.927Z</time>
      </trkpt>
      <trkpt lat="47.500647" lon="8.006180">
        <ele>363.578432</ele>
        <time>2021-11-14T19:46:47.634Z</time>
      </trkpt>
      <trkpt lat="47.500764" lon="8.006290">
        <ele>363.510703</ele>
        <time>2021-11-14T19:46:49.398Z</time>
      </trkpt>
      <trkpt lat="47.500997" lon="8.006551">
        <ele>363.367922</ele>
        <time>2021-11-14T19:46:53.516Z</time>
      </trkpt>
      <trkpt lat="47.501276" lon="8.006911">
        <ele>363.187064</ele>
        <time>2021-11-14T19:46:58.944Z</time>
      </trkpt>
      <trkpt lat="47.501293" lon="8.006936">
        <ele>363.175354</ele>
        <time>2021-11-14T19:46:59.269Z</time>
      </trkpt>
      <trkpt lat="47.501496" lon="8.007247">
        <ele>363.032596</ele>
        <time>2021-11-14T19:47:03.223Z</time>
      </trkpt>
      <trkpt lat="47.501537" lon="8.007308">
        <ele>363.004191</ele>
        <time>2021-11-14T19:47:03.967Z</time>
      </trkpt>
      <trkpt lat="47.501943" lon="8.008353">
        <ele>362.108900</ele>
        <time>2021-11-14T19:47:14.440Z</time>
      </trkpt>
      <trkpt lat="47.502062" lon="8.008650">
        <ele>361.817697</ele>
        <time>2021-11-14T19:47:17.379Z</time>
      </trkpt>
      <trkpt lat="47.502158" lon="8.008808">
        <ele>361.638491</ele>
        <time>2021-11-14T19:47:19.087Z</time>
      </trkpt>
      <trkpt lat="47.502267" lon="8.008979">
        <ele>361.440225</ele>
        <time>2021-11-14T19:47:20.919Z</time>
      </trkpt>
      <trkpt lat="47.502773" lon="8.009928">
        <ele>360.257413</ele>
        <time>2021-11-14T19:47:29.880Z</time>
      </trkpt>
      <trkpt lat="47.502959" lon="8.010415">
        <ele>359.489591</ele>
        <time>2021-11-14T19:47:33.948Z</time>
      </trkpt>
      <trkpt lat="47.503207" lon="8.011279">
        <ele>358.201173</ele>
        <time>2021-11-14T19:47:40.870Z</time>
      </trkpt>
      <trkpt lat="47.503268" lon="8.011479">
        <ele>357.900000</ele>
        <time>2021-11-14T19:47:42.546Z</time>
      </trkpt>
      <trkpt lat="47.503325" lon="8.011662">
        <ele>357.623427</ele>
        <time>2021-11-14T19:47:44.028Z</time>
      </trkpt>
      <trkpt lat="47.503561" lon="8.012433">
        <ele>356.655175</ele>
        <time>2021-11-14T19:47:50.300Z</time>
      </trkpt>
      <trkpt lat="47.503675" lon="8.012805">
        <ele>356.286522</ele>
        <time>2021-11-14T19:47:53.309Z</time>
      </trkpt>
      <trkpt lat="47.503759" lon="8.013139">
        <ele>355.964883</ele>
        <time>2021-11-14T19:47:56.019Z</time>
      </trkpt>
      <trkpt lat="47.503818" lon="8.013443">
        <ele>355.679431</ele>
        <time>2021-11-14T19:47:58.551Z</time>
      </trkpt>
      <trkpt lat="47.503854" lon="8.013721">
        <ele>355.423974</ele>
        <time>2021-11-14T19:48:00.957Z</time>
      </trkpt>
      <trkpt lat="47.503922" lon="8.014235">
        <ele>354.951289</ele>
        <time>2021-11-14T19:48:05.622Z</time>
      </trkpt>
      <trkpt lat="47.504106" lon="8.015484">
        <ele>354.300199</ele>
        <time>2021-11-14T19:48:16.428Z</time>
      </trkpt>
      <trkpt lat="47.504246" lon="8.016448">
        <ele>353.951643</ele>
        <time>2021-11-14T19:48:25.046Z</time>
      </trkpt>
      <trkpt lat="47.504281" lon="8.016674">
        <ele>353.869680</ele>
        <time>2021-11-14T19:48:27.092Z</time>
      </trkpt>
      <trkpt lat="47.504393" lon="8.017182">
        <ele>353.682718</ele>
        <time>2021-11-14T19:48:32.417Z</time>
      </trkpt>
      <trkpt lat="47.504413" lon="8.017267">
        <ele>353.684241</ele>
        <time>2021-11-14T19:48:33.413Z</time>
      </trkpt>
      <trkpt lat="47.504588" lon="8.017986">
        <ele>353.697169</ele>
        <time>2021-11-14T19:48:41.459Z</time>
      </trkpt>
      <trkpt lat="47.504626" lon="8.018141">
        <ele>353.699958</ele>
        <time>2021-11-14T19:48:43.090Z</time>
      </trkpt>
      <trkpt lat="47.504819" lon="8.018974">
        <ele>353.714855</ele>
        <time>2021-11-14T19:48:51.891Z</time>
      </trkpt>
      <trkpt lat="47.504877" lon="8.019222">
        <ele>353.719295</ele>
        <time>2021-11-14T19:48:54.736Z</time>
      </trkpt>
      <trkpt lat="47.504998" lon="8.019743">
        <ele>353.685525</ele>
        <time>2021-11-14T19:49:00.674Z</time>
      </trkpt>
      <trkpt lat="47.505207" lon="8.020615">
        <ele>352.986807</ele>
        <time>2021-11-14T19:49:09.112Z</time>
      </trkpt>
      <trkpt lat="47.505291" lon="8.020961">
        <ele>352.709162</ele>
        <time>2021-11-14T19:49:12.188Z</time>
      </trkpt>
      <trkpt lat="47.505529" lon="8.021539">
        <ele>352.197987</ele>
        <time>2021-11-14T19:49:17.405Z</time>
      </trkpt>
      <trkpt lat="47.505600" lon="8.021664">
        <ele>352.074659</ele>
        <time>2021-11-14T19:49:18.545Z</time>
      </trkpt>
      <trkpt lat="47.505653" lon="8.021731">
        <ele>351.996748</ele>
        <time>2021-11-14T19:49:19.363Z</time>
      </trkpt>
      <trkpt lat="47.506220" lon="8.022129">
        <ele>350.695989</ele>
        <time>2021-11-14T19:49:26.193Z</time>
      </trkpt>
      <trkpt lat="47.506503" lon="8.022393">
        <ele>349.790702</ele>
        <time>2021-11-14T19:49:29.796Z</time>
      </trkpt>
      <trkpt lat="47.506535" lon="8.022414">
        <ele>349.695970</ele>
        <time>2021-11-14T19:49:30.116Z</time>
      </trkpt>
      <trkpt lat="47.506621" lon="8.022234">
        <ele>349.292908</ele>
        <time>2021-11-14T19:49:31.704Z</time>
      </trkpt>
      <trkpt lat="47.506655" lon="8.022123">
        <ele>349.070094</ele>
        <time>2021-11-14T19:49:32.572Z</time>
      </trkpt>
      <trkpt lat="47.506655" lon="8.022123">
        <ele>349.070094</ele>
        <time>2021-11-14T19:49:32.575Z</time>
      </trkpt>
      <trkpt lat="47.506678" lon="8.022015">
        <ele>348.863073</ele>
        <time>2021-11-14T19:49:33.378Z</time>
      </trkpt>
      <trkpt lat="47.506735" lon="8.021861">
        <ele>348.542043</ele>
        <time>2021-11-14T19:49:34.545Z</time>
      </trkpt>
      <trkpt lat="47.506867" lon="8.021604">
        <ele>347.951816</ele>
        <time>2021-11-14T19:49:36.773Z</time>
      </trkpt>
      <trkpt lat="47.506910" lon="8.021529">
        <ele>347.771976</ele>
        <time>2021-11-14T19:49:37.405Z</time>
      </trkpt>
      <trkpt lat="47.506949" lon="8.021459">
        <ele>347.606093</ele>
        <time>2021-11-14T19:49:38.048Z</time>
      </trkpt>
      <trkpt lat="47.507007" lon="8.021362">
        <ele>347.369269</ele>
        <time>2021-11-14T19:49:38.940Z</time>
      </trkpt>
      <trkpt lat="47.507213" lon="8.021061">
        <ele>346.657187</ele>
        <time>2021-11-14T19:49:41.892Z</time>
      </trkpt>
      <trkpt lat="47.507466" lon="8.020697">
        <ele>345.960810</ele>
        <time>2021-11-14T19:49:45.528Z</time>
      </trkpt>
      <trkpt lat="47.507609" lon="8.020484">
        <ele>345.560399</ele>
        <time>2021-11-14T19:49:47.664Z</time>
      </trkpt>
      <trkpt lat="47.507666" lon="8.020400">
        <ele>345.401645</ele>
        <time>2021-11-14T19:49:48.531Z</time>
      </trkpt>
      <trkpt lat="47.507863" lon="8.020075">
        <ele>344.819423</ele>
        <time>2021-11-14T19:49:51.726Z</time>
      </trkpt>
      <trkpt lat="47.507895" lon="8.020117">
        <ele>344.735009</ele>
        <time>2021-11-14T19:49:52.188Z</time>
      </trkpt>
      <trkpt lat="47.507995" lon="8.020296">
        <ele>344.425295</ele>
        <time>2021-11-14T19:49:53.969Z</time>
      </trkpt>
      <trkpt lat="47.508000" lon="8.020315">
        <ele>344.398107</ele>
        <time>2021-11-14T19:49:54.100Z</time>
      </trkpt>
      <trkpt lat="47.508039" lon="8.020467">
        <ele>344.181314</ele>
        <time>2021-11-14T19:49:55.303Z</time>
      </trkpt>
      <trkpt lat="47.508194" lon="8.021281">
        <ele>343.567338</ele>
        <time>2021-11-14T19:50:02.032Z</time>
      </trkpt>
      <trkpt lat="47.508213" lon="8.021364">
        <ele>343.695240</ele>
        <time>2021-11-14T19:50:02.851Z</time>
      </trkpt>
      <trkpt lat="47.508331" lon="8.021703">
        <ele>344.251826</ele>
        <time>2021-11-14T19:50:07.901Z</time>
      </trkpt>
      <trkpt lat="47.508453" lon="8.021990">
        <ele>344.746732</ele>
        <time>2021-11-14T19:50:12.116Z</time>
      </trkpt>
      <trkpt lat="47.508643" lon="8.022392">
        <ele>345.462794</ele>
        <time>2021-11-14T19:50:19.610Z</time>
      </trkpt>
      <trkpt lat="47.508786" lon="8.022604">
        <ele>345.900051</ele>
        <time>2021-11-14T19:50:25.284Z</time>
      </trkpt>
      <trkpt lat="47.508863" lon="8.022719">
        <ele>346.136371</ele>
        <time>2021-11-14T19:50:28.036Z</time>
      </trkpt>
      <trkpt lat="47.508958" lon="8.022838">
        <ele>346.405247</ele>
        <time>2021-11-14T19:50:31.985Z</time>
      </trkpt>
      <trkpt lat="47.509187" lon="8.023037">
        <ele>346.978971</ele>
        <time>2021-11-14T19:50:39.931Z</time>
      </trkpt>
      <trkpt lat="47.509313" lon="8.023129">
        <ele>347.433769</ele>
        <time>2021-11-14T19:50:45.181Z</time>
      </trkpt>
      <trkpt lat="47.509881" lon="8.023632">
        <ele>351.084108</ele>
        <time>2021-11-14T19:51:09.350Z</time>
      </trkpt>
      <trkpt lat="47.510365" lon="8.024216">
        <ele>354.527775</ele>
        <time>2021-11-14T19:51:34.567Z</time>
      </trkpt>
      <trkpt lat="47.510756" lon="8.024675">
        <ele>357.228128</ele>
        <time>2021-11-14T19:51:53.353Z</time>
      </trkpt>
      <trkpt lat="47.510843" lon="8.024760">
        <ele>357.632772</ele>
        <time>2021-11-14T19:51:57.367Z</time>
      </trkpt>
      <trkpt lat="47.511071" lon="8.024979">
        <ele>358.687821</ele>
        <time>2021-11-14T19:52:06.433Z</time>
      </trkpt>
      <trkpt lat="47.511906" lon="8.025487">
        <ele>362.192276</ele>
        <time>2021-11-14T19:52:32.773Z</time>
      </trkpt>
      <trkpt lat="47.512274" lon="8.025656">
        <ele>363.687988</ele>
        <time>2021-11-14T19:52:43.098Z</time>
      </trkpt>
      <trkpt lat="47.512538" lon="8.025758">
        <ele>364.877226</ele>
        <time>2021-11-14T19:52:50.237Z</time>
      </trkpt>
      <trkpt lat="47.512908" lon="8.025853">
        <ele>366.622394</ele>
        <time>2021-11-14T19:53:00.253Z</time>
      </trkpt>
      <trkpt lat="47.513218" lon="8.025897">
        <ele>368.069663</ele>
        <time>2021-11-14T19:53:09.014Z</time>
      </trkpt>
      <trkpt lat="47.513425" lon="8.025912">
        <ele>369.032807</ele>
        <time>2021-11-14T19:53:15.157Z</time>
      </trkpt>
      <trkpt lat="47.513701" lon="8.025904">
        <ele>370.315708</ele>
        <time>2021-11-14T19:53:34.352Z</time>
      </trkpt>
      <trkpt lat="47.514210" lon="8.025838">
        <ele>372.928247</ele>
        <time>2021-11-14T19:54:09.931Z</time>
      </trkpt>
      <trkpt lat="47.514465" lon="8.025897">
        <ele>375.297561</ele>
        <time>2021-11-14T19:54:27.872Z</time>
      </trkpt>
      <trkpt lat="47.514595" lon="8.026008">
        <ele>376.675189</ele>
        <time>2021-11-14T19:54:38.382Z</time>
      </trkpt>
      <trkpt lat="47.514817" lon="8.026467">
        <ele>380.175527</ele>
        <time>2021-11-14T19:55:04.939Z</time>
      </trkpt>
      <trkpt lat="47.514885" lon="8.026707">
        <ele>381.789201</ele>
        <time>2021-11-14T19:55:17.250Z</time>
      </trkpt>
      <trkpt lat="47.514979" lon="8.027036">
        <ele>384.004068</ele>
        <time>2021-11-14T19:55:34.095Z</time>
      </trkpt>
      <trkpt lat="47.515004" lon="8.027124">
        <ele>384.595984</ele>
        <time>2021-11-14T19:55:38.595Z</time>
      </trkpt>
      <trkpt lat="47.515321" lon="8.028237">
        <ele>392.340578</ele>
        <time>2021-11-14T19:56:35.483Z</time>
      </trkpt>
      <trkpt lat="47.515348" lon="8.028359">
        <ele>393.201556</ele>
        <time>2021-11-14T19:56:41.526Z</time>
      </trkpt>
      <trkpt lat="47.515381" lon="8.028515">
        <ele>394.297858</ele>
        <time>2021-11-14T19:56:49.251Z</time>
      </trkpt>
      <trkpt lat="47.515481" lon="8.029757">
        <ele>402.686087</ele>
        <time>2021-11-14T19:57:48.231Z</time>
      </trkpt>
      <trkpt lat="47.515614" lon="8.030515">
        <ele>407.881360</ele>
        <time>2021-11-14T19:58:25.068Z</time>
      </trkpt>
      <trkpt lat="47.515691" lon="8.030845">
        <ele>410.104013</ele>
        <time>2021-11-14T19:58:41.532Z</time>
      </trkpt>
      <trkpt lat="47.515842" lon="8.031330">
        <ele>413.503832</ele>
        <time>2021-11-14T19:59:06.700Z</time>
      </trkpt>
      <trkpt lat="47.516300" lon="8.032789">
        <ele>423.746146</ele>
        <time>2021-11-14T20:00:22.506Z</time>
      </trkpt>
      <trkpt lat="47.516568" lon="8.033645">
        <ele>428.334756</ele>
        <time>2021-11-14T20:01:06.889Z</time>
      </trkpt>
      <trkpt lat="47.516747" lon="8.034188">
        <ele>431.269542</ele>
        <time>2021-11-14T20:01:35.351Z</time>
      </trkpt>
      <trkpt lat="47.516785" lon="8.034519">
        <ele>432.900289</ele>
        <time>2021-11-14T20:01:51.126Z</time>
      </trkpt>
      <trkpt lat="47.516756" lon="8.034742">
        <ele>434.003310</ele>
        <time>2021-11-14T20:02:01.802Z</time>
      </trkpt>
      <trkpt lat="47.516470" lon="8.035519">
        <ele>437.761963</ele>
        <time>2021-11-14T20:02:43.363Z</time>
      </trkpt>
      <trkpt lat="47.516415" lon="8.035902">
        <ele>439.020643</ele>
        <time>2021-11-14T20:03:01.782Z</time>
      </trkpt>
      <trkpt lat="47.516430" lon="8.036102">
        <ele>439.667497</ele>
        <time>2021-11-14T20:03:11.232Z</time>
      </trkpt>
      <trkpt lat="47.516512" lon="8.036332">
        <ele>440.503523</ele>
        <time>2021-11-14T20:03:23.421Z</time>
      </trkpt>
      <trkpt lat="47.516536" lon="8.036364">
        <ele>440.657242</ele>
        <time>2021-11-14T20:03:25.660Z</time>
      </trkpt>
      <trkpt lat="47.516645" lon="8.036512">
        <ele>441.361145</ele>
        <time>2021-11-14T20:03:35.953Z</time>
      </trkpt>
      <trkpt lat="47.516778" lon="8.036607">
        <ele>442.063977</ele>
        <time>2021-11-14T20:03:46.213Z</time>
      </trkpt>
      <trkpt lat="47.516942" lon="8.036650">
        <ele>442.856689</ele>
        <time>2021-11-14T20:03:57.787Z</time>
      </trkpt>
      <trkpt lat="47.517234" lon="8.036656">
        <ele>444.246616</ele>
        <time>2021-11-14T20:04:18.104Z</time>
      </trkpt>
      <trkpt lat="47.517610" lon="8.036660">
        <ele>446.098148</ele>
        <time>2021-11-14T20:04:44.286Z</time>
      </trkpt>
      <trkpt lat="47.517767" lon="8.036682">
        <ele>446.909138</ele>
        <time>2021-11-14T20:04:55.258Z</time>
      </trkpt>
      <trkpt lat="47.517867" lon="8.036710">
        <ele>447.432508</ele>
        <time>2021-11-14T20:05:02.326Z</time>
      </trkpt>
      <trkpt lat="47.518081" lon="8.036770">
        <ele>448.552571</ele>
        <time>2021-11-14T20:05:17.459Z</time>
      </trkpt>
      <trkpt lat="47.518539" lon="8.036930">
        <ele>450.972529</ele>
        <time>2021-11-14T20:05:50.191Z</time>
      </trkpt>
      <trkpt lat="47.519072" lon="8.036945">
        <ele>453.714009</ele>
        <time>2021-11-14T20:06:27.337Z</time>
      </trkpt>
      <trkpt lat="47.519987" lon="8.036532">
        <ele>459.503310</ele>
        <time>2021-11-14T20:07:33.906Z</time>
      </trkpt>
      <trkpt lat="47.520056" lon="8.036498">
        <ele>459.956325</ele>
        <time>2021-11-14T20:07:38.943Z</time>
      </trkpt>
      <trkpt lat="47.520194" lon="8.036435">
        <ele>460.855933</ele>
        <time>2021-11-14T20:07:49.035Z</time>
      </trkpt>
      <trkpt lat="47.520340" lon="8.036369">
        <ele>461.806889</ele>
        <time>2021-11-14T20:07:59.612Z</time>
      </trkpt>
      <trkpt lat="47.520393" lon="8.036350">
        <ele>462.146593</ele>
        <time>2021-11-14T20:08:03.478Z</time>
      </trkpt>
      <trkpt lat="47.520916" lon="8.036204">
        <ele>465.462046</ele>
        <time>2021-11-14T20:08:40.505Z</time>
      </trkpt>
      <trkpt lat="47.521258" lon="8.036231">
        <ele>466.362425</ele>
        <time>2021-11-14T20:09:04.327Z</time>
      </trkpt>
      <trkpt lat="47.521381" lon="8.036270">
        <ele>466.630401</ele>
        <time>2021-11-14T20:09:13.095Z</time>
      </trkpt>
      <trkpt lat="47.521466" lon="8.036296">
        <ele>466.815306</ele>
        <time>2021-11-14T20:09:19.110Z</time>
      </trkpt>
      <trkpt lat="47.521951" lon="8.036491">
        <ele>467.885947</ele>
        <time>2021-11-14T20:09:54.090Z</time>
      </trkpt>
      <trkpt lat="47.522589" lon="8.036591">
        <ele>469.252719</ele>
        <time>2021-11-14T20:10:38.649Z</time>
      </trkpt>
      <trkpt lat="47.522729" lon="8.036577">
        <ele>469.551651</ele>
        <time>2021-11-14T20:10:48.419Z</time>
      </trkpt>
      <trkpt lat="47.522908" lon="8.036517">
        <ele>469.191551</ele>
        <time>2021-11-14T20:11:01.152Z</time>
      </trkpt>
      <trkpt lat="47.523897" lon="8.036063">
        <ele>467.141659</ele>
        <time>2021-11-14T20:12:13.183Z</time>
      </trkpt>
      <trkpt lat="47.524622" lon="8.035732">
        <ele>466.104553</ele>
        <time>2021-11-14T20:13:05.887Z</time>
      </trkpt>
      <trkpt lat="47.524948" lon="8.035593">
        <ele>466.317940</ele>
        <time>2021-11-14T20:13:29.456Z</time>
      </trkpt>
      <trkpt lat="47.525143" lon="8.035534">
        <ele>466.443131</ele>
        <time>2021-11-14T20:13:43.279Z</time>
      </trkpt>
      <trkpt lat="47.525199" lon="8.035517">
        <ele>466.479088</ele>
        <time>2021-11-14T20:13:47.258Z</time>
      </trkpt>
      <trkpt lat="47.525448" lon="8.035439">
        <ele>466.639178</ele>
        <time>2021-11-14T20:14:04.958Z</time>
      </trkpt>
      <trkpt lat="47.526022" lon="8.035374">
        <ele>467.001284</ele>
        <time>2021-11-14T20:14:44.937Z</time>
      </trkpt>
      <trkpt lat="47.526771" lon="8.035396">
        <ele>466.473099</ele>
        <time>2021-11-14T20:15:37.007Z</time>
      </trkpt>
      <trkpt lat="47.527673" lon="8.035416">
        <ele>465.414107</ele>
        <time>2021-11-14T20:16:39.741Z</time>
      </trkpt>
      <trkpt lat="47.527719" lon="8.035419">
        <ele>465.360055</ele>
        <time>2021-11-14T20:16:42.955Z</time>
      </trkpt>
      <trkpt lat="47.528252" lon="8.035425">
        <ele>464.065985</ele>
        <time>2021-11-14T20:17:20.000Z</time>
      </trkpt>
      <trkpt lat="47.528330" lon="8.035426">
        <ele>463.754297</ele>
        <time>2021-11-14T20:17:25.418Z</time>
      </trkpt>
      <trkpt lat="47.528499" lon="8.035463">
        <ele>463.071659</ele>
        <time>2021-11-14T20:17:37.290Z</time>
      </trkpt>
      <trkpt lat="47.528632" lon="8.035511">
        <ele>462.524658</ele>
        <time>2021-11-14T20:17:46.827Z</time>
      </trkpt>
      <trkpt lat="47.528685" lon="8.035551">
        <ele>462.286965</ele>
        <time>2021-11-14T20:17:51.021Z</time>
      </trkpt>
      <trkpt lat="47.529415" lon="8.036548">
        <ele>458.319010</ele>
        <time>2021-11-14T20:19:00.068Z</time>
      </trkpt>
      <trkpt lat="47.529594" lon="8.036716">
        <ele>457.635257</ele>
        <time>2021-11-14T20:19:14.820Z</time>
      </trkpt>
      <trkpt lat="47.529857" lon="8.036835">
        <ele>457.043854</ele>
        <time>2021-11-14T20:19:33.898Z</time>
      </trkpt>
      <trkpt lat="47.529967" lon="8.036849">
        <ele>456.806422</ele>
        <time>2021-11-14T20:19:41.633Z</time>
      </trkpt>
      <trkpt lat="47.530078" lon="8.036829">
        <ele>456.565950</ele>
        <time>2021-11-14T20:19:49.392Z</time>
      </trkpt>
      <trkpt lat="47.530189" lon="8.036784">
        <ele>456.318457</ele>
        <time>2021-11-14T20:19:57.371Z</time>
      </trkpt>
      <trkpt lat="47.530326" lon="8.036693">
        <ele>455.995557</ele>
        <time>2021-11-14T20:20:07.827Z</time>
      </trkpt>
      <trkpt lat="47.530555" lon="8.036505">
        <ele>455.432481</ele>
        <time>2021-11-14T20:20:26.023Z</time>
      </trkpt>
      <trkpt lat="47.531129" lon="8.036010">
        <ele>454.004055</ele>
        <time>2021-11-14T20:21:12.173Z</time>
      </trkpt>
      <trkpt lat="47.531850" lon="8.035386">
        <ele>448.853783</ele>
        <time>2021-11-14T20:22:10.264Z</time>
      </trkpt>
      <trkpt lat="47.532372" lon="8.034956">
        <ele>445.105635</ele>
        <time>2021-11-14T20:22:51.856Z</time>
      </trkpt>
      <trkpt lat="47.532563" lon="8.034738">
        <ele>443.592501</ele>
        <time>2021-11-14T20:23:08.682Z</time>
      </trkpt>
      <trkpt lat="47.532695" lon="8.034506">
        <ele>442.085853</ele>
        <time>2021-11-14T20:23:22.979Z</time>
      </trkpt>
      <trkpt lat="47.533121" lon="8.033377">
        <ele>433.270301</ele>
        <time>2021-11-14T20:24:23.927Z</time>
      </trkpt>
      <trkpt lat="47.533213" lon="8.033283">
        <ele>432.141969</ele>
        <time>2021-11-14T20:24:31.698Z</time>
      </trkpt>
      <trkpt lat="47.533431" lon="8.033320">
        <ele>429.926769</ele>
        <time>2021-11-14T20:24:47.022Z</time>
      </trkpt>
      <trkpt lat="47.533544" lon="8.033538">
        <ele>428.053472</ele>
        <time>2021-11-14T20:24:59.969Z</time>
      </trkpt>
      <trkpt lat="47.533693" lon="8.034653">
        <ele>420.475998</ele>
        <time>2021-11-14T20:25:53.485Z</time>
      </trkpt>
      <trkpt lat="47.533861" lon="8.035378">
        <ele>415.462356</ele>
        <time>2021-11-14T20:26:29.567Z</time>
      </trkpt>
      <trkpt lat="47.533990" lon="8.035683">
        <ele>413.108278</ele>
        <time>2021-11-14T20:26:46.541Z</time>
      </trkpt>
      <trkpt lat="47.534197" lon="8.036173">
        <ele>409.327589</ele>
        <time>2021-11-14T20:27:13.752Z</time>
      </trkpt>
      <trkpt lat="47.534438" lon="8.036566">
        <ele>405.800640</ele>
        <time>2021-11-14T20:27:38.766Z</time>
      </trkpt>
      <trkpt lat="47.534824" lon="8.037044">
        <ele>400.711294</ele>
        <time>2021-11-14T20:28:13.903Z</time>
      </trkpt>
      <trkpt lat="47.535234" lon="8.037415">
        <ele>395.851334</ele>
        <time>2021-11-14T20:28:47.455Z</time>
      </trkpt>
      <trkpt lat="47.535392" lon="8.037553">
        <ele>393.995945</ele>
        <time>2021-11-14T20:29:00.237Z</time>
      </trkpt>
      <trkpt lat="47.535422" lon="8.037579">
        <ele>393.644357</ele>
        <time>2021-11-14T20:29:00.535Z</time>
      </trkpt>
      <trkpt lat="47.535603" lon="8.037763">
        <ele>391.423762</ele>
        <time>2021-11-14T20:29:02.437Z</time>
      </trkpt>
      <trkpt lat="47.535873" lon="8.038069">
        <ele>387.951664</ele>
        <time>2021-11-14T20:29:05.358Z</time>
      </trkpt>
      <trkpt lat="47.537246" lon="8.039781">
        <ele>369.075514</ele>
        <time>2021-11-14T20:29:20.758Z</time>
      </trkpt>
      <trkpt lat="47.537321" lon="8.039892">
        <ele>367.891460</ele>
        <time>2021-11-14T20:29:21.651Z</time>
      </trkpt>
      <trkpt lat="47.537434" lon="8.040115">
        <ele>365.789195</ele>
        <time>2021-11-14T20:29:23.246Z</time>
      </trkpt>
      <trkpt lat="47.537590" lon="8.040865">
        <ele>359.872175</ele>
        <time>2021-11-14T20:29:27.722Z</time>
      </trkpt>
      <trkpt lat="47.537697" lon="8.041635">
        <ele>353.944971</ele>
        <time>2021-11-14T20:29:32.198Z</time>
      </trkpt>
      <trkpt lat="47.537748" lon="8.041977">
        <ele>351.304274</ele>
        <time>2021-11-14T20:29:34.227Z</time>
      </trkpt>
      <trkpt lat="47.537814" lon="8.042475">
        <ele>348.687961</ele>
        <time>2021-11-14T20:29:37.205Z</time>
      </trkpt>
      <trkpt lat="47.537820" lon="8.042654">
        <ele>347.998756</ele>
        <time>2021-11-14T20:29:38.253Z</time>
      </trkpt>
      <trkpt lat="47.537814" lon="8.042851">
        <ele>347.240409</ele>
        <time>2021-11-14T20:29:39.495Z</time>
      </trkpt>
      <trkpt lat="47.537774" lon="8.043160">
        <ele>346.030479</ele>
        <time>2021-11-14T20:29:41.377Z</time>
      </trkpt>
      <trkpt lat="47.537732" lon="8.043404">
        <ele>345.062140</ele>
        <time>2021-11-14T20:29:42.969Z</time>
      </trkpt>
      <trkpt lat="47.537487" lon="8.044776">
        <ele>339.670342</ele>
        <time>2021-11-14T20:29:52.294Z</time>
      </trkpt>
      <trkpt lat="47.537460" lon="8.044932">
        <ele>339.468636</ele>
        <time>2021-11-14T20:29:53.678Z</time>
      </trkpt>
      <trkpt lat="47.537686" lon="8.045112">
        <ele>338.992585</ele>
        <time>2021-11-14T20:29:56.629Z</time>
      </trkpt>
      <trkpt lat="47.538203" lon="8.045387">
        <ele>337.973461</ele>
        <time>2021-11-14T20:30:03.244Z</time>
      </trkpt>
      <trkpt lat="47.538294" lon="8.045418">
        <ele>337.800228</ele>
        <time>2021-11-14T20:30:04.261Z</time>
      </trkpt>
      <trkpt lat="47.538340" lon="8.045430">
        <ele>337.713574</ele>
        <time>2021-11-14T20:30:04.834Z</time>
      </trkpt>
      <trkpt lat="47.538479" lon="8.045444">
        <ele>337.455100</ele>
        <time>2021-11-14T20:30:06.539Z</time>
      </trkpt>
      <trkpt lat="47.538763" lon="8.045382">
        <ele>336.922522</ele>
        <time>2021-11-14T20:30:09.798Z</time>
      </trkpt>
      <trkpt lat="47.538912" lon="8.045281">
        <ele>336.618524</ele>
        <time>2021-11-14T20:30:11.664Z</time>
      </trkpt>
      <trkpt lat="47.538984" lon="8.045208">
        <ele>336.456653</ele>
        <time>2021-11-14T20:30:12.597Z</time>
      </trkpt>
      <trkpt lat="47.539049" lon="8.045146">
        <ele>336.338002</ele>
        <time>2021-11-14T20:30:13.497Z</time>
      </trkpt>
      <trkpt lat="47.539168" lon="8.044994">
        <ele>336.185413</ele>
        <time>2021-11-14T20:30:15.122Z</time>
      </trkpt>
      <trkpt lat="47.539357" lon="8.044726">
        <ele>335.931340</ele>
        <time>2021-11-14T20:30:17.911Z</time>
      </trkpt>
      <trkpt lat="47.539485" lon="8.044571">
        <ele>335.770793</ele>
        <time>2021-11-14T20:30:19.655Z</time>
      </trkpt>
      <trkpt lat="47.539769" lon="8.044372">
        <ele>335.465705</ele>
        <time>2021-11-14T20:30:22.994Z</time>
      </trkpt>
      <trkpt lat="47.540105" lon="8.044383">
        <ele>335.139339</ele>
        <time>2021-11-14T20:30:26.872Z</time>
      </trkpt>
      <trkpt lat="47.540316" lon="8.044416">
        <ele>334.933301</ele>
        <time>2021-11-14T20:30:29.937Z</time>
      </trkpt>
      <trkpt lat="47.540345" lon="8.044329">
        <ele>334.869694</ele>
        <time>2021-11-14T20:30:30.811Z</time>
      </trkpt>
      <trkpt lat="47.540360" lon="8.044061">
        <ele>334.693402</ele>
        <time>2021-11-14T20:30:34.109Z</time>
      </trkpt>
      <trkpt lat="47.540394" lon="8.043626">
        <ele>334.921854</ele>
        <time>2021-11-14T20:30:41.311Z</time>
      </trkpt>
      <trkpt lat="47.540392" lon="8.043542">
        <ele>335.000589</ele>
        <time>2021-11-14T20:30:42.961Z</time>
      </trkpt>
      <trkpt lat="47.540358" lon="8.043349">
        <ele>335.187434</ele>
        <time>2021-11-14T20:30:47.196Z</time>
      </trkpt>
      <trkpt lat="47.540311" lon="8.043099">
        <ele>335.430531</ele>
        <time>2021-11-14T20:30:51.264Z</time>
      </trkpt>
      <trkpt lat="47.540230" lon="8.042774">
        <ele>335.755057</ele>
        <time>2021-11-14T20:30:57.473Z</time>
      </trkpt>
      <trkpt lat="47.540115" lon="8.042499">
        <ele>336.058083</ele>
        <time>2021-11-14T20:31:02.254Z</time>
      </trkpt>
      <trkpt lat="47.540094" lon="8.042446">
        <ele>336.115651</ele>
        <time>2021-11-14T20:31:03.610Z</time>
      </trkpt>
      <trkpt lat="47.540072" lon="8.042391">
        <ele>336.175537</ele>
        <time>2021-11-14T20:31:04.663Z</time>
      </trkpt>
      <trkpt lat="47.540034" lon="8.042303">
        <ele>336.273392</ele>
        <time>2021-11-14T20:31:07.666Z</time>
      </trkpt>
      <trkpt lat="47.540021" lon="8.042268">
        <ele>336.310813</ele>
        <time>2021-11-14T20:31:08.835Z</time>
      </trkpt>
      <trkpt lat="47.539991" lon="8.042065">
        <ele>336.505476</ele>
        <time>2021-11-14T20:31:14.153Z</time>
      </trkpt>
      <trkpt lat="47.539983" lon="8.041866">
        <ele>336.692219</ele>
        <time>2021-11-14T20:31:19.621Z</time>
      </trkpt>
      <trkpt lat="47.539998" lon="8.041644">
        <ele>336.901216</ele>
        <time>2021-11-14T20:31:22.427Z</time>
      </trkpt>
      <trkpt lat="47.540031" lon="8.041477">
        <ele>337.064216</ele>
        <time>2021-11-14T20:31:24.840Z</time>
      </trkpt>
      <trkpt lat="47.540079" lon="8.041350">
        <ele>336.954556</ele>
        <time>2021-11-14T20:31:26.692Z</time>
      </trkpt>
      <trkpt lat="47.540116" lon="8.041253">
        <ele>336.760922</ele>
        <time>2021-11-14T20:31:27.774Z</time>
      </trkpt>
      <trkpt lat="47.540240" lon="8.040995">
        <ele>336.210495</ele>
        <time>2021-11-14T20:31:30.675Z</time>
      </trkpt>
      <trkpt lat="47.540564" lon="8.040358">
        <ele>334.824348</ele>
        <time>2021-11-14T20:31:36.839Z</time>
      </trkpt>
      <trkpt lat="47.540612" lon="8.040244">
        <ele>334.590842</ele>
        <time>2021-11-14T20:31:37.878Z</time>
      </trkpt>
      <trkpt lat="47.540755" lon="8.039911">
        <ele>333.904933</ele>
        <time>2021-11-14T20:31:40.484Z</time>
      </trkpt>
      <trkpt lat="47.540973" lon="8.039326">
        <ele>332.743615</ele>
        <time>2021-11-14T20:31:44.754Z</time>
      </trkpt>
      <trkpt lat="47.541029" lon="8.038776">
        <ele>331.841868</ele>
        <time>2021-11-14T20:31:48.242Z</time>
      </trkpt>
      <trkpt lat="47.541015" lon="8.038511">
        <ele>331.422340</ele>
        <time>2021-11-14T20:31:49.876Z</time>
      </trkpt>
      <trkpt lat="47.541006" lon="8.038351">
        <ele>331.168937</ele>
        <time>2021-11-14T20:31:50.929Z</time>
      </trkpt>
      <trkpt lat="47.540394" lon="8.031575">
        <ele>321.663973</ele>
        <time>2021-11-14T20:32:42.749Z</time>
      </trkpt>
      <trkpt lat="47.540324" lon="8.030594">
        <ele>321.142646</ele>
        <time>2021-11-14T20:32:51.303Z</time>
      </trkpt>
      <trkpt lat="47.540275" lon="8.029790">
        <ele>320.913509</ele>
        <time>2021-11-14T20:32:58.639Z</time>
      </trkpt>
      <trkpt lat="47.540273" lon="8.028579">
        <ele>320.576879</ele>
        <time>2021-11-14T20:33:10.333Z</time>
      </trkpt>
      <trkpt lat="47.540306" lon="8.026756">
        <ele>320.837059</ele>
        <time>2021-11-14T20:33:28.984Z</time>
      </trkpt>
      <trkpt lat="47.540408" lon="8.025334">
        <ele>321.674349</ele>
        <time>2021-11-14T20:33:45.053Z</time>
      </trkpt>
      <trkpt lat="47.540490" lon="8.024315">
        <ele>322.893256</ele>
        <time>2021-11-14T20:33:58.835Z</time>
      </trkpt>
      <trkpt lat="47.540537" lon="8.023536">
        <ele>323.822216</ele>
        <time>2021-11-14T20:34:11.600Z</time>
      </trkpt>
      <trkpt lat="47.540454" lon="8.023022">
        <ele>325.180697</ele>
        <time>2021-11-14T20:34:21.501Z</time>
      </trkpt>
      <trkpt lat="47.540354" lon="8.022332">
        <ele>327.871451</ele>
        <time>2021-11-14T20:34:37.288Z</time>
      </trkpt>
      <trkpt lat="47.540204" lon="8.020975">
        <ele>333.114293</ele>
        <time>2021-11-14T20:35:14.811Z</time>
      </trkpt>
      <trkpt lat="47.540134" lon="8.020585">
        <ele>334.739886</ele>
        <time>2021-11-14T20:35:27.154Z</time>
      </trkpt>
      <trkpt lat="47.540098" lon="8.020321">
        <ele>336.004901</ele>
        <time>2021-11-14T20:35:35.937Z</time>
      </trkpt>
      <trkpt lat="47.540052" lon="8.019825">
        <ele>338.356426</ele>
        <time>2021-11-14T20:35:51.532Z</time>
      </trkpt>
      <trkpt lat="47.540031" lon="8.019456">
        <ele>340.095717</ele>
        <time>2021-11-14T20:36:02.787Z</time>
      </trkpt>
      <trkpt lat="47.540012" lon="8.018657">
        <ele>343.850842</ele>
        <time>2021-11-14T20:36:26.661Z</time>
      </trkpt>
      <trkpt lat="47.539979" lon="8.017566">
        <ele>347.770219</ele>
        <time>2021-11-14T20:36:55.936Z</time>
      </trkpt>
      <trkpt lat="47.539918" lon="8.015722">
        <ele>351.646346</ele>
        <time>2021-11-14T20:37:28.677Z</time>
      </trkpt>
      <trkpt lat="47.539908" lon="8.015397">
        <ele>352.329393</ele>
        <time>2021-11-14T20:37:33.330Z</time>
      </trkpt>
      <trkpt lat="47.539903" lon="8.015200">
        <ele>352.334119</ele>
        <time>2021-11-14T20:37:35.072Z</time>
      </trkpt>
      <trkpt lat="47.539798" lon="8.012369">
        <ele>351.296869</ele>
        <time>2021-11-14T20:37:59.374Z</time>
      </trkpt>
      <trkpt lat="47.539703" lon="8.011107">
        <ele>350.262343</ele>
        <time>2021-11-14T20:38:09.066Z</time>
      </trkpt>
      <trkpt lat="47.539645" lon="8.009866">
        <ele>349.387387</ele>
        <time>2021-11-14T20:38:19.017Z</time>
      </trkpt>
      <trkpt lat="47.539569" lon="8.007914">
        <ele>349.215545</ele>
        <time>2021-11-14T20:38:37.466Z</time>
      </trkpt>
      <trkpt lat="47.539590" lon="8.005890">
        <ele>349.301054</ele>
        <time>2021-11-14T20:39:03.065Z</time>
      </trkpt>
      <trkpt lat="47.539492" lon="8.004516">
        <ele>348.780244</ele>
        <time>2021-11-14T20:39:16.240Z</time>
      </trkpt>
      <trkpt lat="47.539434" lon="8.003156">
        <ele>344.981732</ele>
        <time>2021-11-14T20:39:25.388Z</time>
      </trkpt>
      <trkpt lat="47.539437" lon="8.002963">
        <ele>344.443608</ele>
        <time>2021-11-14T20:39:26.610Z</time>
      </trkpt>
      <trkpt lat="47.539437" lon="8.002525">
        <ele>343.222697</ele>
        <time>2021-11-14T20:39:29.348Z</time>
      </trkpt>
      <trkpt lat="47.539400" lon="8.001871">
        <ele>340.941940</ele>
        <time>2021-11-14T20:39:33.355Z</time>
      </trkpt>
      <trkpt lat="47.539365" lon="8.001150">
        <ele>337.363993</ele>
        <time>2021-11-14T20:39:37.696Z</time>
      </trkpt>
      <trkpt lat="47.539569" lon="7.998315">
        <ele>324.341044</ele>
        <time>2021-11-14T20:39:54.821Z</time>
      </trkpt>
      <trkpt lat="47.539590" lon="7.998122">
        <ele>323.563774</ele>
        <time>2021-11-14T20:39:56.006Z</time>
      </trkpt>
      <trkpt lat="47.539726" lon="7.997265">
        <ele>320.063473</ele>
        <time>2021-11-14T20:40:01.655Z</time>
      </trkpt>
      <trkpt lat="47.539838" lon="7.996117">
        <ele>317.156954</ele>
        <time>2021-11-14T20:40:09.310Z</time>
      </trkpt>
      <trkpt lat="47.539876" lon="7.995796">
        <ele>316.666902</ele>
        <time>2021-11-14T20:40:11.587Z</time>
      </trkpt>
      <trkpt lat="47.540013" lon="7.995140">
        <ele>315.634355</ele>
        <time>2021-11-14T20:40:16.928Z</time>
      </trkpt>
      <trkpt lat="47.540089" lon="7.994896">
        <ele>315.230284</ele>
        <time>2021-11-14T20:40:18.972Z</time>
      </trkpt>
      <trkpt lat="47.540316" lon="7.993620">
        <ele>313.988025</ele>
        <time>2021-11-14T20:40:29.884Z</time>
      </trkpt>
      <trkpt lat="47.540262" lon="7.992244">
        <ele>313.548367</ele>
        <time>2021-11-14T20:40:42.109Z</time>
      </trkpt>
      <trkpt lat="47.540194" lon="7.991768">
        <ele>313.393169</ele>
        <time>2021-11-14T20:40:47.064Z</time>
      </trkpt>
      <trkpt lat="47.540140" lon="7.991504">
        <ele>313.369670</ele>
        <time>2021-11-14T20:40:49.956Z</time>
      </trkpt>
      <trkpt lat="47.540104" lon="7.991287">
        <ele>313.438826</ele>
        <time>2021-11-14T20:41:06.936Z</time>
      </trkpt>
      <trkpt lat="47.540056" lon="7.990982">
        <ele>313.535750</ele>
        <time>2021-11-14T20:41:10.369Z</time>
      </trkpt>
      <trkpt lat="47.540018" lon="7.990553">
        <ele>313.669657</ele>
        <time>2021-11-14T20:41:15.197Z</time>
      </trkpt>
      <trkpt lat="47.540011" lon="7.990131">
        <ele>313.800299</ele>
        <time>2021-11-14T20:41:20.038Z</time>
      </trkpt>
      <trkpt lat="47.539990" lon="7.989097">
        <ele>314.120450</ele>
        <time>2021-11-14T20:41:32.046Z</time>
      </trkpt>
      <trkpt lat="47.539978" lon="7.988189">
        <ele>314.359184</ele>
        <time>2021-11-14T20:41:42.868Z</time>
      </trkpt>
      <trkpt lat="47.540321" lon="7.987087">
        <ele>314.668229</ele>
        <time>2021-11-14T20:41:56.154Z</time>
      </trkpt>
      <trkpt lat="47.540335" lon="7.986933">
        <ele>314.707803</ele>
        <time>2021-11-14T20:41:58.035Z</time>
      </trkpt>
      <trkpt lat="47.540347" lon="7.986737">
        <ele>314.757924</ele>
        <time>2021-11-14T20:42:00.156Z</time>
      </trkpt>
      <trkpt lat="47.540347" lon="7.986737">
        <ele>314.757924</ele>
        <time>2021-11-14T20:42:00.165Z</time>
      </trkpt>
      <trkpt lat="47.539952" lon="7.986630">
        <ele>314.907524</ele>
        <time>2021-11-14T20:42:06.411Z</time>
      </trkpt>
      <trkpt lat="47.539549" lon="7.986535">
        <ele>315.057224</ele>
        <time>2021-11-14T20:42:11.964Z</time>
      </trkpt>
      <trkpt lat="47.539415" lon="7.986507">
        <ele>315.106869</ele>
        <time>2021-11-14T20:42:13.912Z</time>
      </trkpt>
      <trkpt lat="47.539274" lon="7.986488">
        <ele>315.158808</ele>
        <time>2021-11-14T20:42:15.624Z</time>
      </trkpt>
      <trkpt lat="47.538630" lon="7.986438">
        <ele>315.395383</ele>
        <time>2021-11-14T20:42:26.717Z</time>
      </trkpt>
      <trkpt lat="47.538514" lon="7.986428">
        <ele>315.438009</ele>
        <time>2021-11-14T20:42:28.358Z</time>
      </trkpt>
      <trkpt lat="47.538277" lon="7.986431">
        <ele>315.620009</ele>
        <time>2021-11-14T20:42:33.681Z</time>
      </trkpt>
      <trkpt lat="47.537897" lon="7.986428">
        <ele>316.309431</ele>
        <time>2021-11-14T20:42:41.739Z</time>
      </trkpt>
      <trkpt lat="47.537821" lon="7.986433">
        <ele>316.447450</ele>
        <time>2021-11-14T20:42:42.758Z</time>
      </trkpt>
      <trkpt lat="47.537815" lon="7.986191">
        <ele>316.744051</ele>
        <time>2021-11-14T20:42:46.696Z</time>
      </trkpt>
      <trkpt lat="47.537812" lon="7.986127">
        <ele>316.822627</ele>
        <time>2021-11-14T20:42:48.219Z</time>
      </trkpt>
      <trkpt lat="47.537884" lon="7.985939">
        <ele>317.087361</ele>
        <time>2021-11-14T20:42:50.415Z</time>
      </trkpt>
      <trkpt lat="47.537925" lon="7.985895">
        <ele>317.179215</ele>
        <time>2021-11-14T20:42:51.869Z</time>
      </trkpt>
      <trkpt lat="47.538208" lon="7.985592">
        <ele>317.812726</ele>
        <time>2021-11-14T20:42:59.348Z</time>
      </trkpt>
      <trkpt lat="47.538160" lon="7.985490">
        <ele>317.965011</ele>
        <time>2021-11-14T20:43:01.410Z</time>
      </trkpt>
      <trkpt lat="47.537773" lon="7.984992">
        <ele>318.971971</ele>
        <time>2021-11-14T20:43:13.981Z</time>
      </trkpt>
      <trkpt lat="47.537732" lon="7.984941">
        <ele>319.126117</ele>
        <time>2021-11-14T20:43:14.924Z</time>
      </trkpt>
      <trkpt lat="47.537175" lon="7.984220">
        <ele>321.255843</ele>
        <time>2021-11-14T20:43:34.665Z</time>
      </trkpt>
      <trkpt lat="47.536849" lon="7.983808">
        <ele>322.489644</ele>
        <time>2021-11-14T20:43:45.147Z</time>
      </trkpt>
      <trkpt lat="47.536410" lon="7.983244">
        <ele>324.211235</ele>
        <time>2021-11-14T20:44:01.639Z</time>
      </trkpt>
      <trkpt lat="47.536530" lon="7.982859">
        <ele>325.216891</ele>
        <time>2021-11-14T20:44:10.008Z</time>
      </trkpt>
      <trkpt lat="47.536764" lon="7.982225">
        <ele>326.930468</ele>
        <time>2021-11-14T20:44:25.149Z</time>
      </trkpt>
      <trkpt lat="47.536775" lon="7.982096">
        <ele>327.238826</ele>
        <time>2021-11-14T20:44:27.745Z</time>
      </trkpt>
      <trkpt lat="47.536842" lon="7.981878">
        <ele>327.806871</ele>
        <time>2021-11-14T20:44:32.834Z</time>
      </trkpt>
      <trkpt lat="47.536896" lon="7.981697">
        <ele>328.276163</ele>
        <time>2021-11-14T20:44:36.890Z</time>
      </trkpt>
      <trkpt lat="47.536959" lon="7.981602">
        <ele>328.591970</ele>
        <time>2021-11-14T20:44:39.371Z</time>
      </trkpt>
      <trkpt lat="47.537107" lon="7.981082">
        <ele>329.930270</ele>
        <time>2021-11-14T20:44:50.320Z</time>
      </trkpt>
      <trkpt lat="47.537461" lon="7.980118">
        <ele>330.962411</ele>
        <time>2021-11-14T20:45:08.873Z</time>
      </trkpt>
      <trkpt lat="47.537583" lon="7.979760">
        <ele>331.256113</ele>
        <time>2021-11-14T20:45:14.877Z</time>
      </trkpt>
      <trkpt lat="47.537955" lon="7.978125">
        <ele>331.787294</ele>
        <time>2021-11-14T20:45:31.220Z</time>
      </trkpt>
      <trkpt lat="47.538107" lon="7.977240">
        <ele>330.864224</ele>
        <time>2021-11-14T20:45:38.125Z</time>
      </trkpt>
      <trkpt lat="47.538242" lon="7.976347">
        <ele>329.939211</ele>
        <time>2021-11-14T20:45:45.002Z</time>
      </trkpt>
      <trkpt lat="47.538706" lon="7.974459">
        <ele>327.248643</ele>
        <time>2021-11-14T20:45:59.932Z</time>
      </trkpt>
      <trkpt lat="47.539262" lon="7.971768">
        <ele>322.922820</ele>
        <time>2021-11-14T20:46:20.275Z</time>
      </trkpt>
      <trkpt lat="47.539783" lon="7.969587">
        <ele>319.493278</ele>
        <time>2021-11-14T20:46:36.756Z</time>
      </trkpt>
      <trkpt lat="47.540214" lon="7.967628">
        <ele>317.136402</ele>
        <time>2021-11-14T20:46:52.555Z</time>
      </trkpt>
      <trkpt lat="47.540896" lon="7.964711">
        <ele>315.094122</ele>
        <time>2021-11-14T20:47:18.661Z</time>
      </trkpt>
      <trkpt lat="47.541095" lon="7.964204">
        <ele>314.768252</ele>
        <time>2021-11-14T20:47:23.697Z</time>
      </trkpt>
      <trkpt lat="47.541169" lon="7.964123">
        <ele>314.692518</ele>
        <time>2021-11-14T20:47:24.656Z</time>
      </trkpt>
      <trkpt lat="47.541129" lon="7.964008">
        <ele>314.620636</ele>
        <time>2021-11-14T20:47:26.099Z</time>
      </trkpt>
      <trkpt lat="47.541019" lon="7.963815">
        <ele>314.480287</ele>
        <time>2021-11-14T20:47:28.448Z</time>
      </trkpt>
      <trkpt lat="47.541123" lon="7.963520">
        <ele>314.295365</ele>
        <time>2021-11-14T20:47:31.182Z</time>
      </trkpt>
      <trkpt lat="47.541217" lon="7.963187">
        <ele>313.943740</ele>
        <time>2021-11-14T20:47:34.084Z</time>
      </trkpt>
      <trkpt lat="47.541258" lon="7.962975">
        <ele>313.724721</ele>
        <time>2021-11-14T20:47:36.479Z</time>
      </trkpt>
      <trkpt lat="47.541293" lon="7.962730">
        <ele>313.476010</ele>
        <time>2021-11-14T20:47:38.463Z</time>
      </trkpt>
      <trkpt lat="47.541308" lon="7.962513">
        <ele>313.259369</ele>
        <time>2021-11-14T20:47:40.487Z</time>
      </trkpt>
      <trkpt lat="47.541314" lon="7.962377">
        <ele>313.124013</ele>
        <time>2021-11-14T20:47:41.840Z</time>
      </trkpt>
      <trkpt lat="47.541316" lon="7.962197">
        <ele>312.945221</ele>
        <time>2021-11-14T20:47:43.185Z</time>
      </trkpt>
      <trkpt lat="47.541242" lon="7.961294">
        <ele>312.041821</ele>
        <time>2021-11-14T20:47:50.208Z</time>
      </trkpt>
      <trkpt lat="47.541153" lon="7.960814">
        <ele>311.422635</ele>
        <time>2021-11-14T20:47:53.738Z</time>
      </trkpt>
      <trkpt lat="47.541060" lon="7.960321">
        <ele>310.232250</ele>
        <time>2021-11-14T20:47:57.328Z</time>
      </trkpt>
      <trkpt lat="47.541027" lon="7.959944">
        <ele>309.348201</ele>
        <time>2021-11-14T20:47:59.831Z</time>
      </trkpt>
      <trkpt lat="47.541019" lon="7.959792">
        <ele>308.993654</ele>
        <time>2021-11-14T20:48:00.876Z</time>
      </trkpt>
      <trkpt lat="47.541012" lon="7.959578">
        <ele>308.495416</ele>
        <time>2021-11-14T20:48:02.350Z</time>
      </trkpt>
      <trkpt lat="47.541016" lon="7.959388">
        <ele>308.053358</ele>
        <time>2021-11-14T20:48:03.553Z</time>
      </trkpt>
      <trkpt lat="47.541081" lon="7.958828">
        <ele>306.731975</ele>
        <time>2021-11-14T20:48:07.322Z</time>
      </trkpt>
      <trkpt lat="47.541226" lon="7.958150">
        <ele>305.166321</ele>
        <time>2021-11-14T20:48:12.083Z</time>
      </trkpt>
      <trkpt lat="47.541305" lon="7.957787">
        <ele>304.493042</ele>
        <time>2021-11-14T20:48:14.567Z</time>
      </trkpt>
      <trkpt lat="47.541355" lon="7.957559">
        <ele>304.069850</ele>
        <time>2021-11-14T20:48:16.268Z</time>
      </trkpt>
      <trkpt lat="47.541450" lon="7.956897">
        <ele>302.875115</ele>
        <time>2021-11-14T20:48:20.902Z</time>
      </trkpt>
      <trkpt lat="47.541464" lon="7.956698">
        <ele>302.521920</ele>
        <time>2021-11-14T20:48:22.308Z</time>
      </trkpt>
      <trkpt lat="47.541533" lon="7.955526">
        <ele>300.714281</ele>
        <time>2021-11-14T20:48:31.142Z</time>
      </trkpt>
      <trkpt lat="47.541554" lon="7.955311">
        <ele>300.679711</ele>
        <time>2021-11-14T20:48:33.180Z</time>
      </trkpt>
      <trkpt lat="47.541735" lon="7.953892">
        <ele>300.449904</ele>
        <time>2021-11-14T20:48:47.388Z</time>
      </trkpt>
      <trkpt lat="47.541773" lon="7.953695">
        <ele>300.417300</ele>
        <time>2021-11-14T20:48:49.636Z</time>
      </trkpt>
      <trkpt lat="47.541791" lon="7.953601">
        <ele>300.401751</ele>
        <time>2021-11-14T20:48:50.671Z</time>
      </trkpt>
      <trkpt lat="47.541991" lon="7.952667">
        <ele>300.396349</ele>
        <time>2021-11-14T20:49:01.527Z</time>
      </trkpt>
      <trkpt lat="47.542169" lon="7.951815">
        <ele>300.554812</ele>
        <time>2021-11-14T20:49:11.264Z</time>
      </trkpt>
      <trkpt lat="47.542192" lon="7.951713">
        <ele>300.573919</ele>
        <time>2021-11-14T20:49:12.527Z</time>
      </trkpt>
      <trkpt lat="47.542357" lon="7.951037">
        <ele>300.701637</ele>
        <time>2021-11-14T20:49:19.991Z</time>
      </trkpt>
      <trkpt lat="47.542444" lon="7.950687">
        <ele>300.767905</ele>
        <time>2021-11-14T20:49:23.822Z</time>
      </trkpt>
      <trkpt lat="47.542546" lon="7.950274">
        <ele>300.896125</ele>
        <time>2021-11-14T20:49:28.169Z</time>
      </trkpt>
      <trkpt lat="47.542554" lon="7.950231">
        <ele>300.911177</ele>
        <time>2021-11-14T20:49:28.656Z</time>
      </trkpt>
      <trkpt lat="47.542560" lon="7.950202">
        <ele>300.921413</ele>
        <time>2021-11-14T20:49:28.989Z</time>
      </trkpt>
      <trkpt lat="47.542609" lon="7.949914">
        <ele>301.021640</ele>
        <time>2021-11-14T20:49:31.988Z</time>
      </trkpt>
      <trkpt lat="47.542719" lon="7.949175">
        <ele>301.277013</ele>
        <time>2021-11-14T20:49:39.892Z</time>
      </trkpt>
      <trkpt lat="47.542826" lon="7.948298">
        <ele>301.577758</ele>
        <time>2021-11-14T20:49:50.834Z</time>
      </trkpt>
      <trkpt lat="47.542838" lon="7.948225">
        <ele>301.603112</ele>
        <time>2021-11-14T20:49:51.662Z</time>
      </trkpt>
      <trkpt lat="47.542875" lon="7.948001">
        <ele>301.680933</ele>
        <time>2021-11-14T20:49:54.545Z</time>
      </trkpt>
      <trkpt lat="47.542928" lon="7.947798">
        <ele>301.921666</ele>
        <time>2021-11-14T20:49:57.468Z</time>
      </trkpt>
      <trkpt lat="47.542957" lon="7.947651">
        <ele>302.106609</ele>
        <time>2021-11-14T20:49:59.176Z</time>
      </trkpt>
      <trkpt lat="47.543050" lon="7.947411">
        <ele>302.440790</ele>
        <time>2021-11-14T20:50:03.541Z</time>
      </trkpt>
      <trkpt lat="47.543087" lon="7.947317">
        <ele>302.572192</ele>
        <time>2021-11-14T20:50:04.822Z</time>
      </trkpt>
      <trkpt lat="47.543092" lon="7.947257">
        <ele>302.645198</ele>
        <time>2021-11-14T20:50:05.615Z</time>
      </trkpt>
      <trkpt lat="47.543097" lon="7.947186">
        <ele>302.731402</ele>
        <time>2021-11-14T20:50:06.468Z</time>
      </trkpt>
      <trkpt lat="47.543086" lon="7.947052">
        <ele>302.894412</ele>
        <time>2021-11-14T20:50:08.305Z</time>
      </trkpt>
      <trkpt lat="47.543056" lon="7.946935">
        <ele>303.045551</ele>
        <time>2021-11-14T20:50:10.679Z</time>
      </trkpt>
      <trkpt lat="47.543045" lon="7.946881">
        <ele>303.113665</ele>
        <time>2021-11-14T20:50:11.794Z</time>
      </trkpt>
      <trkpt lat="47.542982" lon="7.946547">
        <ele>303.532453</ele>
        <time>2021-11-14T20:50:16.410Z</time>
      </trkpt>
      <trkpt lat="47.542974" lon="7.946495">
        <ele>303.596858</ele>
        <time>2021-11-14T20:50:17.623Z</time>
      </trkpt>
      <trkpt lat="47.542960" lon="7.946400">
        <ele>303.714282</ele>
        <time>2021-11-14T20:50:19.460Z</time>
      </trkpt>
      <trkpt lat="47.542916" lon="7.945730">
        <ele>304.527193</ele>
        <time>2021-11-14T20:50:30.041Z</time>
      </trkpt>
      <trkpt lat="47.542913" lon="7.945267">
        <ele>305.020435</ele>
        <time>2021-11-14T20:50:37.523Z</time>
      </trkpt>
      <trkpt lat="47.542957" lon="7.944607">
        <ele>305.526752</ele>
        <time>2021-11-14T20:50:47.857Z</time>
      </trkpt>
      <trkpt lat="47.543007" lon="7.943867">
        <ele>306.094514</ele>
        <time>2021-11-14T20:50:58.262Z</time>
      </trkpt>
      <trkpt lat="47.543161" lon="7.942213">
        <ele>306.583796</ele>
        <time>2021-11-14T20:51:16.307Z</time>
      </trkpt>
      <trkpt lat="47.543435" lon="7.940670">
        <ele>305.565912</ele>
        <time>2021-11-14T20:51:29.222Z</time>
      </trkpt>
      <trkpt lat="47.543443" lon="7.940644">
        <ele>305.547683</ele>
        <time>2021-11-14T20:51:29.393Z</time>
      </trkpt>
      <trkpt lat="47.543826" lon="7.939433">
        <ele>304.257180</ele>
        <time>2021-11-14T20:51:39.656Z</time>
      </trkpt>
      <trkpt lat="47.544472" lon="7.937932">
        <ele>302.213443</ele>
        <time>2021-11-14T20:51:53.092Z</time>
      </trkpt>
      <trkpt lat="47.544705" lon="7.937395">
        <ele>301.488471</ele>
        <time>2021-11-14T20:51:57.965Z</time>
      </trkpt>
      <trkpt lat="47.544903" lon="7.936917">
        <ele>300.851875</ele>
        <time>2021-11-14T20:52:02.226Z</time>
      </trkpt>
      <trkpt lat="47.545074" lon="7.936484">
        <ele>300.282438</ele>
        <time>2021-11-14T20:52:06.057Z</time>
      </trkpt>
      <trkpt lat="47.545457" lon="7.935110">
        <ele>298.979901</ele>
        <time>2021-11-14T20:52:17.397Z</time>
      </trkpt>
      <trkpt lat="47.545674" lon="7.933625">
        <ele>298.434924</ele>
        <time>2021-11-14T20:52:30.530Z</time>
      </trkpt>
      <trkpt lat="47.545678" lon="7.933578">
        <ele>298.417933</ele>
        <time>2021-11-14T20:52:30.930Z</time>
      </trkpt>
      <trkpt lat="47.545702" lon="7.933290">
        <ele>298.313849</ele>
        <time>2021-11-14T20:52:34.148Z</time>
      </trkpt>
      <trkpt lat="47.545724" lon="7.932758">
        <ele>298.447304</ele>
        <time>2021-11-14T20:52:40.414Z</time>
      </trkpt>
      <trkpt lat="47.545721" lon="7.931992">
        <ele>299.297901</ele>
        <time>2021-11-14T20:52:50.363Z</time>
      </trkpt>
      <trkpt lat="47.545696" lon="7.931497">
        <ele>299.849096</ele>
        <time>2021-11-14T20:52:57.654Z</time>
      </trkpt>
      <trkpt lat="47.545661" lon="7.930955">
        <ele>300.453693</ele>
        <time>2021-11-14T20:53:06.354Z</time>
      </trkpt>
      <trkpt lat="47.545563" lon="7.929641">
        <ele>301.520834</ele>
        <time>2021-11-14T20:53:28.694Z</time>
      </trkpt>
      <trkpt lat="47.545475" lon="7.928419">
        <ele>302.166548</ele>
        <time>2021-11-14T20:53:44.997Z</time>
      </trkpt>
      <trkpt lat="47.545421" lon="7.927686">
        <ele>302.553973</ele>
        <time>2021-11-14T20:53:51.100Z</time>
      </trkpt>
      <trkpt lat="47.545406" lon="7.927306">
        <ele>301.820759</ele>
        <time>2021-11-14T20:53:54.004Z</time>
      </trkpt>
      <trkpt lat="47.545407" lon="7.927001">
        <ele>301.206474</ele>
        <time>2021-11-14T20:53:56.291Z</time>
      </trkpt>
      <trkpt lat="47.545409" lon="7.926773">
        <ele>300.747237</ele>
        <time>2021-11-14T20:53:57.920Z</time>
      </trkpt>
      <trkpt lat="47.545417" lon="7.925848">
        <ele>298.884109</ele>
        <time>2021-11-14T20:54:04.255Z</time>
      </trkpt>
      <trkpt lat="47.545446" lon="7.925350">
        <ele>297.877399</ele>
        <time>2021-11-14T20:54:07.547Z</time>
      </trkpt>
      <trkpt lat="47.545466" lon="7.924880">
        <ele>296.910322</ele>
        <time>2021-11-14T20:54:10.600Z</time>
      </trkpt>
      <trkpt lat="47.545481" lon="7.924396">
        <ele>295.866077</ele>
        <time>2021-11-14T20:54:13.684Z</time>
      </trkpt>
      <trkpt lat="47.545521" lon="7.923709">
        <ele>294.379915</ele>
        <time>2021-11-14T20:54:18.209Z</time>
      </trkpt>
      <trkpt lat="47.545536" lon="7.923407">
        <ele>293.727267</ele>
        <time>2021-11-14T20:54:20.357Z</time>
      </trkpt>
      <trkpt lat="47.545553" lon="7.923142">
        <ele>293.153550</ele>
        <time>2021-11-14T20:54:22.188Z</time>
      </trkpt>
      <trkpt lat="47.545587" lon="7.922895">
        <ele>292.610245</ele>
        <time>2021-11-14T20:54:24.121Z</time>
      </trkpt>
      <trkpt lat="47.545641" lon="7.922610">
        <ele>291.972256</ele>
        <time>2021-11-14T20:54:26.267Z</time>
      </trkpt>
      <trkpt lat="47.545690" lon="7.922369">
        <ele>291.445893</ele>
        <time>2021-11-14T20:54:28.274Z</time>
      </trkpt>
      <trkpt lat="47.545699" lon="7.922325">
        <ele>291.421150</ele>
        <time>2021-11-14T20:54:28.568Z</time>
      </trkpt>
      <trkpt lat="47.545714" lon="7.922249">
        <ele>291.378535</ele>
        <time>2021-11-14T20:54:29.158Z</time>
      </trkpt>
      <trkpt lat="47.545778" lon="7.921947">
        <ele>291.208180</ele>
        <time>2021-11-14T20:54:31.860Z</time>
      </trkpt>
      <trkpt lat="47.545810" lon="7.921755">
        <ele>291.101744</ele>
        <time>2021-11-14T20:54:33.341Z</time>
      </trkpt>
      <trkpt lat="47.545881" lon="7.921096">
        <ele>290.742589</ele>
        <time>2021-11-14T20:54:38.803Z</time>
      </trkpt>
      <trkpt lat="47.545913" lon="7.920765">
        <ele>290.562631</ele>
        <time>2021-11-14T20:54:41.696Z</time>
      </trkpt>
      <trkpt lat="47.545973" lon="7.920313">
        <ele>290.314712</ele>
        <time>2021-11-14T20:54:46.166Z</time>
      </trkpt>
      <trkpt lat="47.546128" lon="7.919617">
        <ele>289.966965</ele>
        <time>2021-11-14T20:54:53.407Z</time>
      </trkpt>
      <trkpt lat="47.546262" lon="7.919081">
        <ele>289.807579</ele>
        <time>2021-11-14T20:54:59.455Z</time>
      </trkpt>
      <trkpt lat="47.546821" lon="7.916867">
        <ele>289.155785</ele>
        <time>2021-11-14T20:55:20.123Z</time>
      </trkpt>
      <trkpt lat="47.547032" lon="7.916218">
        <ele>288.966665</ele>
        <time>2021-11-14T20:55:26.430Z</time>
      </trkpt>
      <trkpt lat="47.547091" lon="7.916039">
        <ele>288.914368</ele>
        <time>2021-11-14T20:55:28.204Z</time>
      </trkpt>
      <trkpt lat="47.547113" lon="7.915971">
        <ele>288.894570</ele>
        <time>2021-11-14T20:55:28.795Z</time>
      </trkpt>
      <trkpt lat="47.547423" lon="7.915080">
        <ele>288.631406</ele>
        <time>2021-11-14T20:55:38.282Z</time>
      </trkpt>
      <trkpt lat="47.547994" lon="7.913433">
        <ele>289.107750</ele>
        <time>2021-11-14T20:55:57.986Z</time>
      </trkpt>
      <trkpt lat="47.548027" lon="7.913334">
        <ele>289.143759</ele>
        <time>2021-11-14T20:55:59.345Z</time>
      </trkpt>
      <trkpt lat="47.548412" lon="7.912168">
        <ele>289.708830</ele>
        <time>2021-11-14T20:56:15.748Z</time>
      </trkpt>
      <trkpt lat="47.549012" lon="7.910340">
        <ele>291.132651</ele>
        <time>2021-11-14T20:56:41.829Z</time>
      </trkpt>
      <trkpt lat="47.549102" lon="7.910058">
        <ele>291.370184</ele>
        <time>2021-11-14T20:56:45.970Z</time>
      </trkpt>
      <trkpt lat="47.549136" lon="7.910092">
        <ele>291.432538</ele>
        <time>2021-11-14T20:56:46.819Z</time>
      </trkpt>
      <trkpt lat="47.549570" lon="7.908713">
        <ele>292.993633</ele>
        <time>2021-11-14T20:57:06.271Z</time>
      </trkpt>
      <trkpt lat="47.549520" lon="7.908678">
        <ele>293.077694</ele>
        <time>2021-11-14T20:57:07.725Z</time>
      </trkpt>
      <trkpt lat="47.549539" lon="7.908625">
        <ele>293.139265</ele>
        <time>2021-11-14T20:57:08.399Z</time>
      </trkpt>
      <trkpt lat="47.550497" lon="7.905558">
        <ele>298.376650</ele>
        <time>2021-11-14T20:58:03.843Z</time>
      </trkpt>
      <trkpt lat="47.550375" lon="7.905475">
        <ele>298.747443</ele>
        <time>2021-11-14T20:58:08.435Z</time>
      </trkpt>
      <trkpt lat="47.550283" lon="7.905413">
        <ele>299.129893</ele>
        <time>2021-11-14T20:58:12.010Z</time>
      </trkpt>
      <trkpt lat="47.550067" lon="7.905245">
        <ele>300.053016</ele>
        <time>2021-11-14T20:58:20.633Z</time>
      </trkpt>
      <trkpt lat="47.549867" lon="7.905155">
        <ele>300.843955</ele>
        <time>2021-11-14T20:58:28.324Z</time>
      </trkpt>
      <trkpt lat="47.549868" lon="7.905010">
        <ele>301.214306</ele>
        <time>2021-11-14T20:58:31.694Z</time>
      </trkpt>
      <trkpt lat="47.550025" lon="7.904774">
        <ele>302.060619</ele>
        <time>2021-11-14T20:58:39.881Z</time>
      </trkpt>
      <trkpt lat="47.550302" lon="7.904164">
        <ele>303.938338</ele>
        <time>2021-11-14T20:58:58.144Z</time>
      </trkpt>
      <trkpt lat="47.550498" lon="7.903445">
        <ele>305.908874</ele>
        <time>2021-11-14T20:59:17.752Z</time>
      </trkpt>
      <trkpt lat="47.550688" lon="7.902451">
        <ele>308.488746</ele>
        <time>2021-11-14T20:59:40.300Z</time>
      </trkpt>
      <trkpt lat="47.550757" lon="7.901591">
        <ele>310.651480</ele>
        <time>2021-11-14T21:00:00.096Z</time>
      </trkpt>
      <trkpt lat="47.550769" lon="7.901362">
        <ele>311.225064</ele>
        <time>2021-11-14T21:00:06.004Z</time>
      </trkpt>
      <trkpt lat="47.550801" lon="7.900244">
        <ele>314.285894</ele>
        <time>2021-11-14T21:00:30.401Z</time>
      </trkpt>
      <trkpt lat="47.550819" lon="7.898109">
        <ele>320.083474</ele>
        <time>2021-11-14T21:01:17.442Z</time>
      </trkpt>
      <trkpt lat="47.550648" lon="7.896481">
        <ele>322.711186</ele>
        <time>2021-11-14T21:01:45.097Z</time>
      </trkpt>
      <trkpt lat="47.550639" lon="7.896345">
        <ele>322.929129</ele>
        <time>2021-11-14T21:01:47.472Z</time>
      </trkpt>
      <trkpt lat="47.550660" lon="7.896255">
        <ele>323.081004</ele>
        <time>2021-11-14T21:01:48.273Z</time>
      </trkpt>
      <trkpt lat="47.550838" lon="7.895509">
        <ele>324.191610</ele>
        <time>2021-11-14T21:01:58.441Z</time>
      </trkpt>
      <trkpt lat="47.550878" lon="7.895158">
        <ele>324.528589</ele>
        <time>2021-11-14T21:02:02.503Z</time>
      </trkpt>
      <trkpt lat="47.550908" lon="7.894308">
        <ele>325.334347</ele>
        <time>2021-11-14T21:02:12.975Z</time>
      </trkpt>
      <trkpt lat="47.550892" lon="7.893176">
        <ele>326.406196</ele>
        <time>2021-11-14T21:02:27.693Z</time>
      </trkpt>
      <trkpt lat="47.550904" lon="7.891725">
        <ele>330.744397</ele>
        <time>2021-11-14T21:02:57.455Z</time>
      </trkpt>
      <trkpt lat="47.550915" lon="7.890600">
        <ele>334.263751</ele>
        <time>2021-11-14T21:03:26.295Z</time>
      </trkpt>
      <trkpt lat="47.550833" lon="7.889069">
        <ele>340.560051</ele>
        <time>2021-11-14T21:04:08.928Z</time>
      </trkpt>
      <trkpt lat="47.550831" lon="7.888611">
        <ele>342.497100</ele>
        <time>2021-11-14T21:04:21.499Z</time>
      </trkpt>
      <trkpt lat="47.550789" lon="7.887816">
        <ele>345.869659</ele>
        <time>2021-11-14T21:04:42.110Z</time>
      </trkpt>
      <trkpt lat="47.550758" lon="7.887295">
        <ele>347.847119</ele>
        <time>2021-11-14T21:04:55.932Z</time>
      </trkpt>
      <trkpt lat="47.550677" lon="7.886476">
        <ele>350.933595</ele>
        <time>2021-11-14T21:05:17.421Z</time>
      </trkpt>
      <trkpt lat="47.550548" lon="7.885799">
        <ele>353.556650</ele>
        <time>2021-11-14T21:05:34.624Z</time>
      </trkpt>
      <trkpt lat="47.550391" lon="7.885109">
        <ele>356.210749</ele>
        <time>2021-11-14T21:05:52.261Z</time>
      </trkpt>
      <trkpt lat="47.550332" lon="7.884727">
        <ele>357.292702</ele>
        <time>2021-11-14T21:06:00.951Z</time>
      </trkpt>
      <trkpt lat="47.550234" lon="7.883221">
        <ele>361.470011</ele>
        <time>2021-11-14T21:06:33.783Z</time>
      </trkpt>
      <trkpt lat="47.549927" lon="7.881490">
        <ele>366.148549</ele>
        <time>2021-11-14T21:07:06.047Z</time>
      </trkpt>
      <trkpt lat="47.549726" lon="7.880786">
        <ele>368.075100</ele>
        <time>2021-11-14T21:07:22.023Z</time>
      </trkpt>
      <trkpt lat="47.549327" lon="7.879547">
        <ele>371.622150</ele>
        <time>2021-11-14T21:07:51.807Z</time>
      </trkpt>
      <trkpt lat="47.549318" lon="7.879398">
        <ele>372.022239</ele>
        <time>2021-11-14T21:07:54.996Z</time>
      </trkpt>
      <trkpt lat="47.549140" lon="7.879391">
        <ele>372.727801</ele>
        <time>2021-11-14T21:08:01.866Z</time>
      </trkpt>
      <trkpt lat="47.548718" lon="7.879258">
        <ele>374.437365</ele>
        <time>2021-11-14T21:08:15.537Z</time>
      </trkpt>
      <trkpt lat="47.548422" lon="7.878959">
        <ele>375.856920</ele>
        <time>2021-11-14T21:08:26.183Z</time>
      </trkpt>
      <trkpt lat="47.548234" lon="7.878638">
        <ele>376.993577</ele>
        <time>2021-11-14T21:08:34.615Z</time>
      </trkpt>
      <trkpt lat="47.547992" lon="7.877974">
        <ele>377.331230</ele>
        <time>2021-11-14T21:08:47.713Z</time>
      </trkpt>
      <trkpt lat="47.547574" lon="7.876801">
        <ele>377.518227</ele>
        <time>2021-11-14T21:09:01.476Z</time>
      </trkpt>
      <trkpt lat="47.547126" lon="7.875801">
        <ele>376.105555</ele>
        <time>2021-11-14T21:09:10.259Z</time>
      </trkpt>
      <trkpt lat="47.546309" lon="7.874154">
        <ele>370.237837</ele>
        <time>2021-11-14T21:09:23.447Z</time>
      </trkpt>
      <trkpt lat="47.546135" lon="7.873859">
        <ele>368.618169</ele>
        <time>2021-11-14T21:09:25.829Z</time>
      </trkpt>
      <trkpt lat="47.546077" lon="7.873763">
        <ele>368.033001</ele>
        <time>2021-11-14T21:09:26.640Z</time>
      </trkpt>
      <trkpt lat="47.545934" lon="7.873549">
        <ele>366.665318</ele>
        <time>2021-11-14T21:09:28.445Z</time>
      </trkpt>
      <trkpt lat="47.545746" lon="7.873302">
        <ele>364.974527</ele>
        <time>2021-11-14T21:09:30.733Z</time>
      </trkpt>
      <trkpt lat="47.545515" lon="7.873015">
        <ele>362.945942</ele>
        <time>2021-11-14T21:09:33.432Z</time>
      </trkpt>
      <trkpt lat="47.545478" lon="7.872968">
        <ele>362.617991</ele>
        <time>2021-11-14T21:09:33.874Z</time>
      </trkpt>
      <trkpt lat="47.545375" lon="7.872836">
        <ele>361.701599</ele>
        <time>2021-11-14T21:09:35.067Z</time>
      </trkpt>
      <trkpt lat="47.545131" lon="7.872664">
        <ele>359.883402</ele>
        <time>2021-11-14T21:09:37.526Z</time>
      </trkpt>
      <trkpt lat="47.544883" lon="7.872555">
        <ele>358.142785</ele>
        <time>2021-11-14T21:09:39.848Z</time>
      </trkpt>
      <trkpt lat="47.544390" lon="7.872423">
        <ele>355.018938</ele>
        <time>2021-11-14T21:09:44.313Z</time>
      </trkpt>
      <trkpt lat="47.543332" lon="7.872237">
        <ele>348.423563</ele>
        <time>2021-11-14T21:09:54.080Z</time>
      </trkpt>
      <trkpt lat="47.543251" lon="7.872152">
        <ele>347.809086</ele>
        <time>2021-11-14T21:09:55.021Z</time>
      </trkpt>
      <trkpt lat="47.543233" lon="7.872082">
        <ele>347.496072</ele>
        <time>2021-11-14T21:09:55.442Z</time>
      </trkpt>
      <trkpt lat="47.543013" lon="7.872182">
        <ele>346.726691</ele>
        <time>2021-11-14T21:09:57.682Z</time>
      </trkpt>
      <trkpt lat="47.542919" lon="7.872226">
        <ele>346.726691</ele>
        <time>2021-11-14T21:09:58.603Z</time>
      </trkpt>
      <trkpt lat="47.542814" lon="7.872280">
        <ele>346.726691</ele>
        <time>2021-11-14T21:09:59.655Z</time>
      </trkpt>
      <trkpt lat="47.542714" lon="7.872334">
        <ele>346.726691</ele>
        <time>2021-11-14T21:10:00.739Z</time>
      </trkpt>
      <trkpt lat="47.542537" lon="7.872430">
        <ele>346.726691</ele>
        <time>2021-11-14T21:10:02.464Z</time>
      </trkpt>
      <trkpt lat="47.542436" lon="7.872494">
        <ele>346.726691</ele>
        <time>2021-11-14T21:10:03.788Z</time>
      </trkpt>
      <trkpt lat="47.542394" lon="7.872341">
        <ele>346.726691</ele>
        <time>2021-11-14T21:10:04.868Z</time>
      </trkpt>
      <trkpt lat="47.542218" lon="7.871866">
        <ele>346.726691</ele>
        <time>2021-11-14T21:10:08.515Z</time>
      </trkpt>
      <trkpt lat="47.542091" lon="7.871721">
        <ele>346.726691</ele>
        <time>2021-11-14T21:10:10.026Z</time>
      </trkpt>
      <trkpt lat="47.542067" lon="7.871664">
        <ele>346.726691</ele>
        <time>2021-11-14T21:10:10.743Z</time>
      </trkpt>
      <trkpt lat="47.542039" lon="7.871556">
        <ele>346.726691</ele>
        <time>2021-11-14T21:10:11.635Z</time>
      </trkpt>
      <trkpt lat="47.541953" lon="7.871286">
        <ele>346.726691</ele>
        <time>2021-11-14T21:10:13.791Z</time>
      </trkpt>
      <trkpt lat="47.541835" lon="7.871102">
        <ele>346.726691</ele>
        <time>2021-11-14T21:10:15.796Z</time>
      </trkpt>
    </trkseg>
  </trk>
</gpx>